GFSGL_925_spd_000.txt.gz
Wind_Speed
18 19 22 23 23 23 24 25 27 28 29 30 29 28 25 27 28 28 29 31 31 34 34 33 35 37 35 32 32 33 33 32 15 29 30 27 31 36 37 37 36 34 33
19 21 20 21 22 23 24 25 26 27 28 28 31 30 29 29 29 29 31 30 30 30 32 34 37 38 37 33 32 33 33 34 28 19 30 25 27 29 33 34 34 32 34
21 20 21 21 22 23 25 26 27 28 30 30 29 29 29 30 31 31 31 31 30 29 29 30 33 34 36 36 35 36 35 34 32 27 27 27 26 25 23 28 31 30 29
21 21 22 22 23 25 26 28 29 29 30 30 31 31 32 32 31 32 32 29 27 27 29 30 32 34 35 35 35 36 35 33 30 28 29 26 15 17 21 18 15 25 26
22 22 24 22 25 27 30 31 32 31 31 32 32 32 32 30 28 31 37 33 28 28 29 31 32 34 37 41 39 37 34 32 30 25 19 17 10 7 17 20 20 21 24
21 22 23 22 23 25 26 27 28 29 30 31 33 31 31 30 32 37 37 33 28 26 27 31 32 33 33 35 39 42 46 40 30 25 21 13 18 23 19 22 18 7 4
22 23 22 25 25 26 27 27 27 27 28 29 29 30 29 33 34 35 31 31 25 28 28 30 33 31 32 33 34 37 39 46 48 43 26 24 28 31 28 21 22 15 8
23 21 23 24 25 27 27 27 29 29 28 29 30 28 31 30 30 28 31 29 30 30 29 30 30 32 33 34 35 31 34 34 39 39 36 39 34 28 39 36 26 17 15
18 21 23 24 26 26 27 29 29 30 27 29 27 30 29 32 27 28 32 29 29 31 29 29 31 33 33 36 36 30 32 34 32 38 40 41 39 39 37 30 23 17 3
19 21 23 25 26 27 28 30 30 29 31 28 30 29 32 27 28 30 32 26 27 27 30 32 32 33 34 35 35 31 26 31 31 29 22 20 21 22 28 35 35 13 6
22 23 24 25 27 27 29 31 29 33 30 33 30 31 27 27 30 30 32 30 24 28 31 31 33 35 39 42 41 38 34 37 27 22 18 18 22 21 19 19 25 30 14
24 25 26 27 28 28 29 28 31 29 32 29 28 26 25 29 30 31 34 31 28 29 32 33 35 40 48 47 42 38 41 37 20 19 16 17 18 20 23 19 19 16 15
23 24 24 26 26 27 27 29 30 26 28 25 24 24 29 33 31 32 31 32 34 33 33 36 44 45 44 40 36 38 37 20 19 14 14 13 19 25 26 24 19 18 15
23 24 24 25 27 26 27 25 27 27 25 24 25 26 30 32 33 31 31 34 35 35 35 39 39 37 31 30 33 30 19 19 15 11 12 18 24 23 25 23 20 18 15
23 24 25 24 25 28 26 27 27 26 26 29 28 29 29 28 32 36 36 36 36 39 42 31 29 29 26 25 21 10 5 2 4 10 13 15 18 18 21 20 17 15 6
23 22 23 25 25 27 27 29 27 28 31 32 33 31 32 32 37 36 37 37 42 38 27 23 23 25 23 22 14 9 4 4 8 13 14 15 16 14 17 18 17 12 10
24 25 25 25 25 24 24 24 24 32 30 29 28 30 30 35 35 37 36 38 35 28 20 22 22 24 24 22 17 8 4 7 11 16 15 15 15 13 14 15 14 14 12
26 25 25 24 23 24 24 25 25 24 24 28 26 30 30 31 37 36 33 36 26 24 21 21 24 26 26 23 22 11 9 12 15 17 18 20 19 14 11 12 13 12 11
25 24 24 24 24 25 25 25 25 24 23 25 26 26 25 31 34 31 31 24 25 24 25 23 27 27 29 26 19 9 11 13 16 17 19 19 19 18 12 12 15 14 13
23 25 26 24 23 23 23 23 23 23 22 22 22 22 27 28 26 29 28 26 24 26 26 25 29 29 29 26 18 8 8 11 14 17 16 18 20 18 14 15 16 14 11
25 24 25 26 22 22 23 23 22 22 21 23 23 24 28 28 24 26 26 26 25 28 27 27 30 29 30 25 17 10 9 10 11 13 16 17 19 16 17 18 16 13 10
25 25 23 22 23 24 24 25 24 24 23 23 24 23 26 24 22 23 25 25 27 27 28 28 31 29 29 26 18 10 11 13 15 18 19 19 18 19 19 18 15 12 9
24 23 23 25 24 26 26 24 22 23 24 24 24 24 22 20 22 23 24 26 28 29 29 30 31 31 30 27 19 12 14 16 19 23 22 21 18 20 19 17 14 12 8
24 24 24 26 25 26 24 24 24 24 26 23 24 22 22 21 21 23 25 28 28 27 28 33 31 31 32 25 16 9 11 15 21 24 24 22 21 17 17 15 13 10 9
26 27 25 25 25 24 24 23 21 22 22 24 24 22 21 21 23 23 26 28 28 25 32 34 30 31 29 21 12 7 9 15 22 24 22 22 22 20 18 16 13 12 12
27 27 27 26 25 24 22 21 22 21 21 22 23 22 22 23 24 26 27 28 25 30 34 33 33 30 25 15 6 5 10 17 22 22 23 23 22 19 18 17 15 16 16

GFSGL_925_spd_003.txt.gz
Wind_Speed
25 24 24 24 23 23 24 26 28 29 31 31 32 32 32 33 33 34 34 33 32 33 34 33 31 32 31 31 34 33 32 31 15 31 35 35 33 36 37 40 47 49 45
22 23 23 24 25 27 29 31 32 30 30 29 31 31 31 31 31 31 31 33 31 30 30 30 31 31 30 29 30 32 34 35 30 21 34 32 33 37 40 42 43 46 46
25 25 26 27 28 29 32 34 35 34 34 34 32 30 30 31 32 32 32 28 27 27 27 28 29 29 30 30 31 30 30 33 36 32 28 35 33 31 31 35 37 39 42
23 24 26 26 27 30 33 33 33 34 34 34 34 35 35 33 32 31 28 34 31 29 28 27 28 29 29 31 32 33 32 30 30 30 29 29 31 25 28 22 17 28 31
20 23 22 24 29 31 31 31 32 33 34 34 35 37 33 35 30 38 40 35 30 26 26 27 29 31 34 37 36 32 31 29 28 23 15 22 20 5 11 17 24 25 28
22 23 23 28 30 29 30 31 30 31 31 32 34 32 34 32 35 39 41 30 20 23 27 30 30 31 31 35 33 35 36 33 28 22 16 14 21 25 21 22 21 4 5
23 22 26 28 27 28 30 30 30 31 31 33 31 31 32 31 34 36 36 21 29 29 28 31 31 28 35 34 37 37 36 34 33 33 27 26 26 27 23 23 26 19 12
20 24 27 28 28 29 30 30 31 30 31 31 30 34 30 34 39 40 25 24 27 28 29 28 27 34 34 34 35 33 35 34 33 33 32 32 34 33 29 30 30 15 9
19 23 25 27 27 28 28 29 30 30 30 31 32 31 35 35 37 24 33 30 29 30 28 24 30 31 33 36 35 33 36 38 36 35 38 42 40 40 39 22 16 9 2
20 23 24 26 26 27 29 29 30 30 31 30 32 32 33 31 22 38 41 33 30 30 25 30 31 30 35 39 38 36 32 37 36 38 37 36 35 38 34 33 22 11 4
21 23 24 24 27 26 28 30 30 29 30 30 29 31 27 27 33 37 35 32 31 30 29 30 33 35 40 45 44 39 34 40 39 35 32 30 22 15 15 20 20 19 9
22 24 26 27 27 27 29 29 27 28 25 27 28 24 26 28 31 34 34 34 35 31 29 32 36 41 44 43 42 37 39 41 31 27 21 11 4 3 5 7 13 17 12
24 27 27 28 27 26 26 27 25 24 24 24 23 25 26 29 31 32 32 33 35 35 33 37 42 40 35 34 35 38 34 28 25 15 6 1 6 10 15 17 17 18 22
26 26 26 25 26 25 24 22 24 23 24 24 25 25 28 30 30 30 31 34 33 32 36 38 35 30 28 30 32 31 28 24 16 10 5 6 11 13 13 14 18 20 19
24 24 23 23 25 26 25 25 26 26 25 29 28 28 27 26 29 37 37 37 36 36 41 29 25 25 26 27 30 29 28 24 17 11 7 9 9 11 12 16 16 11 7
25 23 24 26 25 25 25 29 27 28 30 30 30 29 30 31 34 37 38 38 35 37 28 22 22 24 25 27 28 29 28 25 19 13 9 8 7 10 13 13 14 8 7
25 26 25 25 25 25 25 25 25 32 31 28 27 29 30 31 35 35 34 33 33 31 22 22 22 23 27 28 28 27 26 27 22 14 9 8 10 12 14 12 11 10 7
28 27 26 27 25 25 25 24 23 25 24 28 28 27 29 32 33 31 30 33 27 25 23 23 24 26 29 30 28 28 28 25 15 12 9 10 12 12 11 10 10 8 8
28 23 24 25 24 25 25 25 24 24 24 25 27 27 27 30 30 25 26 21 23 24 25 24 25 29 30 32 29 30 25 21 14 10 8 6 8 11 9 10 11 11 10
24 24 25 24 23 22 24 23 23 23 24 24 23 25 29 29 23 22 23 22 23 23 25 26 29 31 31 34 30 29 24 17 8 3 2 9 11 12 9 11 11 12 9
25 25 25 25 22 22 23 23 24 23 21 22 25 25 31 30 25 24 23 22 23 25 27 28 30 30 34 33 30 29 22 13 6 3 9 11 13 11 11 13 14 12 11
25 25 23 22 22 23 25 24 24 24 23 23 25 26 29 26 22 22 21 23 24 25 28 29 29 33 33 33 29 27 21 9 5 9 12 14 13 12 13 14 13 11 8
25 24 22 23 24 26 26 24 22 21 23 24 23 24 25 25 22 21 22 25 26 27 29 26 32 34 34 34 30 27 20 10 9 12 13 13 13 13 15 15 13 10 6
26 24 22 23 24 26 23 24 24 24 24 21 25 25 24 23 22 23 25 29 29 30 28 30 34 35 35 37 30 22 14 7 9 12 13 15 15 14 14 13 9 6 5
25 24 24 25 25 24 23 22 21 20 22 25 23 23 23 24 25 24 26 29 30 27 27 34 35 35 36 37 26 17 10 4 8 11 13 15 15 15 14 12 9 9 9
26 25 24 24 24 24 23 22 23 23 23 23 23 23 23 24 24 26 29 29 29 28 34 34 36 37 33 29 19 11 2 4 9 10 13 15 17 15 13 12 13 12 11

GFSGL_925_spd_006.txt.gz
Wind_Speed
19 19 19 20 22 23 26 28 29 29 29 28 28 28 28 29 30 30 30 30 29 29 29 30 30 29 27 27 26 25 26 26 14 29 30 34 33 36 41 43 43 45 48
17 18 20 21 23 27 29 30 30 30 31 31 28 28 28 30 30 30 31 30 26 31 29 29 28 27 27 27 26 27 28 29 25 19 32 29 32 34 38 38 45 49 46
17 19 19 22 25 27 28 29 30 31 31 31 30 30 31 30 30 30 30 28 31 31 31 28 26 25 26 28 28 27 29 31 30 27 24 31 29 30 31 37 35 35 41
17 17 18 22 25 27 28 30 31 31 30 31 31 33 32 31 33 30 31 34 30 32 26 22 23 24 26 28 29 27 28 30 29 27 25 27 27 29 27 22 20 31 34
16 15 19 23 25 27 29 30 30 30 30 30 32 34 34 30 31 34 38 38 36 31 25 24 23 28 27 25 30 32 31 29 26 22 14 21 19 16 12 20 20 22 25
13 16 21 26 29 29 30 31 31 32 33 32 32 33 33 34 35 38 40 40 31 24 27 29 29 29 24 33 32 30 32 32 27 20 19 14 21 25 25 22 23 10 8
14 19 24 27 28 28 29 29 29 30 31 31 31 31 33 34 35 39 37 30 28 27 28 31 34 29 30 38 35 34 35 32 30 31 27 27 27 31 31 25 21 21 14
18 22 26 27 27 28 28 27 30 29 29 31 31 31 32 34 36 38 31 32 31 29 27 30 31 27 31 34 36 38 38 39 35 32 32 38 36 37 34 34 32 28 14
22 24 26 27 28 28 28 30 31 29 30 29 29 31 33 34 33 29 38 35 32 32 32 32 31 32 30 34 36 35 40 42 40 37 36 40 42 42 41 36 23 9 5
21 23 24 25 27 29 29 29 28 29 29 30 32 30 31 34 31 34 34 31 29 29 30 30 29 33 37 40 38 36 33 35 38 41 38 36 35 35 33 29 28 10 5
20 22 24 25 28 25 27 28 29 29 28 28 29 30 30 27 32 32 33 32 29 28 28 28 30 36 41 43 39 34 28 41 39 33 33 30 26 27 30 25 20 19 6
22 24 26 27 27 26 28 29 27 27 25 27 26 26 25 28 29 31 32 32 34 32 29 30 33 40 44 39 32 31 36 37 30 29 27 23 23 22 22 14 8 5 7
23 26 27 29 27 25 26 26 25 23 23 23 23 25 27 30 31 30 31 34 33 34 30 34 38 37 32 30 31 35 33 28 26 24 21 23 23 20 9 1 6 14 20
25 27 27 24 23 24 24 22 23 22 22 23 23 24 26 27 26 27 29 32 32 30 31 33 32 31 31 31 31 29 26 27 26 26 22 27 24 8 3 2 5 11 15
25 25 22 21 22 23 24 24 25 24 22 27 27 27 26 25 27 35 36 34 32 33 38 27 26 27 27 27 28 28 29 28 27 25 24 22 15 4 3 7 6 5 5
23 21 21 22 22 23 25 29 26 25 28 27 28 28 29 29 32 35 35 32 31 35 29 22 22 25 24 27 27 29 31 29 28 28 24 19 11 6 6 5 6 7 5
23 24 23 22 22 24 25 23 25 31 27 26 26 27 29 31 34 35 33 28 30 29 23 21 22 25 26 28 29 28 31 31 29 24 21 18 10 8 6 6 6 6 6
26 24 23 24 23 22 23 22 23 24 25 27 28 28 30 32 33 33 30 28 26 24 21 22 25 27 28 28 29 31 33 30 27 23 18 13 5 3 6 6 5 6 8
25 24 24 23 22 24 24 23 23 23 24 26 28 28 27 30 31 26 26 21 21 22 24 26 27 28 29 27 33 31 33 28 29 21 15 7 1 6 6 7 8 10 9
25 20 23 23 22 22 22 22 23 23 24 24 24 25 28 30 24 23 23 22 20 23 25 27 30 29 28 32 32 32 32 28 25 18 13 4 2 5 6 8 8 7 6
24 22 22 23 21 22 22 23 23 22 20 23 25 25 32 30 24 28 26 21 22 25 27 28 30 30 30 33 32 31 31 27 22 16 8 2 3 7 9 10 11 10 10
23 21 22 22 23 23 23 23 24 23 23 23 25 26 27 26 25 26 23 23 24 27 28 28 29 29 32 33 33 31 31 25 21 11 4 3 6 8 11 13 11 11 10
23 23 23 23 23 25 24 22 21 23 24 24 22 23 24 23 23 24 25 26 27 29 30 29 28 32 34 33 34 32 29 24 19 9 2 4 7 9 10 11 10 10 9
23 23 22 23 23 25 24 24 22 25 25 22 23 24 23 23 23 24 26 26 29 31 32 28 31 33 35 36 34 34 26 17 10 4 0 6 9 10 11 11 9 7 5
23 22 23 23 23 23 23 22 22 22 23 24 23 23 23 24 24 25 26 28 31 32 30 32 32 34 36 39 33 30 19 9 5 2 4 8 10 10 10 10 9 10 9
23 23 23 23 22 22 22 22 24 24 23 24 24 23 23 24 24 25 29 29 29 31 34 32 36 38 38 34 29 23 10 5 4 5 8 10 11 11 12 12 10 12 12

GFSGL_925_spd_009.txt.gz
Wind_Speed
15 16 16 19 21 23 25 26 27 27 28 28 27 26 27 28 28 27 28 28 26 28 29 29 30 28 25 23 24 23 23 22 13 31 30 30 30 31 35 37 42 43 42
14 14 16 20 23 25 27 27 28 29 29 29 30 28 29 28 29 27 30 27 29 30 30 31 29 24 25 24 24 25 23 24 20 15 35 31 29 30 33 33 35 36 41
13 14 18 22 24 25 26 27 27 28 29 30 30 29 29 29 28 29 28 30 31 30 30 31 27 27 25 26 27 23 22 26 25 24 23 30 32 31 30 31 33 34 33
14 16 19 21 22 23 24 25 27 28 29 31 30 29 29 29 28 26 31 32 32 30 30 25 26 25 26 30 26 22 24 25 24 23 24 28 29 31 29 25 22 24 27
12 15 18 20 21 23 25 27 28 30 31 33 34 36 33 32 27 34 33 31 26 28 29 27 27 29 30 27 23 29 27 24 22 21 17 21 23 23 19 27 27 29 32
14 16 19 21 23 25 27 29 30 32 32 33 33 32 31 30 31 32 32 32 29 29 30 30 28 31 29 28 29 30 28 27 26 21 19 14 24 26 29 26 27 13 15
13 16 20 22 25 27 28 29 30 30 30 29 30 30 31 32 31 33 32 32 30 28 28 30 31 28 31 30 33 32 30 31 30 33 27 26 30 31 32 29 27 24 15
14 17 20 23 24 26 27 28 29 28 27 29 29 29 31 31 32 33 33 33 31 31 30 31 31 31 30 35 37 36 34 36 35 32 32 32 34 38 35 34 38 36 37
16 19 21 22 25 28 28 29 29 29 28 27 27 30 30 32 31 31 34 32 30 31 30 29 30 32 33 38 39 36 37 38 36 31 33 37 36 39 41 39 28 14 14
18 19 21 22 24 26 25 28 28 27 26 27 28 26 28 30 29 32 32 30 29 28 26 26 30 34 39 40 42 38 30 29 31 35 36 35 31 33 33 28 26 11 11
18 20 21 22 24 24 25 27 29 28 26 25 26 27 27 26 30 32 31 32 29 28 27 30 30 35 39 44 40 33 31 37 35 30 33 32 31 28 27 27 27 23 14
19 21 22 24 23 23 24 28 27 26 23 25 25 27 26 27 29 31 33 33 34 31 30 30 32 40 42 39 37 37 37 34 28 28 28 26 28 28 28 28 28 22 19
20 23 25 25 24 22 25 27 25 22 21 22 23 24 27 28 29 30 32 32 34 34 31 32 37 39 36 34 34 36 33 29 27 24 23 26 27 30 30 27 18 8 4
22 25 26 25 24 26 25 22 21 21 21 22 23 24 26 26 26 28 28 31 32 32 26 28 36 33 29 32 31 29 27 30 29 28 26 29 28 27 23 19 11 4 3
23 25 25 25 24 27 23 23 23 23 21 26 26 26 26 25 27 35 35 35 34 30 34 28 29 27 28 29 29 28 30 30 27 29 28 25 24 23 19 14 10 4 1
23 21 23 21 23 22 24 27 23 22 26 27 27 27 28 30 33 35 35 35 35 33 28 24 25 25 25 27 27 29 29 31 30 33 28 25 21 19 16 9 6 0 2
22 24 23 22 23 23 24 23 24 25 24 27 27 27 28 31 33 34 34 34 31 32 22 22 23 25 26 27 28 28 29 33 33 32 26 22 20 17 13 3 1 4 4
23 23 22 24 23 23 22 23 24 23 22 25 27 28 29 30 32 33 32 34 29 23 19 22 25 26 28 29 30 29 33 32 31 31 26 22 19 14 4 1 3 5 5
23 23 22 22 22 24 25 24 23 23 23 25 27 27 27 30 31 23 28 25 25 21 22 25 26 27 29 30 30 32 32 31 32 31 23 20 17 10 3 3 7 10 8
22 20 21 22 22 23 23 23 23 23 24 24 24 26 28 28 19 23 25 25 26 23 25 26 28 30 30 30 31 32 31 32 30 26 21 17 13 6 4 7 9 6 5
23 22 21 23 22 23 23 24 24 23 20 24 25 26 32 30 24 25 25 24 25 25 27 27 29 30 31 31 33 31 30 30 29 22 18 15 10 8 10 11 11 9 8
22 20 21 22 24 24 24 24 24 24 24 24 26 26 26 25 24 24 24 25 26 27 27 28 29 31 31 33 33 32 30 28 26 20 16 11 9 9 10 11 9 8 7
22 23 23 23 23 26 25 23 21 24 24 24 24 23 24 23 23 24 25 26 27 28 30 29 30 32 34 33 34 31 29 28 23 16 12 7 6 7 9 8 7 8 7
23 21 21 24 24 25 24 24 23 25 24 23 24 23 23 23 25 25 26 27 27 29 30 29 31 34 36 38 36 35 33 27 13 11 7 5 7 7 8 8 8 7 7
21 20 21 22 23 23 23 22 22 23 23 23 23 23 24 25 25 25 26 27 28 30 30 34 33 35 37 41 36 30 30 13 12 8 6 6 8 8 11 12 10 10 11
21 21 22 22 22 22 22 22 23 24 23 24 24 23 23 25 25 26 26 26 28 32 35 33 38 40 40 38 29 30 13 12 9 8 7 7 10 11 11 14 15 17 14

GFSGL_925_spd_012.txt.gz
Wind_Speed
14 14 17 19 19 19 20 21 22 22 23 25 26 28 29 30 31 30 27 25 26 26 27 28 30 29 26 24 24 23 23 21 10 26 27 32 35 33 32 30 31 35 37
13 15 16 18 20 21 21 21 22 24 25 26 28 29 30 29 29 27 26 26 24 27 27 27 26 25 26 23 24 28 25 20 17 13 31 28 27 32 33 35 32 31 35
11 14 16 19 20 21 21 23 23 25 26 28 29 29 29 29 28 26 25 27 27 28 23 24 30 27 27 27 28 28 27 21 21 21 24 27 28 29 28 28 32 35 32
13 15 16 18 18 19 20 22 23 25 26 29 30 30 31 31 29 25 29 29 28 23 26 27 28 27 29 30 30 29 25 23 25 21 22 25 26 26 25 25 26 28 33
12 13 15 17 18 20 22 24 25 27 28 29 31 32 32 29 24 30 31 30 29 29 28 28 26 30 31 29 32 32 30 27 26 21 17 22 22 22 19 26 26 30 31
10 13 16 19 20 21 24 26 28 29 30 31 32 32 32 28 29 29 30 31 29 29 30 31 31 30 29 34 33 35 35 34 30 25 22 16 25 29 29 27 22 13 17
10 13 16 18 21 23 26 26 28 29 31 32 32 32 32 31 28 30 30 30 29 30 30 31 32 29 32 30 34 36 35 35 36 39 32 30 30 33 31 27 29 26 16
12 14 16 19 22 24 26 26 28 30 30 32 30 30 30 29 28 30 30 30 30 29 29 30 29 30 30 36 38 35 31 35 38 38 34 34 35 31 29 33 33 34 35
12 14 17 19 21 24 26 27 28 29 30 30 26 28 28 30 28 28 32 30 28 30 30 29 28 33 34 40 38 36 38 34 34 37 37 37 35 38 37 33 24 13 11
14 16 17 19 21 25 24 25 27 29 28 28 29 25 26 29 28 30 32 29 28 30 28 27 29 34 38 38 42 35 28 34 38 39 35 30 28 31 31 29 25 10 10
15 16 18 21 23 23 24 24 28 30 27 27 27 28 26 25 27 30 32 32 29 29 27 32 31 35 35 43 42 30 34 41 36 30 33 31 30 27 25 26 25 22 15
16 18 21 23 23 24 23 26 28 27 25 25 27 27 24 25 26 29 32 32 33 31 32 34 34 31 39 41 34 36 38 35 30 29 30 26 28 26 28 28 31 29 27
18 21 24 24 24 21 23 27 25 22 22 24 23 24 26 26 26 28 31 31 33 34 33 35 30 34 38 32 33 36 35 29 28 26 25 26 27 33 31 29 28 26 22
20 22 24 23 23 24 24 25 22 23 21 22 22 24 27 27 25 28 29 31 30 31 31 25 29 33 32 32 32 31 30 29 30 28 27 31 33 30 26 25 22 17 10
20 23 22 24 24 27 24 23 24 23 22 25 25 26 26 26 27 35 35 35 35 34 39 28 27 27 28 30 30 30 31 31 28 29 29 30 30 27 22 23 17 11 3
20 20 22 20 24 24 24 25 20 21 24 26 27 27 28 29 32 35 35 36 34 39 35 24 20 25 26 28 28 31 31 32 30 32 31 29 28 21 21 18 12 7 0
19 23 22 23 24 22 22 22 24 26 23 23 25 27 28 31 33 34 34 31 35 33 24 23 21 25 27 28 28 30 31 33 34 31 30 28 28 21 19 13 7 2 3
21 23 24 25 23 22 22 22 23 23 24 26 26 28 29 31 32 32 27 32 25 25 25 22 24 27 28 28 31 31 33 32 31 30 30 29 21 17 12 7 3 3 2
22 25 23 22 21 22 24 23 22 22 23 25 27 25 27 30 31 22 29 22 22 24 25 25 27 28 28 31 32 33 32 32 33 30 28 24 20 15 10 8 5 6 5
23 20 21 21 21 22 21 21 23 23 23 24 23 26 28 29 18 24 25 23 23 24 26 27 28 29 30 32 33 32 31 31 30 29 28 21 18 14 11 9 8 6 5
23 23 20 22 20 21 22 22 23 21 23 24 24 26 32 29 25 24 24 23 24 25 27 28 30 31 32 33 33 32 30 30 29 27 22 17 15 13 12 9 8 6 4
22 21 21 21 23 22 23 23 23 23 23 24 25 26 29 25 23 23 24 25 26 27 27 29 31 32 33 33 33 32 31 30 28 25 19 16 13 11 7 6 6 6 7
22 24 24 22 22 25 24 22 22 23 23 24 24 24 24 23 23 24 25 26 27 28 29 30 31 33 34 35 35 31 29 29 29 22 16 12 10 8 7 7 6 6 5
24 23 22 23 22 24 23 22 22 23 23 23 23 24 24 24 24 25 26 27 28 29 30 30 32 35 37 39 36 35 32 33 17 14 10 10 8 8 7 6 5 3 5
24 24 22 22 22 22 21 20 21 22 23 23 23 24 24 24 25 26 27 27 27 29 31 35 34 35 38 42 36 31 33 13 13 12 10 8 10 10 9 8 6 8 10
23 23 22 21 20 20 20 22 22 23 24 24 23 23 25 26 25 26 26 26 28 32 35 34 38 41 42 38 31 31 16 13 12 11 10 9 10 12 10 11 14 16 17

GFSGL_925_spd_015.txt.gz
Wind_Speed
14 13 14 14 14 15 17 17 17 17 18 18 19 19 19 20 21 21 20 19 23 22 22 23 22 21 26 26 23 23 24 22 12 33 31 30 35 36 35 34 34 36 33
11 11 12 13 15 16 16 16 16 17 18 19 21 20 20 21 21 21 20 22 23 25 26 20 24 26 27 25 25 26 26 26 25 19 28 34 33 33 33 34 35 32 33
8 10 12 13 14 14 15 16 17 19 20 22 22 21 21 23 23 21 22 24 24 24 24 25 27 28 28 27 27 27 23 27 27 27 27 32 32 30 32 33 33 34 34
7 10 10 12 12 13 14 17 19 20 21 23 23 23 23 22 21 21 25 26 26 26 25 27 28 27 28 30 29 27 28 28 28 27 26 28 30 32 31 30 30 31 33
8 8 10 10 11 14 17 19 20 21 22 22 23 23 22 21 20 26 26 27 28 29 29 29 28 28 30 29 30 32 31 31 30 27 23 25 24 26 25 31 29 32 31
7 8 8 10 13 15 18 21 22 22 23 25 24 22 22 22 24 25 27 28 28 29 29 31 30 30 29 32 33 33 35 35 33 27 27 16 26 31 34 30 29 13 13
6 8 12 12 15 18 21 22 22 24 26 23 23 24 24 24 25 27 28 28 28 29 29 30 31 29 31 31 33 34 31 34 36 36 31 29 29 35 34 33 29 18 17
7 10 11 14 18 20 22 23 24 23 22 22 23 24 26 25 26 27 28 28 29 28 29 30 30 31 31 34 35 25 31 39 35 33 34 37 35 40 37 36 33 33 31
8 11 13 16 18 21 23 24 24 21 24 24 23 24 26 26 26 26 29 29 29 29 28 30 27 33 34 37 33 32 37 38 35 37 38 38 37 41 38 32 23 13 13
10 12 14 16 19 21 22 23 24 25 24 26 26 22 23 26 24 27 30 28 29 29 29 27 30 35 39 29 35 35 33 35 37 38 36 35 31 33 32 29 27 12 13
11 13 15 18 20 20 23 24 27 27 24 25 25 23 22 21 25 29 30 31 29 30 27 30 30 37 28 35 39 34 32 41 36 33 32 31 31 30 29 29 26 28 20
12 14 17 20 21 23 23 26 27 24 23 24 25 24 23 24 26 28 31 31 33 31 30 32 35 32 41 38 37 36 38 36 30 29 28 28 27 29 31 32 34 36 29
14 17 19 22 23 23 24 24 22 20 20 23 22 23 25 26 26 27 30 30 32 34 32 34 37 43 39 31 35 38 34 29 28 26 25 28 28 34 35 33 33 27 28
15 19 22 24 23 24 25 21 19 21 21 21 22 23 25 26 25 27 28 29 31 30 26 34 39 36 28 32 33 30 28 28 29 28 28 31 33 31 29 30 26 24 20
17 20 22 23 24 24 21 19 19 19 19 25 25 25 24 24 27 34 35 34 34 30 39 31 29 26 26 29 29 29 30 29 28 29 30 30 29 28 28 30 21 19 9
17 17 20 18 20 20 20 22 17 19 22 24 25 25 27 28 31 34 35 34 32 36 30 25 25 23 25 28 29 30 30 31 30 32 30 29 27 26 26 22 17 11 3
17 19 17 18 18 18 21 21 23 23 21 21 22 25 27 30 32 33 33 29 34 32 23 23 24 26 28 29 29 29 30 33 34 30 30 29 28 26 22 16 11 3 3
17 19 18 19 18 20 19 20 22 22 22 23 24 26 28 29 31 33 28 34 26 24 23 24 25 28 28 29 30 31 32 33 31 29 29 28 27 20 16 10 7 4 4
18 20 21 19 18 19 21 21 20 21 22 24 26 25 26 29 30 25 30 23 23 24 25 26 27 29 30 31 32 32 32 31 33 29 27 26 21 17 12 12 11 11 7
23 20 19 19 18 19 19 19 20 21 22 23 24 25 28 29 23 24 25 23 24 24 27 28 29 30 31 32 33 32 31 31 29 27 26 24 18 15 14 12 11 8 7
22 22 18 19 17 19 19 20 21 21 23 22 24 25 30 30 24 24 25 24 25 26 28 29 31 31 32 33 33 32 31 31 29 26 23 19 17 14 12 10 9 8 7
21 20 17 18 19 18 20 22 21 21 22 22 24 25 28 25 23 24 25 26 27 28 28 30 32 32 33 33 33 32 31 30 27 24 22 16 14 12 11 9 8 8 8
19 21 20 19 19 21 21 20 21 20 20 22 23 24 24 24 25 25 26 27 29 30 31 30 32 34 36 35 34 31 29 29 28 24 16 15 13 12 10 8 7 6 7
21 20 20 20 20 21 21 20 20 21 21 22 23 23 24 25 25 26 27 29 29 31 31 31 32 35 38 39 36 34 32 31 18 16 14 14 13 12 9 7 6 5 5
22 21 20 19 20 20 20 20 20 20 21 22 23 23 25 25 26 27 27 28 28 30 32 34 34 36 38 40 34 29 27 16 15 14 12 11 10 10 9 8 7 6 6
21 20 20 19 18 19 19 20 21 21 22 23 22 24 25 25 26 27 26 27 29 32 33 34 38 42 40 32 28 25 18 16 14 13 13 11 10 12 11 10 12 10 11

GFSGL_925_spd_018.txt.gz
Wind_Speed
7 6 7 7 6 6 7 8 9 10 11 12 14 16 17 18 18 19 20 19 21 23 23 24 26 24 26 26 27 27 27 27 13 29 33 38 40 38 37 38 36 37 36
6 5 6 5 5 6 6 8 10 11 12 13 14 16 17 18 19 20 20 22 23 24 25 25 26 25 28 28 27 28 28 29 25 18 34 35 37 39 38 37 37 36 38
5 5 4 5 6 7 8 9 10 12 13 13 14 16 18 20 20 20 21 24 25 26 26 27 27 28 29 28 28 29 28 28 30 28 29 32 35 35 35 35 36 36 37
4 4 4 5 7 8 8 9 10 11 13 15 16 17 19 20 20 19 24 26 27 27 27 27 28 28 28 31 31 31 29 31 31 30 28 29 30 34 33 30 29 32 32
3 2 3 5 7 9 9 10 12 13 14 15 17 18 19 20 19 23 25 27 28 29 28 28 28 28 30 30 30 31 31 33 30 27 23 25 27 28 25 31 29 33 35
2 2 5 7 8 9 11 12 13 14 15 16 18 19 21 21 22 24 26 27 28 29 29 30 30 30 29 32 33 36 35 36 33 27 23 17 28 29 32 31 29 15 16
2 3 5 7 9 11 12 13 14 16 17 19 20 21 23 23 23 25 26 27 28 27 29 30 31 30 31 32 36 37 37 33 30 34 31 30 32 35 35 34 33 28 19
2 4 6 7 10 12 14 15 17 17 19 20 21 23 24 24 23 25 26 27 28 28 28 29 31 33 32 35 37 36 30 32 34 36 35 36 36 38 37 35 36 35 38
3 5 6 8 11 14 15 17 18 19 20 22 22 23 24 25 23 23 26 29 29 30 29 29 32 33 35 39 39 30 36 35 37 39 38 41 40 41 37 32 25 14 15
4 6 8 10 12 15 16 18 19 20 22 22 23 22 22 24 22 23 26 28 30 30 31 32 31 34 39 38 38 40 32 32 38 40 36 35 33 32 31 29 27 14 13
5 7 9 11 14 15 17 18 20 22 23 23 24 22 20 20 23 25 26 28 28 30 30 31 31 36 38 44 45 37 31 41 39 34 33 32 31 29 28 27 27 27 22
6 8 11 13 14 15 17 18 20 21 22 24 24 22 20 21 24 26 27 29 31 32 33 33 35 37 44 42 37 32 39 37 30 29 29 29 29 30 31 32 34 34 34
8 11 13 14 15 16 17 19 20 20 21 22 22 24 25 25 26 26 29 31 34 35 33 37 37 41 38 34 29 37 32 28 28 27 26 28 30 34 37 34 32 32 32
10 12 14 15 16 16 17 17 19 20 20 21 23 25 26 27 27 28 30 31 33 32 32 30 38 33 31 31 32 29 28 28 29 28 27 32 33 32 30 31 27 27 25
11 13 14 15 17 18 18 18 18 18 18 23 25 26 26 26 28 34 35 36 34 35 38 32 28 27 28 28 28 28 29 30 29 29 29 30 30 30 28 29 26 24 11
12 12 14 16 18 19 20 21 17 18 21 23 24 24 27 29 32 35 36 35 36 36 30 25 25 25 25 27 28 30 30 31 29 31 30 29 27 27 26 27 21 13 5
11 13 15 16 17 18 20 20 23 23 20 20 21 23 26 29 32 34 34 34 33 29 24 23 24 25 27 28 29 29 30 32 33 30 29 28 27 25 25 18 12 9 5
11 13 14 16 17 18 19 21 22 23 23 24 23 25 26 28 30 33 31 32 25 25 23 24 25 27 28 29 30 30 31 32 30 29 29 27 25 22 17 14 14 9 8
12 14 15 17 17 18 20 21 21 22 23 25 26 26 25 26 30 28 28 23 23 23 24 25 26 28 29 31 31 31 31 30 31 29 26 24 24 18 15 14 13 13 11
13 15 15 17 17 18 18 20 21 22 24 24 24 25 27 29 25 25 24 23 24 25 26 27 28 29 31 31 31 31 31 31 29 27 25 23 21 17 15 14 13 11 10
15 15 15 15 17 18 19 20 22 23 23 24 25 26 28 28 24 23 24 24 25 26 27 28 30 31 32 31 31 30 30 29 27 25 23 22 20 16 14 12 12 11 8
15 15 15 17 18 19 20 22 21 22 23 24 26 26 27 24 23 24 25 25 26 27 28 29 31 32 33 31 31 31 29 28 27 24 24 21 18 16 14 12 11 10 9
14 15 17 18 19 20 20 20 21 21 22 24 25 25 25 23 24 24 25 27 27 28 29 30 31 33 34 33 32 29 28 27 28 25 20 19 16 14 12 11 10 10 9
15 17 18 19 19 20 20 20 20 21 22 23 24 24 24 23 25 25 26 27 28 28 29 30 32 35 35 36 33 31 30 30 21 19 17 15 14 13 11 10 9 8 7
16 17 18 19 19 19 19 19 20 21 22 23 23 23 24 25 24 25 26 26 27 29 31 33 33 35 35 38 32 31 30 23 21 20 15 13 13 13 11 9 8 7 7
16 17 17 17 18 18 18 20 21 22 22 22 22 23 23 24 24 25 25 26 26 32 31 33 36 38 37 33 28 30 25 22 21 18 12 12 13 11 8 9 10 10 9

GFSGL_925_spd_021.txt.gz
Wind_Speed
7 7 6 6 6 6 6 7 8 8 10 11 12 14 16 18 19 20 21 22 21 24 24 25 26 27 26 26 26 27 26 25 14 30 35 35 38 37 36 33 37 33 36
6 5 5 5 6 6 7 7 8 9 10 12 14 15 17 19 20 21 22 22 24 26 26 27 27 26 28 26 26 27 27 28 29 19 33 35 37 36 36 34 33 33 37
5 4 4 5 6 6 7 8 9 11 12 13 14 17 19 20 21 21 22 23 26 27 27 27 28 27 27 26 27 27 29 29 28 28 30 34 35 34 34 31 35 38 34
5 4 4 5 6 7 7 8 10 12 13 15 16 18 20 22 22 23 21 26 27 27 28 28 28 26 27 27 30 29 28 28 31 30 29 30 31 34 28 31 33 33 34
5 3 3 4 5 6 8 10 12 13 15 17 19 20 22 22 22 22 25 26 28 29 29 28 27 28 30 31 29 28 31 30 30 28 25 25 20 26 24 32 31 36 37
4 2 2 4 6 7 9 11 13 15 17 18 20 22 23 23 24 25 26 27 28 29 29 28 28 29 28 31 31 36 36 35 32 29 29 11 21 29 35 30 30 20 18
3 1 3 4 6 8 11 13 15 17 19 21 22 23 24 25 25 26 27 27 28 27 29 29 30 27 30 30 35 36 34 37 39 35 31 26 31 35 36 35 31 28 21
1 2 3 5 8 10 12 15 17 18 20 22 23 24 25 25 26 26 26 27 27 28 29 29 30 31 33 35 35 33 33 32 36 35 36 35 36 39 38 35 37 37 35
0 3 4 6 9 12 14 17 18 20 21 23 24 26 26 25 25 24 25 27 27 29 28 28 32 33 34 37 37 33 36 36 36 36 37 41 43 40 38 35 27 16 15
1 3 5 8 10 13 16 18 19 20 22 24 25 25 25 25 23 24 25 26 27 29 29 29 31 35 37 39 38 37 32 35 33 36 34 32 32 33 33 30 29 14 14
2 4 7 9 12 14 16 18 20 22 23 23 24 24 24 22 23 25 27 27 27 30 29 31 31 36 38 38 43 33 34 39 36 30 32 31 31 29 29 29 29 29 24
4 6 9 11 13 15 18 20 21 22 23 23 23 22 21 22 24 27 28 30 33 32 31 33 35 37 38 41 34 36 38 36 30 29 29 28 28 29 31 33 35 36 35
5 8 10 12 14 16 18 20 21 21 21 21 21 21 22 23 25 26 29 34 35 36 33 38 34 39 37 30 34 35 33 28 28 25 25 28 30 34 36 34 33 32 33
7 9 11 14 16 18 17 18 19 19 20 20 21 22 24 25 25 27 31 33 33 34 34 29 36 33 31 33 30 29 27 28 29 27 27 31 33 31 31 31 29 29 25
8 11 13 14 16 19 18 19 20 20 19 22 23 25 25 26 28 36 37 37 37 36 38 30 26 27 27 28 28 28 28 28 27 28 29 30 29 29 29 31 29 23 10
9 11 13 16 17 18 19 21 19 20 22 23 25 25 26 28 33 36 37 38 37 36 28 23 24 25 25 27 27 29 29 30 29 31 29 28 26 26 26 28 22 15 7
10 13 14 16 17 18 19 19 22 23 22 22 23 24 26 30 31 33 36 35 33 29 23 24 23 25 27 28 28 28 29 31 32 29 28 27 27 25 26 19 20 19 12
12 14 15 16 17 18 18 19 20 21 22 23 23 26 27 28 29 34 33 32 24 25 23 24 25 26 28 28 29 29 31 32 30 28 28 26 24 22 20 17 17 13 12
12 13 14 16 17 19 19 19 20 21 21 23 25 26 26 27 31 30 29 22 24 24 25 25 26 28 29 29 30 30 30 30 31 28 25 24 24 23 18 17 17 19 17
12 14 15 16 18 18 18 19 20 20 21 22 22 23 26 28 24 25 23 24 24 24 25 27 29 29 30 30 30 30 30 30 28 26 25 25 24 22 18 16 15 14 12
14 15 16 16 17 18 19 19 20 22 21 21 22 23 29 28 24 24 25 25 25 26 27 28 30 30 31 31 30 30 30 29 28 27 25 24 22 22 19 15 13 14 13
14 16 15 16 18 18 19 20 21 21 21 21 23 24 27 24 23 24 25 25 27 28 28 29 30 31 32 30 31 30 29 28 28 27 26 24 23 21 18 15 13 13 12
15 15 16 18 18 20 20 20 19 20 21 22 22 23 24 23 24 24 25 27 28 29 29 30 31 32 33 32 32 30 28 29 30 27 27 25 22 20 17 14 13 11 10
15 16 17 18 19 19 19 19 19 20 22 21 22 23 23 24 25 25 26 27 28 29 30 31 32 34 34 36 34 32 31 34 30 30 26 21 20 20 17 14 12 11 10
16 16 17 18 18 18 18 18 19 20 20 21 22 23 24 24 25 25 26 27 28 29 32 34 32 34 36 39 34 32 36 32 29 26 22 19 19 19 15 13 12 10 12
16 16 17 17 17 17 17 18 19 21 21 22 22 23 24 24 24 25 26 27 27 32 32 33 36 38 37 35 33 34 34 30 25 20 18 16 15 13 14 15 13 10 11

GFSGL_925_spd_024.txt.gz
Wind_Speed
14 12 11 10 8 7 7 7 9 9 10 12 14 16 18 20 21 23 24 24 25 25 27 28 29 30 28 25 27 25 25 24 14 33 37 38 37 38 39 33 32 35 35
13 11 10 9 6 6 7 7 8 9 11 13 15 17 20 22 23 25 26 26 24 25 27 29 29 28 30 28 25 26 24 25 27 18 35 33 36 39 37 40 33 34 27
12 11 9 6 5 5 5 7 8 11 13 15 17 19 22 24 25 25 27 22 27 27 27 29 30 31 30 27 27 26 30 29 27 25 29 35 35 35 38 37 32 29 30
12 9 7 4 3 5 6 8 10 12 15 17 19 21 24 24 25 26 23 29 27 25 28 30 31 31 29 30 31 31 26 26 27 29 29 27 31 37 34 25 29 31 37
10 8 5 3 3 5 7 9 12 14 16 19 21 23 24 25 23 25 29 27 27 26 29 30 30 30 32 34 32 30 30 31 30 23 22 26 28 29 25 29 31 36 35
10 7 3 2 4 5 8 11 13 16 19 21 23 23 24 25 24 27 27 28 26 27 30 29 31 31 30 33 34 39 38 35 31 28 24 18 31 32 32 29 29 24 17
9 5 3 2 4 7 9 12 15 18 20 22 23 24 25 27 26 27 28 28 26 27 28 30 32 29 32 35 36 37 32 32 35 37 33 31 34 32 31 33 31 28 22
7 4 1 2 5 8 11 14 17 19 21 23 24 25 27 28 26 27 28 26 27 27 28 30 30 32 34 37 38 33 29 31 31 33 34 35 34 38 36 35 34 36 34
6 3 1 4 6 10 13 16 20 21 23 24 25 27 28 29 26 27 27 27 26 28 28 27 29 35 35 39 38 34 32 31 31 34 36 36 38 39 37 36 27 20 15
4 0 2 5 8 11 15 19 20 21 23 25 27 27 27 28 28 26 27 28 27 28 28 26 30 34 39 40 38 36 29 31 34 32 30 33 33 34 34 32 31 13 13
2 1 3 6 10 13 17 18 20 22 24 26 27 27 26 25 26 27 29 29 27 30 28 30 30 36 40 39 41 30 33 40 33 31 33 32 31 28 29 29 30 30 25
0 3 5 9 13 15 16 20 20 23 24 26 25 24 22 24 25 28 29 30 33 31 31 32 36 39 40 37 34 37 36 36 31 30 29 27 29 29 31 33 35 36 36
1 4 9 12 14 14 18 20 22 22 22 21 20 21 24 24 26 26 29 31 33 34 33 37 36 36 33 32 32 35 33 30 28 26 25 28 29 33 34 33 33 32 32
5 8 11 12 14 18 20 20 22 23 24 19 20 21 23 25 26 28 28 31 31 32 33 28 30 31 31 30 30 30 28 28 29 28 27 30 31 28 29 28 28 30 28
7 8 10 13 17 20 20 21 22 23 21 24 23 24 23 24 27 34 35 35 36 36 38 26 28 27 27 28 28 29 29 29 27 28 28 28 28 26 26 27 24 22 18
6 9 12 15 19 20 22 25 20 20 22 23 24 25 27 27 31 33 34 37 36 35 28 25 25 25 25 27 28 29 29 29 28 29 28 26 24 24 25 26 23 18 13
7 11 15 18 18 20 23 21 23 26 20 21 23 25 26 29 30 31 35 35 30 30 23 24 24 25 27 28 28 28 28 30 30 27 26 26 26 25 26 23 18 18 15
10 12 14 16 18 22 23 23 22 20 23 26 25 26 27 27 30 32 33 30 27 25 23 24 25 27 28 28 29 29 30 30 28 27 28 26 25 24 23 19 18 15 14
13 15 16 18 19 19 22 23 21 21 22 23 27 25 25 28 30 28 28 22 24 25 25 26 27 28 28 30 30 29 29 29 31 28 26 26 26 23 21 21 19 21 20
12 14 16 18 18 19 20 20 20 20 22 23 22 25 27 29 24 26 25 24 24 25 26 27 29 29 30 30 30 29 29 29 29 28 27 27 25 20 20 20 19 16 16
13 17 17 18 18 20 22 20 20 21 21 22 23 24 29 28 25 24 25 25 26 27 28 28 30 31 31 31 30 29 28 29 28 28 28 27 22 22 22 20 18 16 15
15 16 17 18 19 20 21 20 21 21 21 22 24 24 27 24 23 24 25 27 28 27 28 29 31 32 32 31 31 30 29 29 30 29 30 26 24 22 21 18 17 15 14
16 17 18 18 19 20 22 20 21 20 21 21 23 23 24 23 24 25 27 28 28 29 30 30 31 33 33 32 32 30 29 30 33 34 29 25 22 21 20 17 15 13 12
17 18 18 18 20 20 20 20 20 21 21 22 23 23 23 23 26 27 27 28 28 30 31 31 33 35 37 37 36 36 34 35 37 31 24 21 20 21 20 17 14 15 14
16 17 18 19 21 21 21 20 19 20 21 22 23 23 24 26 26 26 27 27 29 30 33 36 35 36 37 37 37 35 36 38 28 21 21 17 16 16 17 15 11 11 12
16 17 19 20 20 21 21 22 23 22 22 23 21 24 25 25 25 26 27 27 29 34 35 36 38 38 37 38 37 35 36 27 24 20 17 15 13 14 15 14 12 12 11

GFSGL_925_spd_027.txt.gz
Wind_Speed
19 17 16 13 10 7 7 6 7 7 9 11 13 15 17 19 22 22 22 21 24 18 24 24 25 26 26 26 27 25 25 21 14 36 37 36 36 35 35 32 30 32 36
18 16 14 11 8 6 5 6 6 8 10 12 14 17 19 22 23 23 24 26 19 25 26 25 26 26 27 27 26 27 24 28 26 18 37 34 35 38 37 35 32 32 30
17 15 12 9 6 5 4 5 7 9 12 14 16 19 21 24 24 25 24 21 26 25 21 24 27 27 27 28 28 28 28 28 25 24 28 35 36 32 33 31 28 34 30
17 13 10 7 5 4 4 6 8 11 14 16 19 20 22 24 25 23 25 28 26 23 24 27 28 27 28 29 30 28 26 28 29 29 30 27 30 27 27 31 33 32 33
15 12 8 5 3 3 5 7 10 12 15 17 19 21 23 25 22 27 27 26 25 25 27 27 26 25 29 30 30 32 34 31 28 23 26 23 21 30 27 31 31 34 32
14 10 7 4 3 4 6 9 12 14 17 19 21 23 25 25 25 26 26 28 27 28 27 27 27 27 28 31 34 36 35 35 33 29 22 16 29 30 31 32 32 20 13
13 9 5 3 2 4 7 10 13 16 18 20 23 24 25 27 25 27 27 29 29 29 28 28 28 27 29 30 36 36 35 35 32 33 31 29 32 33 36 30 26 26 23
11 8 4 2 3 6 9 11 14 17 19 22 24 25 26 28 25 26 28 27 25 25 27 27 28 29 29 36 38 35 32 26 28 30 31 34 34 35 36 35 34 33 31
10 6 3 2 4 7 10 14 16 19 21 23 25 26 27 26 26 26 26 27 26 26 26 25 29 31 34 39 38 31 28 24 28 33 33 34 38 38 35 35 26 20 14
8 4 2 2 5 9 12 15 17 20 22 24 25 24 23 25 24 25 25 25 25 27 27 26 28 33 38 38 37 31 25 32 32 29 31 33 32 34 33 30 29 15 12
6 3 1 3 7 10 13 16 20 21 23 24 24 26 24 21 24 25 26 26 25 26 26 29 30 37 35 38 36 31 32 36 31 30 30 31 30 28 30 30 31 29 24
5 2 2 5 8 10 14 18 20 21 22 26 28 24 21 22 22 25 27 28 28 28 27 30 34 32 37 36 33 31 34 33 30 28 28 27 28 30 31 34 36 36 35
4 2 3 6 9 12 17 19 20 22 25 25 21 20 20 23 25 25 27 27 30 31 29 33 30 34 32 29 30 31 31 28 25 24 25 27 29 33 35 32 32 30 32
3 2 5 8 12 16 17 18 19 23 25 19 19 20 22 23 23 26 27 29 29 27 28 24 29 29 27 28 29 28 27 26 28 26 27 30 31 29 28 27 27 28 25
2 4 8 11 13 16 17 18 19 19 19 22 22 22 23 24 26 32 33 33 33 32 34 26 26 26 26 26 27 27 28 28 27 27 28 29 28 27 26 27 25 26 17
4 8 10 12 15 16 20 24 21 17 19 19 20 22 25 25 29 31 32 32 33 32 25 23 23 24 24 26 26 28 28 29 28 30 28 27 25 26 26 27 25 20 13
6 8 11 12 14 17 22 22 20 21 17 18 20 22 23 26 28 29 31 33 29 26 21 22 23 24 25 27 27 27 28 30 31 28 27 26 26 25 26 24 21 19 16
7 8 11 14 15 18 19 22 22 20 22 23 21 23 23 26 27 28 30 28 24 23 21 22 24 25 27 27 28 28 29 30 29 28 28 26 25 23 23 19 20 17 15
7 10 13 15 17 17 20 21 21 18 18 21 25 23 23 26 26 25 26 21 22 22 24 25 26 27 27 28 28 29 29 29 30 29 27 26 26 24 20 20 19 22 20
9 11 13 16 18 19 21 21 18 17 19 19 21 23 25 26 23 25 23 22 22 24 25 27 28 28 29 29 29 29 29 29 29 28 27 27 26 25 19 19 18 16 15
11 15 15 17 18 19 20 20 19 19 19 19 21 22 26 26 22 22 23 23 25 26 27 28 30 30 30 30 29 29 28 29 28 27 27 27 27 23 21 19 18 16 13
13 15 16 17 18 18 20 19 20 18 19 19 21 23 25 22 21 22 24 25 26 27 28 28 30 31 31 31 31 30 29 29 30 28 28 29 27 22 21 19 17 16 13
14 16 16 17 16 19 19 19 18 17 19 20 21 22 22 22 22 24 25 26 27 29 29 30 31 33 34 34 34 31 30 31 33 32 32 31 22 21 20 17 16 15 12
14 15 16 16 19 17 19 17 18 18 20 21 21 22 21 22 24 25 26 27 28 30 30 32 34 35 37 38 38 36 34 34 36 37 25 19 18 17 18 16 13 15 10
13 14 15 17 18 19 19 18 19 20 21 20 21 21 23 24 24 25 26 27 28 30 34 36 36 37 38 38 35 33 32 36 35 21 17 13 13 14 15 12 12 11 9
12 14 16 18 19 21 22 22 23 20 20 22 21 23 22 23 24 26 26 27 29 35 36 38 39 39 38 36 34 33 34 33 19 16 12 12 11 12 13 11 10 10 10

GFSGL_925_spd_030.txt.gz
Wind_Speed
24 23 20 17 13 10 7 5 4 3 5 7 10 13 15 17 19 19 20 21 20 16 23 19 21 24 23 24 24 23 23 22 14 34 36 34 32 32 32 29 28 31 32
23 21 18 15 11 8 6 4 3 4 6 9 12 15 17 19 21 21 21 19 20 25 24 20 22 23 26 24 24 25 26 28 25 17 34 35 35 37 34 31 27 23 28
23 20 17 13 9 6 4 3 4 6 8 10 13 16 18 20 22 20 19 24 24 23 22 21 24 26 26 26 28 26 26 26 26 28 30 37 36 33 33 28 27 34 31
21 18 15 10 7 5 3 3 5 7 10 13 15 17 18 20 21 20 24 24 25 24 23 24 25 26 28 28 27 28 25 30 30 30 30 29 29 32 22 31 32 30 33
20 16 12 9 6 4 2 4 6 9 11 14 15 18 20 21 19 23 24 25 26 28 28 27 25 26 29 30 30 31 33 30 28 24 27 29 18 29 23 30 31 35 33
18 14 11 7 4 3 3 6 8 11 14 15 17 19 21 22 21 21 23 26 27 26 26 27 29 25 26 31 34 34 35 35 35 30 20 19 24 28 31 32 30 20 14
17 13 9 6 4 2 5 7 10 13 15 16 18 20 21 22 20 22 24 25 25 27 28 28 28 23 29 30 33 36 36 37 28 33 28 28 30 33 33 26 29 27 24
16 12 8 5 3 3 6 9 12 14 16 17 19 19 20 21 21 23 24 24 28 27 27 26 25 29 29 35 37 35 24 31 24 29 31 33 32 35 37 34 32 32 31
15 10 6 3 2 4 8 11 12 15 16 18 19 20 21 22 21 23 24 26 24 26 25 24 26 29 34 37 36 31 28 28 32 31 31 34 37 35 33 33 24 20 14
13 9 5 3 2 6 8 11 13 15 16 18 20 21 21 22 22 22 23 24 24 27 26 23 23 32 36 34 37 30 27 32 31 28 31 32 32 32 31 28 27 16 10
11 8 5 2 4 6 8 12 14 15 17 20 21 22 21 21 23 21 22 25 25 26 25 26 28 31 34 37 34 27 30 35 30 30 30 30 30 29 30 29 29 27 24
10 7 4 2 4 6 10 12 14 16 19 21 22 20 19 22 22 21 23 25 27 27 25 28 28 33 35 32 28 29 32 31 28 27 27 27 29 30 31 33 35 35 34
9 6 3 2 4 8 10 12 16 19 19 21 17 18 19 21 22 23 23 26 27 28 27 31 31 31 30 27 27 29 29 26 26 24 25 27 30 33 35 33 32 32 32
8 4 2 4 6 8 9 13 15 17 18 16 16 18 19 20 22 24 24 27 24 25 27 24 27 26 25 26 26 26 26 26 27 25 26 31 32 30 31 30 29 30 26
6 3 3 4 8 10 12 15 14 15 16 19 20 20 20 21 22 28 29 30 30 31 32 23 24 24 25 25 26 26 27 26 25 26 28 29 29 29 29 30 27 27 19
4 1 3 7 9 11 15 18 17 13 15 16 17 19 22 22 26 28 28 29 31 28 23 21 22 22 22 24 25 27 27 28 27 28 28 28 27 27 27 28 26 22 17
1 3 6 8 11 14 15 16 17 21 16 16 18 20 20 23 25 26 28 30 25 23 19 20 21 22 24 25 25 26 27 29 29 27 27 27 27 26 27 25 24 21 19
3 4 7 10 12 13 14 16 18 17 16 19 18 18 20 23 24 25 27 23 22 21 19 21 22 24 25 26 27 27 29 30 28 27 28 28 26 24 24 23 21 18 17
4 7 10 11 12 12 14 16 18 18 17 19 21 19 21 22 23 23 21 18 20 21 22 23 24 25 27 28 28 28 28 29 29 28 27 26 26 24 23 24 21 23 21
6 9 9 11 12 14 16 19 17 16 17 17 19 21 23 24 20 22 21 21 20 22 24 25 26 27 28 28 29 29 29 30 29 27 27 26 26 24 23 23 19 17 15
8 10 10 12 13 14 16 16 17 17 16 17 19 21 24 22 20 20 22 22 22 24 25 26 28 29 29 29 29 29 29 30 28 27 26 26 25 23 25 21 19 18 14
9 11 12 13 13 16 16 18 18 16 16 17 20 22 22 19 19 21 22 23 25 25 26 27 29 30 31 31 31 30 30 30 30 28 28 28 26 25 23 19 18 17 14
10 11 12 13 15 14 17 18 16 16 17 18 20 20 20 20 21 22 23 25 26 27 28 28 30 33 35 35 34 31 30 33 33 33 31 31 27 20 19 17 16 15 11
10 11 12 14 16 15 17 15 16 16 18 20 19 19 20 21 22 23 24 26 27 29 31 32 33 36 38 39 37 35 34 34 35 38 29 18 16 18 19 17 15 11 5
10 11 13 15 17 18 18 18 17 19 19 19 20 20 22 22 23 23 25 26 28 31 34 35 37 38 38 37 34 33 35 37 31 16 16 14 15 15 14 13 11 10 4
11 13 15 17 18 19 19 20 22 20 20 20 20 22 22 23 23 25 26 27 30 34 35 37 39 38 37 34 32 35 33 25 18 17 17 13 12 12 12 12 11 11 8

GFSGL_925_spd_033.txt.gz
Wind_Speed
29 27 25 21 18 14 11 9 7 5 4 5 7 9 11 13 15 16 16 15 17 20 20 21 20 20 22 23 25 23 21 20 14 34 36 35 36 36 34 33 32 33 35
28 26 23 19 15 12 10 8 6 5 5 6 8 11 13 14 16 17 15 18 20 21 22 22 22 23 24 26 25 23 24 26 24 17 32 38 38 39 38 34 29 26 25
27 24 21 17 13 11 9 6 5 5 5 7 10 12 14 15 17 16 17 19 20 21 22 24 25 25 26 26 28 26 25 24 24 27 32 35 38 35 35 28 27 33 32
25 22 19 15 12 9 7 6 4 5 7 9 10 11 13 15 16 17 18 20 21 23 22 21 22 23 25 27 26 25 24 29 29 29 30 31 31 27 27 32 32 30 34
24 20 17 14 11 8 6 5 5 6 8 8 10 13 15 16 17 18 20 22 22 20 22 25 24 22 24 25 29 31 31 28 28 28 27 21 26 26 28 30 31 35 32
22 19 16 13 10 7 5 4 5 6 8 9 12 14 16 17 18 18 20 22 21 24 26 27 27 23 24 28 30 32 32 34 32 19 29 21 25 29 32 32 29 22 16
21 18 15 12 9 6 4 3 5 7 10 12 13 15 17 18 17 18 20 21 22 25 26 29 29 24 28 31 32 34 34 24 30 30 29 28 31 33 31 30 30 27 26
20 17 13 10 8 5 3 4 6 9 11 13 15 16 18 19 18 19 21 22 25 26 27 27 27 29 29 33 35 25 31 29 26 31 30 33 32 35 37 32 33 34 33
19 16 12 9 7 4 3 6 8 10 12 14 16 18 18 19 18 20 22 25 25 26 25 23 24 25 31 35 32 30 29 29 32 31 28 34 36 33 32 32 26 22 15
17 14 10 8 5 3 4 6 8 11 13 15 17 17 17 18 20 20 21 24 23 25 22 22 21 30 34 33 34 30 25 32 31 26 31 32 32 31 30 27 28 19 14
15 12 10 6 4 3 5 8 10 12 15 16 17 18 16 20 21 20 21 24 25 25 25 24 27 31 33 35 33 26 28 34 29 29 28 30 29 28 29 28 29 27 26
14 11 8 5 3 4 7 8 11 13 15 17 19 20 20 22 21 20 21 23 26 28 25 27 29 34 35 32 28 27 30 30 28 26 27 27 28 30 32 33 35 34 33
13 10 7 4 3 6 7 11 14 14 15 18 17 17 21 20 21 21 22 24 27 26 25 31 32 31 29 26 25 27 27 24 24 23 24 27 29 33 35 32 32 32 32
12 8 5 3 3 6 7 10 12 14 16 18 16 17 20 21 21 24 23 26 22 23 26 25 26 26 24 25 25 25 24 24 25 24 25 30 30 30 31 29 30 31 28
10 6 3 3 6 7 9 10 12 13 13 17 19 20 21 18 20 25 27 27 28 29 30 23 22 22 23 24 25 25 25 25 24 25 26 28 28 29 30 29 27 28 19
8 4 3 5 7 8 11 14 13 11 14 14 16 18 21 20 23 26 26 27 30 27 22 20 20 21 22 23 25 27 26 27 26 27 27 27 27 27 28 29 26 23 19
5 3 3 5 7 10 11 12 17 23 19 18 17 19 18 22 24 24 26 28 23 22 17 19 20 22 23 25 25 26 27 28 28 25 26 26 26 27 27 26 25 23 20
4 2 4 6 8 10 11 14 16 17 16 19 21 18 19 22 23 24 26 22 21 20 18 20 22 23 25 25 26 27 28 29 28 26 26 27 25 23 25 23 23 22 19
3 4 6 8 9 10 12 15 16 18 18 20 21 18 19 21 23 22 20 17 19 20 21 22 23 25 26 27 28 28 28 28 28 27 26 25 25 23 24 23 23 26 25
3 5 6 9 11 12 14 16 17 16 17 16 17 19 22 23 19 22 19 19 19 21 23 24 26 27 27 28 29 29 29 29 28 26 27 26 26 23 23 23 22 21 18
5 7 8 10 11 13 15 15 18 17 16 16 18 19 23 22 19 19 21 21 21 23 25 26 28 29 29 29 29 29 29 29 28 27 27 27 25 24 24 23 22 20 17
7 9 10 11 12 15 14 17 18 16 17 18 20 22 22 19 19 20 22 22 24 25 25 26 29 30 31 32 31 30 30 30 30 29 28 27 26 25 23 22 20 17 16
9 10 10 11 13 11 16 18 17 17 16 19 21 21 20 20 20 22 23 24 25 27 29 29 31 35 36 35 34 31 31 32 33 33 32 32 28 25 19 18 18 16 12
9 9 10 12 13 14 17 17 19 17 18 19 19 20 20 21 23 23 24 25 28 30 31 32 34 35 37 38 37 35 33 32 35 37 25 18 19 19 18 18 16 13 7
8 9 11 13 15 16 17 19 18 19 20 19 19 20 22 23 23 24 25 28 29 31 34 35 35 37 37 36 35 33 31 33 26 19 21 16 15 15 16 13 13 11 7
9 10 12 14 15 16 18 20 22 22 22 20 20 23 22 23 24 25 28 28 30 33 34 35 37 36 34 32 34 32 29 23 17 19 17 15 14 14 14 12 11 12 10

GFSGL_925_spd_036.txt.gz
Wind_Speed
33 32 30 27 24 21 19 16 13 11 8 6 5 4 5 7 9 11 11 11 15 16 16 17 19 20 21 22 22 25 25 23 15 38 34 35 34 34 34 32 30 30 33
33 31 29 26 22 20 17 14 11 9 7 5 4 5 7 9 11 12 13 14 16 18 19 19 21 21 21 22 24 26 26 27 24 23 35 37 35 37 36 32 26 28 31
33 31 27 24 21 18 16 13 10 7 6 4 5 7 9 11 13 13 14 15 17 18 18 18 21 23 25 24 24 25 26 23 22 28 33 35 37 33 29 30 31 32 33
31 29 26 22 19 16 14 11 8 6 4 4 6 8 11 13 14 14 15 17 17 18 18 22 23 22 22 25 23 23 22 27 28 27 29 30 23 30 32 32 29 31 33
30 26 23 20 18 15 12 10 7 5 5 5 7 9 12 14 15 15 16 17 19 19 22 23 23 21 21 23 26 27 28 27 28 26 19 28 26 28 26 31 30 34 30
28 25 22 20 16 13 11 8 5 5 5 6 9 12 14 14 16 15 17 19 20 21 24 25 26 23 23 25 27 29 30 33 24 26 25 23 28 28 32 30 27 26 15
26 23 20 18 15 12 9 6 4 5 7 9 10 12 15 16 15 16 17 19 21 23 24 27 27 25 26 29 31 30 32 25 27 31 28 29 30 33 31 31 31 27 28
24 22 18 16 13 10 7 5 4 6 8 10 12 14 16 17 15 17 19 20 22 23 26 26 25 28 28 30 33 26 30 27 25 29 30 32 31 34 35 31 33 35 33
23 20 17 14 12 9 6 5 6 7 8 12 14 16 17 18 18 19 21 22 24 26 26 22 23 26 30 33 31 28 28 27 32 29 27 30 35 31 30 31 27 24 15
21 18 15 12 10 7 5 4 5 7 10 13 15 15 16 17 19 19 20 22 22 24 21 23 21 27 32 31 32 28 24 31 30 25 31 31 29 31 28 26 27 21 19
20 18 14 11 9 6 4 4 7 9 12 13 16 18 18 19 20 19 20 22 24 24 24 23 24 29 32 33 31 26 26 31 28 29 27 28 28 27 28 27 27 27 26
19 17 13 10 7 4 4 6 8 11 13 16 18 21 20 21 21 19 20 22 25 27 25 24 28 32 32 30 26 25 28 27 26 24 26 26 27 29 31 33 35 33 33
18 15 11 8 5 5 5 8 11 12 14 16 18 18 22 21 23 22 21 23 26 27 25 29 30 30 28 25 23 25 24 23 23 23 24 26 27 32 34 31 34 33 33
17 13 10 6 4 4 6 9 12 14 15 17 17 17 22 23 20 24 23 26 24 22 26 24 26 26 22 23 23 23 23 22 24 24 24 29 29 28 29 29 29 31 29
15 11 7 4 4 6 8 10 12 13 12 18 19 20 20 18 20 24 25 26 26 28 29 24 23 21 22 22 23 24 24 24 23 25 25 27 27 27 29 28 27 28 20
13 8 5 4 5 8 11 13 11 11 14 14 15 16 19 19 22 24 24 25 27 25 22 19 20 20 21 22 24 26 26 26 25 26 26 25 25 26 26 28 25 21 20
10 6 4 5 7 9 11 12 17 21 17 14 15 17 18 21 23 23 24 26 21 21 16 18 19 21 22 24 24 25 27 28 28 25 25 27 25 26 25 24 23 22 21
8 6 5 6 7 9 10 11 13 16 17 23 24 19 19 22 22 23 25 23 21 18 17 19 21 22 24 25 26 27 29 29 28 27 26 27 26 23 23 22 22 20 20
6 5 5 6 8 8 10 13 14 16 18 20 23 20 19 21 22 22 21 17 18 20 20 21 22 24 25 26 28 28 28 29 28 28 27 25 25 22 22 22 22 25 25
4 4 5 8 9 10 12 14 16 18 18 17 17 19 22 23 19 22 20 19 19 20 21 23 25 25 26 28 30 29 29 29 28 26 27 26 25 23 22 22 21 19 19
4 6 7 8 9 12 13 13 18 16 14 16 19 20 22 22 20 19 20 21 20 22 23 25 27 28 29 29 29 29 29 29 28 27 27 27 25 24 24 22 21 21 17
6 7 7 9 11 13 13 17 17 15 16 17 20 22 21 19 19 20 21 22 23 23 25 26 30 31 32 31 31 30 30 29 30 28 28 29 27 26 25 23 21 17 16
6 7 8 10 13 12 17 17 16 16 16 18 20 20 19 19 20 22 23 24 24 27 29 29 31 35 35 34 33 31 30 32 32 33 34 34 30 27 21 18 18 16 14
7 9 10 12 14 14 17 17 19 17 17 19 18 18 19 21 23 23 24 25 28 30 30 31 33 34 36 35 34 33 31 30 34 38 30 22 18 19 20 20 18 16 9
8 9 11 13 15 16 18 19 19 20 21 19 19 19 23 24 24 25 25 28 29 30 32 33 34 35 35 33 33 29 28 29 30 20 23 21 19 17 18 16 13 12 10
9 11 12 14 16 16 17 18 20 21 22 22 22 25 24 25 25 26 28 29 29 32 32 34 35 35 32 31 29 25 30 23 23 21 20 18 18 13 14 11 9 10 10

GFSGL_925_spd_039.txt.gz
Wind_Speed
35 38 39 36 32 29 26 23 19 17 13 10 7 5 4 4 5 7 7 7 9 10 11 11 13 14 14 15 16 17 19 21 16 36 31 33 34 33 32 29 28 29 33
39 40 37 34 31 27 24 20 17 16 12 9 6 4 4 5 6 7 8 8 10 12 13 14 14 15 17 17 17 18 20 23 25 27 35 33 34 34 32 31 31 34 33
39 39 35 32 29 25 22 19 16 13 11 7 5 3 4 6 6 7 8 10 12 13 14 14 16 16 17 18 18 20 22 23 23 27 33 35 33 29 31 34 33 33 30
38 36 33 29 27 24 21 17 14 11 9 6 4 3 5 7 8 9 10 12 13 15 16 17 17 16 18 19 21 22 22 26 27 27 30 27 27 33 30 30 29 30 31
37 34 30 27 25 22 19 16 13 9 7 4 3 5 7 8 9 11 12 14 15 15 17 19 17 18 20 22 23 24 26 26 26 27 17 26 29 28 27 30 29 34 31
35 32 29 26 23 20 17 14 11 7 5 3 4 7 9 11 12 11 12 13 15 14 18 18 20 21 19 21 24 26 26 29 29 25 25 24 29 28 32 30 28 27 15
33 30 27 24 22 18 15 12 8 5 4 4 6 9 11 12 12 12 14 14 15 17 19 21 20 19 22 23 25 27 31 22 29 29 29 29 29 32 32 29 32 29 29
31 28 25 22 20 16 13 9 6 4 4 6 8 11 13 14 12 14 15 14 16 18 20 21 20 21 21 26 30 28 24 26 26 27 29 31 30 30 34 31 31 34 33
28 26 23 20 18 14 11 8 5 4 5 8 10 11 14 14 14 15 16 16 17 19 20 18 19 23 26 30 29 27 29 29 29 27 26 28 34 31 27 27 25 23 16
26 24 21 17 15 12 9 6 4 4 7 9 11 12 13 13 16 15 16 17 18 21 19 19 20 24 28 28 30 27 25 30 28 24 29 27 23 25 24 21 24 21 20
25 23 19 15 13 10 7 4 4 6 8 11 13 14 14 15 17 16 17 18 19 21 22 23 23 27 28 31 29 26 24 29 27 25 25 25 25 24 24 23 23 24 25
25 22 18 14 11 8 5 4 4 7 10 11 14 16 16 19 19 17 17 18 21 23 23 23 26 29 31 29 25 23 25 25 22 21 24 24 25 26 27 29 31 30 29
23 19 16 12 8 5 4 4 7 9 10 11 11 13 17 17 21 19 18 20 23 23 21 26 28 27 28 23 21 24 22 19 20 22 22 25 25 29 32 29 30 29 30
21 17 13 9 6 4 5 6 7 9 10 10 13 15 17 18 17 17 18 22 22 19 24 22 24 24 19 21 21 19 19 20 21 22 23 27 27 27 27 25 27 28 27
19 15 11 7 5 4 5 6 9 10 10 13 13 15 17 18 18 22 24 24 23 25 27 21 20 19 20 20 21 21 22 22 22 23 24 26 26 25 27 26 25 26 20
17 12 8 6 4 5 7 9 9 9 11 11 13 15 18 18 20 22 22 23 25 23 20 18 18 19 20 21 22 24 24 24 23 25 25 24 24 24 25 27 24 21 21
14 10 7 5 5 7 9 12 15 19 16 17 14 17 17 19 21 21 22 25 21 20 15 17 18 19 21 22 22 23 25 25 26 23 24 25 24 24 25 23 23 21 21
12 8 6 5 7 8 9 10 11 11 16 21 23 19 18 20 21 22 23 21 19 16 16 18 20 21 22 23 24 24 26 27 25 25 24 25 24 22 22 21 22 20 20
9 7 6 7 7 8 9 11 11 13 13 16 19 20 18 19 21 20 19 14 17 19 19 20 21 22 23 24 25 26 26 27 27 26 26 24 24 21 22 22 21 24 23
8 7 7 7 7 8 10 11 12 12 13 14 17 18 20 22 19 21 18 17 18 19 20 21 23 24 25 26 27 27 27 27 26 25 25 25 24 22 21 21 21 19 19
7 6 6 6 8 10 10 11 11 12 13 15 17 18 20 21 18 18 20 19 20 21 22 23 25 26 27 27 26 26 26 28 27 26 26 26 25 22 22 21 20 19 18
6 5 6 7 9 10 9 13 12 12 13 15 17 19 19 16 17 19 20 21 21 22 23 25 28 29 30 30 29 28 28 29 29 26 27 28 26 25 23 21 19 16 15
5 6 7 8 9 9 13 13 13 13 14 15 17 17 17 18 19 21 22 24 24 26 27 27 29 33 33 32 31 29 28 31 31 31 32 33 29 25 19 16 15 15 14
5 6 7 8 10 11 13 13 15 13 14 15 16 16 17 20 21 22 24 25 26 28 28 29 31 32 33 33 32 31 29 29 30 37 32 24 20 21 17 15 13 14 11
5 6 8 10 12 13 15 15 15 15 17 15 16 17 20 21 23 25 26 27 28 29 31 32 33 34 32 31 30 28 27 28 30 31 22 23 21 17 15 13 12 12 11
6 8 10 12 14 14 15 16 17 18 19 18 19 22 21 24 26 26 27 27 29 31 31 32 34 31 29 28 27 25 27 27 27 23 21 19 18 14 13 11 12 11 9

GFSGL_925_spd_042.txt.gz
Wind_Speed
26 27 30 35 36 32 23 20 18 17 15 13 10 8 5 3 1 0 2 3 5 7 8 9 11 12 14 15 17 18 20 22 18 29 30 30 31 30 31 29 29 32 36
27 30 35 36 31 25 22 20 18 17 14 12 9 6 4 2 0 2 3 5 7 9 10 11 12 13 16 16 17 19 21 23 27 27 32 31 31 32 30 29 31 36 34
31 36 33 29 26 24 21 19 17 15 13 10 8 5 3 1 1 3 5 7 9 10 11 13 14 15 17 17 19 21 23 25 26 28 32 32 32 30 29 32 31 31 30
33 32 30 26 24 23 21 18 16 13 12 9 6 4 2 1 3 4 7 9 11 12 13 14 16 16 17 19 21 23 25 26 28 28 28 31 28 29 32 29 27 30 30
32 29 27 25 23 21 19 17 14 12 10 7 5 2 1 3 3 7 9 11 13 14 15 16 17 17 20 21 22 24 26 27 25 26 26 24 28 29 27 29 29 31 33
29 28 26 24 22 20 18 15 13 10 8 6 3 1 3 3 7 7 9 12 14 15 17 18 18 19 19 20 23 24 26 28 27 25 26 25 30 30 30 29 31 25 16
27 25 24 23 21 18 16 13 11 9 6 4 2 2 4 5 8 8 11 13 15 16 17 19 20 19 20 22 23 26 27 28 26 32 29 30 30 31 32 33 29 31 28
25 24 22 21 19 16 14 11 9 7 5 3 1 3 5 6 9 10 13 14 15 16 18 20 20 21 22 23 29 27 25 28 27 27 29 31 32 32 31 34 32 35 34
23 22 20 19 17 14 12 10 7 5 3 1 2 4 6 7 10 11 13 15 15 17 18 20 20 22 22 26 28 27 30 30 27 25 28 31 31 34 29 27 26 23 18
21 21 18 16 15 13 11 8 5 4 2 2 4 5 7 8 10 12 13 15 17 18 20 21 21 21 25 27 29 30 29 29 28 31 29 27 25 24 23 22 22 21 21
22 22 19 15 15 12 9 6 4 2 3 4 5 7 7 8 10 12 14 15 17 21 22 23 22 24 27 30 29 29 26 29 29 28 26 24 23 22 22 22 22 23 25
25 22 19 15 12 9 8 5 4 3 3 5 8 9 8 10 11 13 14 14 18 21 23 24 25 28 30 30 27 22 25 26 22 22 23 24 24 24 25 26 29 29 28
25 20 15 12 10 8 6 4 1 3 4 6 9 11 13 13 14 14 16 18 20 22 21 25 28 27 27 23 20 23 20 18 20 21 22 24 25 28 30 28 28 27 29
19 16 13 10 8 6 4 2 2 4 5 7 10 12 14 15 15 16 20 22 21 20 23 25 25 23 21 21 20 18 18 19 20 21 22 25 27 26 26 25 25 26 26
16 13 11 8 6 4 2 2 3 4 4 9 10 13 15 16 16 19 22 23 23 24 27 23 20 19 19 19 19 19 20 21 21 21 23 25 25 25 26 25 24 24 21
15 11 8 6 4 3 3 3 5 3 6 6 9 10 14 15 17 20 20 22 23 23 21 17 17 18 19 20 21 22 22 23 22 24 24 24 24 24 25 26 24 21 20
13 10 7 5 4 3 3 4 7 7 8 8 9 13 13 16 18 18 20 22 21 17 13 15 17 18 18 19 21 22 24 25 26 23 24 24 24 24 25 23 23 21 21
11 10 6 4 2 1 3 5 7 9 13 15 13 14 14 17 18 19 19 19 14 13 13 16 17 18 19 21 22 24 26 26 25 24 24 25 24 22 23 22 22 21 21
9 6 4 3 2 2 4 5 7 10 11 13 15 15 16 18 21 18 16 13 16 16 16 17 17 19 20 22 24 25 25 26 26 26 25 24 24 22 22 22 22 25 25
7 6 4 3 2 4 5 6 9 10 12 13 15 15 17 21 20 19 16 16 16 17 17 18 19 20 22 24 25 25 26 26 25 24 24 24 24 22 22 22 22 21 20
5 4 4 3 4 5 5 7 9 10 12 13 15 15 18 19 17 17 18 17 17 17 18 19 21 23 24 25 25 25 25 26 26 25 25 25 25 25 24 22 22 21 21
4 4 4 4 4 5 6 8 9 10 12 14 16 16 17 15 16 17 18 18 18 17 18 19 24 25 27 27 26 26 26 27 28 26 26 27 27 26 24 22 21 18 17
4 4 3 3 4 6 7 8 9 10 12 13 15 16 16 16 17 18 18 19 18 19 19 20 23 29 30 29 28 27 27 30 30 30 31 30 30 28 23 17 17 15 15
4 3 3 4 5 7 7 9 10 10 12 13 14 15 16 17 18 18 18 18 19 20 22 24 27 29 30 30 31 30 30 30 32 38 36 28 22 21 17 15 14 16 15
3 3 5 5 7 8 9 9 10 11 12 13 14 15 17 17 17 18 18 19 21 24 28 29 30 29 30 30 29 27 30 32 36 30 22 22 20 18 17 13 13 14 14
4 5 5 6 7 8 9 10 11 12 13 14 15 16 16 16 17 18 19 22 24 29 30 31 30 29 29 28 26 28 31 33 26 24 20 16 17 15 14 12 14 14 15

GFSGL_925_spd_045.txt.gz
Wind_Speed
26 26 26 25 27 31 33 29 27 23 20 16 14 12 9 7 5 3 1 1 4 7 8 10 11 12 14 15 16 17 18 19 16 24 25 23 27 30 29 31 29 32 35
26 27 27 30 32 33 30 27 23 21 17 14 12 10 8 6 3 1 1 3 6 9 10 11 13 13 15 16 17 18 20 21 24 25 25 27 27 26 31 29 29 27 39
28 29 31 30 32 30 29 25 22 19 16 13 11 9 7 4 2 1 3 6 8 10 11 12 14 15 17 17 18 20 21 22 24 26 29 27 29 28 30 24 33 30 27
30 31 31 30 31 29 26 23 20 17 15 12 9 7 5 2 0 2 5 8 10 11 13 14 15 16 18 18 20 21 22 24 25 25 28 30 28 24 27 29 24 27 30
31 31 30 30 29 26 24 21 19 16 13 11 9 6 3 1 1 4 6 9 12 14 15 16 16 17 18 20 21 21 24 24 24 26 26 26 24 27 24 25 27 28 34
31 31 30 28 26 24 23 20 17 14 12 9 7 4 2 1 5 6 7 10 13 15 16 17 18 19 19 19 22 23 25 27 27 26 26 24 28 27 27 26 30 28 11
32 30 28 25 25 22 21 18 15 12 10 7 5 2 1 2 7 7 9 11 14 15 16 18 19 19 20 21 22 25 25 30 30 33 30 26 28 28 31 32 30 28 28
29 27 24 24 23 20 18 15 12 10 8 5 3 0 2 4 10 9 11 12 14 15 16 18 19 20 20 23 24 26 26 28 27 28 28 27 29 33 32 28 30 33 33
25 23 22 22 22 18 16 13 10 8 6 3 0 2 4 5 9 10 11 13 15 16 17 18 20 21 22 23 26 27 27 28 28 27 27 32 33 33 29 27 26 23 16
22 22 20 20 19 17 14 11 8 6 3 0 3 4 6 7 7 9 12 13 16 17 18 20 21 21 22 25 28 27 28 28 28 30 30 29 26 26 25 24 25 21 22
23 22 20 19 19 15 12 9 7 4 1 2 4 6 6 7 9 10 12 14 15 18 20 20 20 23 26 29 29 28 27 28 28 27 26 24 25 25 25 25 26 25 25
25 24 21 19 14 11 10 7 4 2 2 4 5 7 7 8 9 11 13 14 17 20 21 22 23 26 30 28 27 23 24 26 22 21 23 24 25 26 27 29 32 32 32
26 23 18 15 12 9 7 5 2 2 4 5 7 8 10 11 12 12 14 17 19 22 22 24 28 29 26 23 21 23 20 18 19 21 22 24 25 28 32 31 31 29 31
22 17 14 12 9 7 5 3 1 2 4 5 8 10 12 13 13 13 17 20 21 22 23 25 26 24 20 20 19 19 18 19 20 22 24 27 28 28 28 26 27 28 28
17 15 12 9 7 5 3 1 1 2 3 6 7 10 12 14 15 18 20 22 23 23 28 23 21 17 18 18 18 19 20 21 22 23 23 26 26 26 27 26 26 26 23
15 12 9 7 4 3 1 2 4 5 8 8 7 8 12 13 15 18 20 21 23 24 20 17 16 17 17 18 20 22 23 23 23 24 26 25 25 25 26 27 25 23 23
13 11 8 5 3 2 3 4 6 7 10 9 6 9 12 14 16 18 20 21 21 16 14 15 16 17 18 19 20 22 25 26 26 24 24 26 26 25 26 26 25 23 22
12 9 7 4 3 3 3 5 6 8 10 10 9 11 12 16 18 20 17 18 14 14 14 15 17 18 19 21 22 24 26 27 26 25 26 26 26 24 25 25 24 22 23
9 7 5 4 3 3 4 5 7 9 10 12 13 13 13 16 19 16 14 12 14 15 16 17 18 20 21 23 24 25 26 27 27 27 27 26 26 24 25 25 25 28 27
8 7 5 3 2 4 5 6 8 9 10 12 13 14 15 19 18 16 15 15 16 17 18 19 20 21 23 25 26 26 27 27 27 26 27 27 27 25 26 26 25 24 24
6 4 3 3 3 4 5 7 8 9 11 12 13 14 16 17 15 15 16 17 17 19 20 21 22 24 25 26 26 26 27 28 28 27 28 28 28 27 28 26 25 25 25
4 3 2 2 4 5 6 7 8 9 11 13 14 15 15 14 15 16 17 18 19 20 21 23 26 27 28 28 28 28 28 30 31 29 29 29 29 28 27 26 25 23 18
3 2 2 3 4 6 7 8 9 10 11 13 14 14 15 15 16 16 18 19 21 23 25 26 27 29 30 30 30 30 30 33 33 33 33 33 31 31 27 21 20 18 19
2 2 3 4 5 7 8 9 10 11 12 13 13 13 14 16 17 17 19 21 24 26 27 28 29 29 29 31 31 30 31 32 34 38 33 27 23 23 22 19 17 19 18
2 3 4 6 7 8 10 10 11 11 12 12 13 14 16 17 18 19 20 22 25 27 30 30 29 29 30 29 27 27 29 34 34 26 24 22 20 22 20 18 17 17 18
3 5 5 6 8 9 10 11 12 13 13 14 14 15 17 18 19 20 22 24 26 30 30 30 29 27 28 27 25 26 28 31 26 24 20 20 19 20 20 19 18 16 17

GFSGL_925_spd_048.txt.gz
Wind_Speed
28 31 35 33 33 33 31 33 33 32 29 25 22 18 15 13 10 8 5 3 1 3 5 7 9 10 13 13 14 17 19 21 14 24 26 27 28 30 33 30 33 33 33
34 35 34 34 33 32 33 34 31 30 25 23 21 17 14 11 9 6 4 1 3 5 7 9 11 12 13 15 16 17 18 20 24 23 24 24 26 29 32 34 31 30 34
34 34 33 31 31 31 34 32 32 28 25 20 18 15 12 9 7 4 2 2 5 7 9 11 13 15 16 16 17 16 18 22 24 23 25 25 28 28 30 28 31 33 30
33 32 30 30 32 33 32 30 31 27 24 19 17 13 10 7 4 2 1 4 7 9 11 13 14 15 17 16 18 22 19 22 23 23 23 26 25 24 28 27 29 25 31
31 29 28 31 33 33 31 29 27 25 22 17 14 11 7 5 3 2 4 6 8 11 13 14 14 14 16 18 19 19 23 24 23 19 22 26 25 25 23 24 26 30 35
29 29 31 32 33 32 32 30 26 23 20 16 12 8 5 3 2 4 5 8 10 12 15 16 17 16 17 17 19 21 22 25 23 25 25 22 24 24 24 24 29 27 12
28 29 30 31 31 30 30 28 23 20 17 13 9 6 3 2 3 6 6 10 13 13 16 18 18 17 19 21 21 22 23 23 27 31 29 27 29 29 29 28 30 27 27
26 28 29 29 28 28 27 25 21 17 14 10 6 3 2 2 6 7 9 11 12 14 16 18 19 19 21 22 25 23 24 28 27 27 29 30 28 33 32 28 28 29 32
26 27 27 26 24 25 24 21 18 15 11 7 4 1 1 2 6 9 9 13 14 16 16 17 20 21 21 22 24 28 26 25 23 28 29 29 30 31 28 28 24 23 20
25 26 24 24 24 24 21 18 14 11 8 4 3 3 3 7 4 7 9 13 16 16 18 21 19 20 22 24 27 26 23 25 31 29 27 32 26 27 26 24 25 21 22
29 29 24 22 23 20 18 14 11 8 6 4 4 4 5 5 7 8 11 13 16 19 20 22 22 22 24 27 28 27 26 28 26 25 28 26 27 27 26 26 25 24 26
29 29 27 22 19 17 15 11 9 6 5 4 3 5 5 6 9 11 12 13 17 21 22 22 25 25 28 27 25 23 24 24 25 24 23 25 25 27 28 30 34 33 33
29 26 22 20 17 13 12 9 7 5 4 4 6 7 9 11 11 11 12 16 19 21 22 23 26 26 26 22 21 22 21 23 22 21 21 24 26 30 33 30 33 31 33
25 23 20 18 14 11 10 8 5 4 4 6 8 9 12 12 13 15 19 20 21 23 24 23 24 24 18 19 21 21 22 21 21 22 24 28 29 29 29 28 27 29 28
23 20 18 13 11 10 7 5 4 4 6 7 7 9 11 14 16 17 20 21 23 22 26 24 23 20 21 19 19 20 22 22 22 24 26 27 29 28 29 28 27 27 22
21 16 13 12 10 8 6 5 5 6 8 8 7 8 12 12 14 17 19 21 22 22 19 18 17 18 18 20 21 23 23 24 24 25 27 27 26 26 27 28 26 24 23
18 15 12 10 8 7 6 6 7 7 7 8 8 9 12 13 16 18 20 19 19 17 18 20 19 18 20 21 22 23 25 28 28 26 26 27 27 26 27 26 26 24 24
16 12 10 7 6 5 5 5 7 9 11 12 10 11 12 14 18 19 17 17 17 16 18 20 20 20 21 23 24 25 28 29 28 28 28 27 27 25 25 25 25 24 24
13 10 8 6 5 5 6 7 8 9 10 12 14 14 13 15 17 16 15 16 18 20 20 20 20 22 24 25 26 27 27 28 29 28 29 27 28 26 26 26 26 29 29
11 9 6 5 5 6 7 8 8 10 11 12 14 15 17 19 22 21 20 19 19 20 20 21 23 24 25 27 28 29 29 29 29 28 29 29 29 26 26 26 25 24 24
8 7 5 4 5 6 6 7 9 9 11 13 14 16 16 17 18 19 20 20 20 22 24 24 26 27 28 29 28 29 29 30 30 30 30 30 29 27 27 26 26 25 25
6 5 4 5 5 6 8 9 9 11 12 14 16 17 15 16 17 18 21 22 23 22 23 25 28 29 29 30 30 30 30 31 33 32 31 31 30 29 28 26 25 24 19
6 5 4 4 6 7 8 8 11 12 14 15 16 15 15 16 19 20 21 23 23 25 26 27 29 31 30 29 30 29 30 34 34 35 36 34 30 28 25 21 20 20 20
4 4 4 6 7 8 9 11 12 12 12 14 15 14 16 18 20 22 22 23 24 26 27 29 30 29 29 29 29 27 30 31 35 37 28 25 26 25 24 23 20 21 20
3 4 6 7 8 9 11 12 12 13 14 14 14 15 19 20 22 22 22 23 25 28 30 30 29 28 28 27 24 25 28 31 34 28 27 24 24 23 24 22 22 21 21
4 5 6 6 8 10 11 13 14 15 16 16 17 18 19 21 22 22 23 25 27 30 30 29 28 26 26 24 23 26 29 32 26 26 25 22 22 23 21 22 22 20 20

GFSGL_925_spd_051.txt.gz
Wind_Speed
29 30 34 32 30 31 32 32 31 31 33 30 28 25 22 18 13 11 8 5 4 3 3 5 6 7 9 9 9 12 15 16 11 18 20 23 26 29 31 33 32 32 31
31 33 32 31 31 33 32 31 34 33 31 30 28 24 19 16 14 10 7 5 2 3 4 6 8 9 11 12 13 14 15 15 18 20 21 23 26 28 30 32 30 28 30
34 34 31 31 31 31 31 32 33 32 30 27 25 22 18 13 11 10 6 3 3 3 5 8 10 11 13 14 13 14 16 20 21 25 25 24 26 29 30 28 28 30 30
33 31 31 31 28 31 31 31 35 33 30 28 23 20 14 10 8 6 4 2 2 4 6 8 10 12 12 12 15 17 17 18 21 24 21 22 22 27 26 26 28 26 31
30 30 28 29 29 30 30 31 34 34 29 26 22 16 13 9 8 4 1 1 4 7 8 10 10 12 13 14 16 16 20 22 23 21 16 19 24 24 22 25 26 31 35
28 30 29 30 29 29 30 32 34 29 24 21 17 14 13 9 5 2 2 4 7 9 11 12 13 13 16 14 17 18 18 22 21 18 19 21 23 23 25 25 27 27 13
26 27 27 28 27 29 31 31 30 26 22 18 14 12 8 6 4 3 4 7 8 10 11 14 16 15 14 17 19 19 21 18 21 25 25 23 24 27 30 29 26 23 25
24 26 27 30 29 27 28 28 26 22 19 17 12 9 6 4 2 4 5 8 10 10 11 13 16 19 18 18 21 21 22 23 25 24 25 28 29 28 27 26 27 26 30
26 27 27 26 26 27 26 23 21 20 15 12 10 7 4 3 3 4 7 10 12 14 12 14 17 19 19 20 23 25 25 23 23 24 24 24 25 29 25 25 23 21 20
25 24 26 27 27 27 22 20 15 15 13 9 7 5 4 4 3 4 6 9 14 16 17 17 18 18 20 21 24 23 20 25 28 26 24 31 29 28 23 23 25 20 22
24 28 25 24 23 20 18 16 14 12 10 8 8 6 5 3 3 6 9 11 12 16 19 22 22 21 21 24 23 24 22 25 21 24 28 26 27 27 26 27 24 24 25
27 25 25 22 19 20 18 14 12 10 9 8 6 6 5 4 6 8 9 11 15 18 20 22 23 21 24 24 21 19 21 21 25 23 22 23 24 26 29 30 32 30 30
23 23 23 19 17 15 14 12 11 8 8 6 5 4 5 8 8 10 12 14 16 18 19 21 21 22 21 18 19 20 18 22 22 20 21 24 26 30 34 30 34 31 31
24 20 20 19 16 13 11 9 8 7 5 4 5 6 8 10 12 14 17 19 21 21 21 17 18 18 17 17 19 20 21 20 20 21 23 27 28 27 28 28 27 28 27
25 21 17 15 13 12 10 8 7 7 7 7 6 6 9 13 14 14 17 19 20 18 20 18 21 20 20 18 18 19 21 22 21 23 23 25 26 26 27 28 26 26 22
22 18 16 14 12 9 9 8 7 6 5 6 5 6 9 10 12 15 17 17 16 16 16 16 16 16 16 18 20 23 22 22 22 24 25 25 25 26 27 27 25 23 23
21 17 14 12 11 9 9 8 7 6 6 7 8 8 9 10 13 15 16 15 15 14 16 17 16 17 18 20 21 22 24 27 28 25 25 27 27 26 26 26 24 24 24
17 15 13 12 10 10 9 8 7 9 11 11 9 10 10 12 13 16 14 15 18 17 18 19 19 19 20 22 23 23 26 27 26 27 27 27 27 25 25 24 24 23 23
16 14 12 11 10 9 8 8 8 8 9 10 13 13 13 13 13 14 13 16 18 20 20 20 21 22 23 24 25 26 26 26 27 28 29 27 27 25 25 25 25 28 28
14 12 11 10 9 8 8 8 8 8 9 12 13 14 16 16 19 20 19 19 19 20 21 22 24 24 25 26 27 28 28 29 30 29 29 29 28 26 25 25 25 24 24
13 11 9 8 8 8 7 8 8 10 11 12 13 15 14 13 16 17 19 19 20 21 22 24 26 26 27 27 27 28 27 30 31 31 30 30 29 27 28 26 26 25 25
11 10 8 8 7 7 7 7 9 10 11 12 15 16 13 14 16 18 20 20 21 21 21 24 26 26 27 27 29 30 30 31 33 32 32 31 31 30 29 26 25 23 22
9 8 7 6 6 6 8 8 10 10 12 13 15 16 15 17 19 20 20 20 21 22 24 25 25 27 27 27 27 27 28 32 33 35 36 34 27 24 25 24 24 23 22
7 6 6 5 5 7 7 8 9 10 11 14 15 14 15 18 19 20 20 20 21 24 26 26 26 26 26 27 26 24 27 30 34 36 26 24 24 25 24 24 23 24 23
5 5 4 4 6 6 7 8 10 12 13 14 14 15 18 18 19 20 19 20 23 26 29 27 26 25 25 25 22 23 26 30 34 25 24 27 25 25 24 22 24 24 23
4 3 3 4 5 6 7 10 13 14 14 14 16 16 17 18 20 19 19 21 24 28 28 27 26 25 24 23 22 22 26 30 29 24 24 24 23 25 23 23 25 24 22

GFSGL_925_spd_054.txt.gz
Wind_Speed
20 24 26 31 33 33 34 33 33 34 33 32 32 29 26 23 19 16 12 9 7 5 4 4 4 6 6 7 7 8 11 13 9 14 18 25 27 28 30 31 31 30 31
24 25 26 29 30 31 31 31 32 32 32 34 32 29 26 21 18 17 15 9 3 3 3 5 6 7 8 8 10 12 13 15 18 16 20 24 25 28 29 29 30 30 30
23 27 28 29 29 29 30 32 31 31 32 32 31 28 25 21 17 13 11 6 4 1 5 9 8 8 9 10 11 13 15 17 19 23 21 25 27 27 29 28 27 28 29
23 25 27 26 27 31 30 30 31 32 33 31 29 25 22 22 18 15 9 3 2 4 7 10 9 9 9 10 12 14 15 16 19 23 22 23 24 26 25 25 25 26 29
17 23 24 26 28 27 30 28 30 30 30 28 27 24 20 15 13 11 7 3 5 6 7 7 7 7 9 11 14 14 17 20 22 24 19 20 19 21 23 24 25 28 29
17 18 23 26 27 27 29 29 32 32 29 25 21 17 13 9 10 8 6 4 2 4 6 7 8 9 9 10 12 15 18 21 21 18 18 15 21 22 24 24 26 25 10
22 22 23 27 29 30 32 33 31 27 23 21 19 17 14 9 6 5 3 2 1 4 6 8 8 10 13 15 14 15 17 18 20 23 23 22 24 28 31 29 23 20 25
22 24 25 32 31 33 33 31 27 25 20 18 16 12 9 9 7 4 2 2 4 6 7 7 10 14 15 16 18 20 21 21 21 22 26 29 29 26 24 24 27 27 28
19 21 28 35 33 30 26 26 22 21 17 12 8 9 10 8 4 1 3 6 8 9 9 11 13 15 16 17 20 22 20 20 23 23 22 23 24 26 27 25 23 21 20
23 27 30 30 29 26 25 23 20 14 12 9 6 7 7 4 3 2 5 8 9 11 13 16 16 16 17 17 21 21 19 25 25 21 22 30 29 27 21 20 23 20 21
27 30 27 25 26 23 21 18 16 13 10 10 8 7 7 4 1 4 6 7 11 15 18 19 19 17 18 20 21 21 20 22 20 24 28 27 28 26 25 26 25 24 24
28 27 26 24 21 19 17 15 12 12 12 9 8 7 5 2 4 6 8 10 11 14 17 19 20 18 21 20 18 17 19 19 21 22 20 22 22 26 30 29 30 28 28
26 24 21 19 15 15 15 13 12 9 8 6 4 3 3 6 7 7 9 11 13 15 17 17 17 18 17 17 16 16 15 18 20 20 20 23 25 29 32 29 29 31 31
20 19 17 16 15 12 11 10 9 8 6 4 3 5 6 8 9 10 13 16 18 15 17 16 16 16 14 14 16 17 18 18 18 20 23 25 27 26 27 27 26 26 26
19 19 17 16 15 14 12 9 8 7 6 5 4 4 6 9 10 11 14 17 16 16 16 19 19 20 20 19 19 21 22 21 20 22 21 23 24 24 26 27 25 26 22
20 17 15 14 12 11 9 9 7 5 4 4 4 5 7 6 9 11 14 14 13 14 13 15 17 17 17 18 19 23 23 22 23 23 23 23 24 25 27 28 25 23 23
19 16 13 11 10 8 7 5 4 2 3 4 5 6 6 8 9 12 13 12 12 12 14 16 16 16 18 20 21 23 25 28 28 24 26 28 27 25 25 26 25 23 24
14 12 11 10 9 7 6 5 4 4 4 6 7 8 9 9 9 11 11 12 16 15 15 16 17 19 20 20 22 23 26 27 25 27 28 26 27 25 25 24 24 23 23
14 13 11 10 8 6 5 5 4 4 5 7 9 10 10 9 9 10 11 12 14 17 17 18 19 20 21 22 24 25 26 27 25 28 30 28 29 25 26 25 26 28 28
14 13 11 10 8 6 5 4 4 6 6 7 9 12 13 11 15 16 16 15 15 17 18 19 21 22 23 24 25 27 28 28 29 29 30 30 29 27 26 27 26 25 25
15 12 10 8 6 5 4 5 5 6 6 7 9 11 10 9 12 15 17 16 16 17 19 20 23 23 23 24 26 27 28 30 30 31 31 31 30 28 29 27 27 27 25
13 11 8 6 5 4 4 4 4 5 6 9 11 11 9 10 13 15 16 16 16 17 18 21 23 23 23 24 25 27 28 30 33 32 32 31 32 30 27 23 25 25 25
10 9 7 5 4 3 2 3 5 6 7 9 10 11 12 13 15 15 16 16 17 19 21 22 22 23 23 23 24 24 26 30 32 34 36 35 29 28 26 23 23 25 25
8 7 5 4 2 1 2 4 5 6 7 9 10 11 13 14 15 16 16 16 18 21 23 23 23 22 23 24 23 22 23 26 31 36 33 27 26 29 25 24 23 24 26
7 5 4 2 1 2 3 4 5 7 8 9 11 13 15 14 15 17 16 16 19 22 25 24 23 23 24 23 21 21 20 26 29 27 29 29 26 27 25 25 24 25 24
5 4 2 1 2 3 3 5 7 9 9 10 12 13 14 15 17 17 16 17 20 24 26 25 25 24 23 20 21 20 21 25 29 24 29 27 25 25 25 24 26 22 23

GFSGL_925_spd_057.txt.gz
Wind_Speed
20 19 19 21 26 27 29 30 30 29 31 32 32 31 30 29 25 23 20 18 15 13 9 6 4 3 6 6 6 7 9 12 11 14 19 23 24 27 27 28 29 31 30
13 13 15 18 20 22 23 25 27 26 26 29 29 29 28 26 24 23 20 15 14 10 6 6 3 4 7 7 9 10 13 15 18 16 21 24 25 25 27 29 31 31 31
6 7 11 14 18 19 21 22 23 25 26 27 27 28 26 23 20 17 14 11 10 8 9 6 3 6 8 9 10 12 14 15 18 21 19 22 26 25 28 30 30 28 28
1 7 10 12 15 19 22 23 24 27 28 28 26 26 25 23 19 16 13 9 5 2 4 2 5 7 8 9 10 13 15 16 17 22 23 23 24 26 26 25 24 25 28
12 14 15 16 18 22 22 26 28 29 31 30 32 29 24 21 18 14 7 4 0 3 4 1 3 5 6 8 12 15 15 17 21 24 21 21 22 21 20 25 24 25 25
23 21 21 22 24 26 29 29 32 34 33 32 29 26 20 14 9 8 6 3 4 3 3 4 7 8 9 10 12 14 16 19 20 20 21 16 19 22 24 23 24 22 8
26 25 23 23 26 26 29 31 32 33 31 27 23 18 18 15 10 8 5 3 0 3 7 9 8 9 11 13 13 13 15 17 19 22 23 23 25 27 30 29 25 22 22
24 24 25 25 25 28 32 33 30 28 25 24 19 15 11 9 8 6 3 2 4 7 7 7 10 12 14 15 16 18 19 20 21 22 25 29 28 27 24 25 26 29 26
24 27 26 25 27 29 32 30 27 25 21 20 15 10 11 11 7 4 4 6 6 6 5 8 12 15 16 15 18 19 19 19 22 22 20 21 23 27 27 26 25 20 20
17 20 24 28 29 28 30 27 23 19 18 17 11 9 8 6 4 4 4 5 4 6 9 13 13 13 14 16 17 19 19 24 22 20 23 29 28 26 23 19 22 21 20
23 27 28 27 26 26 25 20 18 17 16 13 11 10 9 7 4 4 2 6 7 10 14 16 16 15 16 18 18 18 18 20 19 23 26 26 27 27 27 26 24 23 23
25 26 24 22 21 21 20 17 15 15 15 13 12 10 7 3 2 3 4 6 9 12 15 17 16 15 17 16 16 16 16 17 20 22 22 24 24 29 31 30 29 28 28
23 21 19 19 18 15 15 14 13 11 10 9 7 6 4 3 4 5 8 9 11 13 13 12 14 15 15 15 14 14 14 17 19 21 21 23 26 29 31 31 31 30 31
20 18 17 17 15 13 12 11 12 10 9 7 6 5 5 7 6 7 10 13 13 11 13 15 15 13 12 12 13 14 16 16 16 19 23 26 26 27 28 28 28 28 27
17 17 16 15 14 14 13 11 10 10 8 7 5 4 4 6 7 9 11 13 13 14 13 17 18 18 18 18 18 19 19 20 20 21 20 22 24 25 27 29 28 27 22
18 15 14 13 12 11 11 12 10 9 7 5 5 6 5 4 7 9 11 11 12 12 13 15 17 17 18 19 20 22 23 22 23 24 23 23 25 26 27 27 24 23 23
16 14 12 11 10 9 8 7 6 5 5 6 6 5 5 6 7 9 10 11 10 10 12 14 15 17 19 21 21 22 23 26 25 24 25 28 29 26 25 26 25 23 24
13 11 10 9 8 7 6 6 4 4 3 4 4 6 6 7 6 8 10 12 13 12 12 13 15 17 19 20 22 23 26 28 27 26 28 27 28 26 26 25 24 24 24
12 11 9 8 7 5 5 4 3 3 3 4 6 7 7 6 7 9 9 11 12 14 15 15 16 18 20 21 22 24 25 27 24 27 29 29 29 25 26 25 26 28 28
10 9 8 6 5 4 3 2 2 2 3 5 7 10 11 8 12 12 12 12 12 14 15 17 19 20 20 21 22 24 26 28 29 29 30 29 29 27 27 27 26 25 26
11 9 7 6 4 3 2 1 1 3 4 5 7 8 8 10 11 12 13 13 13 15 17 19 21 21 21 22 22 24 26 28 29 31 31 30 29 28 30 29 27 26 27
11 9 7 5 4 3 2 0 2 3 5 6 8 8 7 8 10 12 13 14 14 15 17 20 21 21 20 20 22 25 26 28 30 32 31 32 31 31 29 24 26 26 26
11 9 7 6 4 3 2 2 3 4 5 7 8 9 9 11 12 13 13 14 15 17 18 20 21 22 21 21 21 23 25 28 30 30 34 36 31 28 27 25 26 27 25
10 9 7 6 4 3 2 3 3 4 6 7 8 9 11 12 13 14 14 14 15 17 20 22 22 22 22 22 21 22 23 25 27 32 35 30 30 30 27 26 26 27 24
10 9 7 6 5 4 4 4 5 6 7 8 9 10 12 13 13 15 14 14 16 19 22 24 23 23 22 22 20 22 22 20 26 30 32 29 28 32 28 26 27 25 25
10 8 7 6 5 5 5 5 7 7 8 9 10 11 13 13 15 16 15 15 17 20 23 25 25 23 22 21 21 21 21 21 25 33 27 29 29 29 28 28 27 25 25

GFSGL_925_spd_060.txt.gz
Wind_Speed
16 16 16 16 16 19 23 24 23 22 23 23 25 26 26 27 27 26 24 22 20 17 13 10 8 5 1 3 4 5 9 9 7 8 14 20 23 24 26 25 26 28 31
14 14 14 12 11 12 15 14 15 17 19 22 24 25 27 28 26 25 24 20 17 15 11 8 7 3 1 4 8 9 10 11 12 11 17 21 22 24 25 26 28 29 32
12 10 9 6 2 4 6 8 13 17 19 21 25 27 27 26 27 24 22 20 15 12 9 7 4 0 4 6 9 10 10 12 14 15 16 20 23 23 26 28 29 30 29
9 8 8 5 6 9 12 15 17 21 26 26 27 28 28 28 27 25 21 17 14 10 7 3 2 3 7 4 9 10 10 12 15 16 20 22 22 24 23 24 23 25 29
12 15 12 13 14 17 20 20 21 22 26 29 33 32 28 24 21 21 18 12 10 6 3 2 1 2 2 2 6 9 11 12 16 20 19 19 21 20 18 23 24 26 25
17 17 18 20 22 22 23 24 25 26 28 31 32 32 29 25 17 14 13 10 8 6 3 1 1 2 5 6 8 9 11 14 16 18 20 17 17 22 23 23 23 22 11
16 16 18 21 24 25 24 25 25 28 34 32 29 27 25 20 14 12 10 10 7 4 3 2 2 4 7 11 12 11 12 14 15 19 21 23 23 26 30 29 24 21 23
14 13 17 21 25 26 27 28 29 29 30 28 25 21 20 17 14 13 11 9 8 5 4 4 7 11 13 13 14 16 16 16 18 18 21 25 24 23 22 23 25 28 26
12 13 12 20 24 27 27 26 25 26 26 23 22 18 16 14 11 8 7 5 4 3 4 8 11 12 13 12 15 15 17 19 21 19 17 19 21 24 24 24 25 19 19
12 14 16 20 25 26 25 24 22 21 22 20 17 14 12 12 7 6 3 2 4 5 8 10 10 11 12 13 15 17 17 23 20 21 22 26 24 24 20 18 20 20 18
15 17 19 22 25 24 23 20 19 18 18 17 15 13 13 11 11 8 6 5 7 8 9 11 13 12 13 15 15 16 17 18 17 21 23 24 23 23 24 23 22 20 19
19 21 22 22 20 19 19 17 16 16 16 16 14 12 10 7 6 6 6 6 7 10 10 11 12 14 15 14 13 13 13 14 17 19 21 23 23 26 27 27 26 25 25
21 20 18 17 16 14 15 14 14 11 11 10 9 8 8 6 5 5 6 7 8 9 10 9 13 13 12 12 11 11 11 14 16 18 20 23 25 26 27 30 30 29 30
18 18 16 16 15 13 13 11 11 9 9 8 7 7 5 5 5 6 8 10 10 12 12 11 12 10 9 10 11 12 13 14 14 18 21 24 25 27 29 28 30 30 27
18 16 15 14 14 14 14 11 11 10 7 7 7 5 4 4 6 7 10 11 11 11 9 13 13 13 14 15 16 17 17 18 19 20 22 22 26 27 29 30 28 27 19
17 15 14 14 13 13 14 15 11 10 8 7 6 6 4 4 6 7 9 9 9 10 9 11 13 14 15 17 18 20 20 20 21 22 22 23 25 27 29 30 24 22 22
14 13 11 10 9 8 7 6 6 6 6 6 6 5 5 6 5 8 8 9 8 8 10 12 13 15 17 18 19 19 21 23 23 22 23 26 27 27 24 27 26 23 24
11 10 9 8 7 7 6 5 4 3 3 4 4 6 6 6 6 8 9 9 11 10 11 13 15 16 18 20 21 21 23 25 25 22 25 26 26 25 26 25 24 24 24
11 10 9 9 7 7 6 4 4 3 3 4 6 5 6 4 6 8 8 10 10 11 12 14 16 18 20 20 21 22 23 24 21 23 25 27 28 26 26 25 26 28 28
12 10 9 8 6 5 3 3 2 2 3 5 7 8 9 6 10 11 11 10 9 11 13 15 18 20 20 20 21 22 23 26 26 25 27 28 29 28 26 28 27 26 26
12 10 8 6 4 3 2 1 1 3 4 5 7 8 8 9 11 11 12 11 11 12 14 16 19 21 21 21 22 23 24 26 26 27 28 30 30 29 30 29 29 27 25
11 9 7 5 3 2 1 0 2 3 5 6 8 8 8 9 10 12 12 12 12 12 13 16 20 21 21 21 21 23 24 26 27 28 29 30 31 32 32 26 28 26 26
10 9 7 5 3 3 2 2 3 4 6 7 8 9 9 10 12 12 13 14 13 13 14 17 20 22 21 21 21 21 24 26 26 27 30 34 34 30 26 29 28 27 26
10 8 7 5 4 4 3 4 5 6 8 9 9 10 11 12 14 14 15 15 15 15 16 18 20 22 23 22 22 21 23 26 25 26 31 34 29 29 28 30 28 28 29
10 8 7 6 6 5 5 6 7 8 9 10 11 12 13 14 15 15 16 15 15 16 18 19 22 23 22 23 23 23 23 23 23 27 27 33 28 29 29 29 29 29 27
10 8 7 7 6 6 6 7 9 10 11 11 12 13 15 17 17 18 18 17 17 17 19 21 23 22 23 24 24 23 21 22 23 24 28 32 28 28 29 30 30 25 28

GFSGL_925_spd_063.txt.gz
Wind_Speed
11 8 5 5 5 6 9 13 15 16 16 17 18 20 21 24 24 25 26 25 24 23 21 20 17 13 11 7 6 2 2 5 7 6 9 13 16 18 19 20 22 21 20
12 10 9 8 9 8 6 6 7 10 11 13 16 18 21 22 23 25 26 25 26 26 21 17 13 8 5 3 1 5 4 9 9 9 9 7 14 18 21 21 23 21 21
12 11 11 11 10 8 5 1 3 6 9 12 15 18 20 23 26 25 28 28 26 21 17 13 11 6 4 2 2 8 6 10 9 9 10 9 11 19 16 17 17 20 20
13 13 12 11 11 10 8 8 9 12 16 18 20 24 25 26 28 30 29 26 21 17 14 11 10 8 3 6 9 5 6 10 11 10 11 11 11 12 15 16 19 20 22
16 15 14 14 14 14 14 15 16 18 21 21 24 26 28 30 28 28 25 22 18 14 9 6 4 4 4 3 1 4 8 9 8 11 11 11 13 15 18 20 21 20 22
16 16 14 16 16 15 15 16 17 21 23 26 27 26 27 29 24 20 18 18 14 12 9 7 5 4 4 3 2 5 8 8 8 9 10 14 15 18 18 18 21 21 12
17 18 14 13 15 16 17 18 23 25 26 28 27 26 25 22 19 17 16 15 11 10 7 7 5 2 2 4 5 5 7 8 9 12 16 17 18 19 20 19 19 20 21
16 15 14 14 15 19 21 24 27 26 25 24 25 26 24 19 19 19 17 15 12 9 7 4 3 3 6 6 7 8 9 11 13 12 15 16 16 17 16 18 22 23 23
15 15 14 16 20 22 24 24 24 24 24 23 22 22 21 17 13 16 13 10 9 7 5 4 5 6 6 7 9 9 10 12 15 11 12 15 16 18 17 17 17 17 16
15 15 15 19 22 23 22 22 24 24 24 22 20 16 16 15 11 9 7 6 5 4 4 6 7 7 8 8 9 10 9 13 13 13 16 19 18 18 15 11 12 15 16
16 18 18 19 21 21 22 21 20 21 20 18 17 16 16 15 11 7 6 7 6 6 5 6 8 8 9 9 8 10 9 13 12 17 17 17 17 15 14 14 14 14 17
19 20 21 20 18 18 19 18 17 18 18 16 14 13 11 9 7 7 7 7 6 5 5 6 7 9 9 8 7 8 8 10 12 12 12 13 14 17 20 21 22 21 19
21 19 17 17 15 14 16 16 15 13 12 10 9 9 8 7 6 6 7 8 6 6 6 6 9 9 8 7 7 7 8 9 8 9 12 14 15 19 22 24 25 25 27
18 17 16 16 15 14 13 12 11 10 9 7 6 7 6 6 6 6 7 9 8 10 8 10 9 7 7 7 8 8 8 8 8 10 12 15 17 18 20 22 23 26 25
17 15 14 14 14 15 15 12 10 9 6 6 6 4 4 5 6 6 7 8 8 8 7 9 8 9 9 9 10 10 10 10 10 12 13 15 17 18 21 25 22 20 18
17 15 13 13 13 12 14 15 11 9 8 7 5 5 3 4 4 5 7 7 7 6 6 6 6 7 7 9 10 12 11 12 13 15 14 15 17 20 23 24 20 20 21
17 15 13 12 11 11 10 8 8 6 6 6 5 5 5 5 4 6 7 6 6 5 5 6 7 8 10 11 11 11 13 16 18 17 16 18 19 21 20 22 22 21 23
13 12 11 11 9 8 7 5 4 3 2 2 3 5 5 4 4 6 6 7 6 5 7 8 10 11 12 13 13 15 16 17 19 18 19 21 23 22 22 21 23 22 22
14 12 11 10 9 8 7 5 3 2 2 3 3 3 5 4 5 6 6 7 7 7 8 9 11 13 15 15 15 16 17 19 18 20 21 22 24 22 22 24 24 27 28
12 12 11 10 9 7 5 3 2 1 1 3 4 5 6 6 8 8 8 8 8 9 10 11 13 15 17 18 18 18 19 20 21 22 22 23 25 25 24 26 26 26 26
15 13 12 10 8 6 4 3 1 1 2 3 5 5 6 7 9 9 10 9 9 10 12 13 15 17 18 19 20 19 20 21 22 23 24 25 27 26 28 28 27 28 23
16 14 12 9 8 6 4 3 2 2 3 5 6 6 5 7 8 9 10 10 11 11 12 14 17 19 20 20 21 21 21 23 23 23 26 27 29 28 30 29 28 24 26
16 14 12 9 7 5 5 3 4 4 5 5 7 8 8 9 10 11 11 12 14 13 13 15 17 20 21 21 20 20 22 24 25 25 26 27 31 32 33 26 28 27 26
16 13 11 9 7 6 6 5 6 6 6 7 8 9 10 11 12 13 13 14 15 15 15 16 17 19 22 21 21 22 23 24 24 23 24 30 33 31 30 28 29 29 29
15 13 11 9 8 8 7 7 7 7 8 9 10 10 11 13 14 14 15 16 16 17 16 16 18 20 20 21 22 23 23 20 21 24 26 28 33 33 28 30 29 31 31
14 12 10 9 9 9 8 8 8 9 10 10 11 12 13 15 16 16 17 17 18 18 16 17 18 20 20 22 22 24 21 21 21 22 27 31 28 28 29 29 31 28 27

GFSGL_925_spd_066.txt.gz
Wind_Speed
11 10 8 7 7 6 6 6 7 7 7 8 11 14 15 17 19 22 23 23 22 21 18 17 17 15 16 14 10 8 6 5 2 3 8 10 11 16 15 14 15 18 19
10 9 9 9 8 8 7 7 6 6 6 6 7 7 9 12 15 17 16 18 20 22 22 23 20 16 13 9 7 5 5 4 4 6 8 9 8 12 14 16 15 17 19
9 8 9 9 9 9 8 7 7 5 4 1 3 6 8 11 13 16 19 23 22 23 21 20 17 13 10 7 6 5 4 3 6 7 9 8 10 9 15 16 16 16 18
10 11 11 11 10 10 10 11 9 9 9 9 9 10 12 14 18 21 24 28 27 24 19 16 13 10 8 7 3 2 2 4 7 10 10 9 11 11 13 16 18 17 19
10 11 11 10 11 12 13 13 13 12 13 13 14 15 16 18 20 23 24 25 25 21 17 14 10 6 3 4 3 3 3 5 6 9 10 11 12 12 13 15 17 17 20
8 11 11 12 11 13 15 15 18 18 17 17 21 22 22 22 18 21 20 20 20 17 14 11 9 7 4 4 5 4 5 8 8 10 11 12 13 13 14 14 16 18 13
8 11 12 13 14 13 14 16 20 21 21 24 25 25 22 20 18 15 16 17 16 14 13 10 7 3 2 3 4 5 6 7 8 10 14 14 15 13 12 14 15 16 20
11 13 12 14 15 15 18 22 23 22 23 24 23 22 22 18 18 17 17 17 12 11 9 7 4 1 3 3 5 6 6 7 8 10 12 14 12 12 13 16 19 21 22
12 13 12 14 17 19 22 23 23 24 24 25 22 20 19 16 13 13 12 12 10 7 5 3 3 2 4 4 7 6 9 9 10 10 10 13 14 15 14 14 15 16 17
13 15 16 17 19 20 19 21 22 23 23 22 20 16 13 11 8 10 8 5 5 4 3 3 2 3 4 5 7 8 9 9 8 9 9 10 11 11 10 9 11 14 14
17 19 18 18 19 19 20 19 19 17 16 15 13 11 10 8 7 6 6 5 4 2 1 2 3 4 6 6 6 7 7 9 9 10 10 10 9 9 8 9 11 13 16
20 21 20 18 18 17 17 14 13 12 12 10 9 8 6 6 6 6 6 6 3 1 2 3 4 7 6 5 5 5 7 8 7 8 9 10 10 10 10 13 16 16 18
21 17 15 13 12 11 11 11 10 8 7 6 5 5 4 3 3 4 5 5 3 4 3 4 6 6 5 4 5 5 6 6 7 8 10 12 11 14 17 17 20 20 20
14 13 12 12 11 10 8 8 7 5 5 5 4 4 3 2 2 3 4 4 4 4 4 5 5 4 4 4 5 5 5 6 7 9 11 13 13 13 15 17 19 20 21
13 12 11 10 10 10 8 6 6 5 4 4 4 3 1 1 2 3 4 5 5 6 5 5 3 3 4 4 5 6 6 7 8 9 11 12 13 13 15 16 17 21 21
13 11 9 9 8 8 8 9 10 9 7 6 4 2 0 1 1 3 4 5 5 5 4 4 4 5 5 7 8 8 8 8 9 11 12 12 13 14 16 18 18 19 21
11 11 9 8 7 7 6 6 6 4 5 4 2 2 2 1 1 4 5 5 4 4 4 4 5 5 7 8 9 10 11 11 12 12 13 13 13 14 17 18 20 21 21
12 12 9 8 7 6 5 4 4 3 3 2 2 0 2 1 3 5 6 6 4 4 4 5 6 6 8 9 10 11 12 12 12 13 14 15 15 15 16 19 21 23 22
13 11 10 8 7 6 5 4 3 2 2 2 2 3 4 3 4 6 7 4 5 5 5 6 6 7 9 10 11 12 12 13 14 16 16 16 15 16 19 20 22 26 27
12 12 11 9 8 7 5 4 4 3 3 3 3 4 4 4 5 6 5 6 6 6 6 8 8 9 10 11 11 12 13 14 15 15 16 17 18 18 21 22 23 25 25
13 14 12 10 8 7 6 5 4 4 4 4 4 5 5 6 6 7 7 7 7 8 8 9 10 10 11 11 13 13 15 16 18 19 19 20 20 21 23 23 25 26 27
15 13 13 11 9 8 6 6 5 4 4 5 5 6 6 6 6 7 8 9 9 10 11 11 12 12 13 15 16 17 16 18 20 21 20 22 22 23 24 25 27 29 27
17 16 15 12 10 8 7 6 5 5 5 5 6 6 6 6 7 8 10 10 11 12 12 14 15 16 16 18 19 19 21 25 26 26 25 24 25 24 24 28 28 26 26
19 17 15 13 11 9 8 7 6 6 6 6 7 8 8 8 9 11 13 13 13 14 15 16 17 18 19 20 21 22 24 26 27 25 24 29 31 31 30 28 26 29 29
20 18 16 14 13 10 9 8 7 7 8 8 9 9 8 10 11 13 13 14 16 17 17 17 17 18 19 20 21 22 24 24 23 26 30 29 30 32 29 27 31 30 31
22 20 18 15 14 12 11 9 9 8 9 9 10 10 11 12 13 14 15 16 17 18 19 18 17 17 18 20 21 21 23 22 23 22 27 31 27 27 28 30 31 31 32

GFSGL_925_spd_069.txt.gz
Wind_Speed
8 7 6 5 5 4 4 4 4 4 4 5 6 7 10 11 12 14 15 17 18 17 15 15 13 12 13 11 10 7 10 11 5 5 7 6 8 10 12 10 13 16 20
7 6 8 8 8 9 9 9 8 7 7 6 4 2 3 5 8 10 11 12 12 13 13 15 15 16 13 13 13 8 8 4 4 3 1 4 9 9 11 15 15 13 18
8 8 9 10 10 11 11 11 10 9 10 10 8 8 6 3 0 3 6 8 11 13 14 16 18 19 17 12 12 9 8 5 4 3 2 4 8 9 8 11 14 17 18
9 9 10 11 11 11 12 12 12 11 11 11 11 10 8 7 9 11 14 17 19 19 18 15 15 14 16 12 10 8 5 4 3 3 5 6 7 9 10 13 14 14 19
8 9 9 10 10 11 12 13 13 15 14 14 14 14 14 13 12 13 16 18 19 20 18 13 10 11 11 9 7 5 5 3 1 2 6 6 8 9 10 11 14 16 18
7 10 10 9 9 10 11 14 15 16 18 19 23 24 23 21 17 17 18 19 18 16 15 11 9 9 9 7 5 6 4 1 3 5 6 8 11 10 9 11 11 14 9
8 9 8 7 9 12 11 13 16 17 19 23 23 23 24 21 17 16 15 16 17 17 12 7 6 3 5 3 2 1 1 2 4 7 9 10 12 10 11 14 14 15 19
7 7 8 9 11 15 17 19 21 23 22 22 21 21 21 19 15 15 14 14 13 11 7 7 1 2 2 2 2 2 2 4 5 7 9 11 11 10 10 13 16 18 22
7 7 9 12 16 19 21 21 20 22 21 20 19 17 17 15 14 13 12 10 8 6 5 3 2 3 3 4 5 4 4 6 6 8 10 11 13 13 13 15 15 14 15
8 10 11 15 17 21 19 20 19 19 19 17 17 13 11 12 11 10 6 3 3 3 2 2 4 4 4 5 6 6 5 6 7 10 8 10 11 12 11 13 14 13 12
13 14 15 16 18 20 20 18 16 14 13 12 12 10 10 9 9 9 8 6 4 3 2 2 3 5 7 7 6 5 5 8 10 9 10 10 10 10 10 10 12 13 16
17 18 18 16 13 15 15 11 10 10 9 8 7 7 7 6 6 6 7 6 5 4 4 5 5 8 7 6 5 5 6 8 8 9 10 10 10 11 11 12 15 17 18
17 14 13 12 11 10 9 8 7 6 5 5 4 4 3 3 2 4 4 5 4 5 4 5 8 7 6 5 4 6 6 5 7 8 10 11 11 13 16 14 15 17 20
13 12 11 11 10 9 7 5 5 4 4 3 3 2 1 1 2 3 4 5 6 6 7 7 7 6 5 5 5 4 5 6 7 9 11 14 14 13 14 15 18 19 21
12 11 10 10 9 9 7 5 5 3 3 2 2 1 1 1 3 4 5 6 6 6 8 6 6 5 5 4 5 5 6 7 8 10 11 13 13 13 14 17 18 22 20
12 11 9 9 8 8 9 8 8 7 5 4 3 2 1 2 2 3 5 6 6 6 5 5 5 5 5 5 7 7 7 8 9 11 13 13 15 15 17 19 20 20 21
12 12 11 8 8 8 7 7 6 3 2 1 0 1 2 3 3 4 5 7 6 6 5 5 5 6 6 7 8 9 10 11 12 13 14 16 17 17 18 19 20 21 22
13 12 11 8 8 7 6 5 4 4 4 3 4 3 4 3 4 5 6 8 5 5 6 6 7 7 7 8 9 9 11 13 13 13 15 17 18 19 20 20 21 22 23
15 14 11 10 8 7 6 5 4 4 3 3 3 5 5 5 7 7 8 5 7 7 7 7 7 8 9 9 11 12 13 15 15 17 18 19 20 20 20 21 23 26 27
14 13 12 11 10 9 7 6 5 5 5 4 5 4 4 5 6 7 7 8 8 9 8 9 10 10 10 11 11 13 15 15 16 17 19 20 21 20 21 23 23 24 26
15 15 12 11 11 10 8 8 7 6 6 6 6 6 7 7 8 8 9 9 9 10 11 11 11 12 12 12 13 15 16 18 18 18 21 22 21 21 22 23 24 25 27
17 15 15 13 11 11 10 8 8 7 7 6 6 6 7 9 9 10 10 10 10 12 13 14 15 15 15 15 15 17 18 19 20 22 23 23 23 23 24 24 26 27 29
18 16 15 14 13 10 10 10 10 9 8 8 7 8 8 9 11 12 12 12 13 14 14 15 17 19 19 19 18 19 22 23 24 25 27 26 25 26 25 26 28 30 28
20 18 16 15 14 13 12 12 11 10 10 9 9 9 10 12 13 13 15 15 15 15 16 17 19 20 21 20 21 22 23 24 25 26 25 27 30 31 32 30 28 28 30
21 20 18 17 16 15 14 13 13 12 11 11 11 11 12 12 14 15 15 16 17 18 19 18 19 20 20 20 20 21 22 22 24 25 28 29 29 32 31 30 30 30 31
23 22 21 18 17 16 16 15 15 13 12 11 12 13 13 14 15 16 16 17 18 19 19 21 21 19 19 20 20 20 21 22 25 24 22 27 30 29 28 29 30 31 32

GFSGL_925_spd_072.txt.gz
Wind_Speed
8 9 10 10 10 9 8 6 6 5 3 4 6 4 4 3 4 7 9 11 12 12 11 12 12 11 10 9 8 8 9 10 5 7 8 9 12 13 12 13 13 13 15
8 9 11 11 11 11 12 10 9 7 6 6 3 3 3 4 3 2 1 2 4 5 6 8 9 7 8 9 10 10 10 10 7 4 6 9 7 7 9 10 7 8 10
10 10 11 12 11 11 9 9 9 9 10 10 8 8 6 6 4 4 2 3 3 3 5 9 11 12 13 11 10 10 8 7 7 8 6 5 3 3 4 6 9 10 9
10 11 11 11 11 11 11 12 12 12 12 13 13 13 11 10 9 10 10 11 11 11 11 12 12 12 13 11 9 6 6 7 6 6 4 2 2 3 6 10 10 8 16
10 10 10 11 11 14 15 16 16 16 17 17 18 17 15 15 12 11 15 17 18 18 16 15 11 11 10 9 7 4 4 6 5 4 1 1 1 4 6 4 7 11 17
11 10 10 11 11 14 14 16 16 18 19 21 24 23 22 20 18 16 18 20 17 17 18 14 12 12 9 10 3 3 2 4 2 0 1 3 5 5 5 6 9 14 5
10 10 10 10 11 13 14 14 16 17 21 24 23 22 22 20 18 15 14 16 15 14 13 11 9 7 4 4 1 0 1 1 1 3 4 4 7 7 9 12 11 13 16
11 10 11 10 13 16 16 16 18 20 21 23 22 21 20 17 14 13 12 12 11 9 8 7 6 6 5 2 5 3 1 4 4 4 5 7 8 7 8 10 12 15 21
10 11 11 14 16 17 18 18 19 20 19 20 18 17 17 14 12 13 12 11 9 9 9 9 6 4 5 5 3 3 3 3 4 4 6 7 8 8 9 11 13 13 13
10 12 15 16 17 17 18 17 18 19 18 16 16 14 13 14 10 8 5 3 7 6 5 4 5 4 5 5 5 3 3 3 4 8 7 6 6 8 7 9 12 11 11
13 15 16 17 17 17 17 17 16 18 17 14 14 12 11 9 9 9 9 5 4 4 3 2 3 5 6 5 4 2 3 5 8 7 7 8 7 7 6 6 6 9 14
16 17 17 17 16 16 15 13 13 12 12 10 9 8 7 6 5 6 7 7 6 4 4 3 3 7 6 5 3 3 5 6 5 6 7 8 8 10 9 10 13 15 16
18 18 14 15 14 12 11 10 8 7 8 7 6 6 4 3 4 6 7 7 7 6 4 6 5 6 5 3 2 6 5 4 5 7 8 9 10 13 13 11 12 14 17
16 15 13 12 12 11 9 7 7 6 6 5 4 4 2 2 1 2 2 3 3 3 7 8 7 6 5 5 5 5 5 7 8 8 9 12 12 11 11 12 15 18 19
15 15 14 13 12 11 9 7 6 5 4 6 4 2 2 3 1 2 5 6 7 7 9 5 6 5 5 5 5 6 6 7 8 9 10 12 13 14 15 14 16 19 17
17 16 16 14 13 11 10 8 5 5 4 4 3 2 1 2 2 3 4 5 6 6 7 5 4 5 5 7 8 9 9 8 9 10 12 13 14 16 18 18 18 19 20
18 17 16 15 14 13 12 10 9 4 2 1 2 2 2 4 4 5 5 6 7 5 4 5 4 5 6 7 8 8 10 11 12 13 13 15 16 17 16 19 19 20 20
19 18 18 16 14 13 12 10 8 6 5 5 4 4 5 5 5 5 5 8 5 3 6 7 7 7 8 8 9 11 12 13 15 15 16 17 18 19 22 22 21 19 20
20 19 17 15 14 13 11 9 8 7 6 4 5 6 6 6 6 6 6 7 7 8 7 8 8 9 10 9 10 12 14 16 16 17 19 20 20 21 23 23 22 21 22
20 19 17 16 15 13 11 10 9 8 7 7 7 7 7 7 7 7 8 10 11 11 9 10 12 11 12 11 13 14 16 17 19 20 19 21 22 22 23 23 23 22 22
22 20 18 17 15 14 12 11 10 9 9 9 9 8 8 9 11 9 11 11 12 12 13 14 15 14 14 14 14 16 16 18 20 21 22 23 23 24 24 25 25 24 23
24 22 20 18 16 15 14 12 11 10 10 10 10 9 8 10 11 11 12 12 13 14 15 17 18 17 17 17 17 17 18 19 22 23 24 25 25 25 25 25 24 24 24
25 23 22 19 18 15 14 13 13 12 12 11 11 11 11 12 13 13 14 15 15 16 16 17 18 19 19 19 19 19 21 23 25 25 26 27 28 27 27 26 25 26 26
25 24 23 21 19 17 16 15 14 13 13 13 12 12 13 13 14 15 16 17 17 17 17 17 18 20 21 20 20 20 21 22 23 25 25 27 30 31 30 29 30 31 30
26 25 23 22 20 19 18 16 15 15 14 14 14 14 15 15 15 16 17 17 18 18 18 18 19 19 20 21 20 19 19 20 22 22 26 29 29 30 29 29 31 27 29
27 26 25 22 21 20 19 18 18 17 17 17 16 16 16 16 16 16 17 17 18 18 19 19 20 20 19 19 19 18 19 19 21 23 25 24 28 28 28 30 31 29 29

GFSGL_925_spd_075.txt.gz
Wind_Speed
10 11 11 13 11 7 6 5 3 1 1 1 1 2 3 2 1 2 3 4 6 6 5 5 5 6 6 6 6 6 7 8 4 3 7 11 10 11 10 10 11 16 15
10 9 10 9 8 8 9 7 6 6 6 5 4 3 3 3 2 2 1 1 2 1 0 0 0 1 2 3 4 7 8 4 2 4 5 8 8 7 8 9 9 8 8
6 6 7 8 8 10 10 9 9 9 9 9 7 8 7 7 6 6 4 5 4 4 4 5 6 6 7 6 6 6 6 6 4 4 3 7 6 6 6 4 4 7 7
7 8 10 10 10 10 10 10 11 11 12 12 12 11 10 10 9 9 10 10 12 12 12 12 11 10 10 8 7 6 4 6 6 5 2 3 3 3 4 4 7 5 8
10 11 12 12 12 12 14 14 14 15 16 15 15 15 13 12 11 12 15 16 17 18 17 16 14 12 10 8 6 7 6 4 2 4 3 2 2 1 3 2 4 8 13
12 13 11 12 11 11 12 13 14 16 18 19 20 17 17 17 15 14 16 17 17 16 15 14 13 11 9 8 8 5 5 4 2 2 1 0 4 2 1 3 7 8 3
13 13 11 9 11 11 12 14 16 19 20 20 20 19 20 17 15 14 14 16 15 13 11 9 7 5 4 5 4 1 2 0 1 3 4 5 4 3 4 6 6 8 10
13 12 10 10 12 14 17 18 18 19 18 18 18 19 19 16 15 14 13 13 12 10 9 8 8 7 7 5 1 1 1 1 3 4 5 6 8 7 7 9 10 12 16
12 11 11 14 17 18 19 18 18 18 16 15 15 16 17 15 14 13 12 12 12 11 10 8 5 5 3 3 2 2 3 2 3 2 3 5 6 7 7 9 11 10 7
11 13 14 16 18 18 17 17 17 16 17 15 15 14 14 14 11 7 6 7 7 5 4 4 3 2 3 3 4 2 2 2 3 4 3 4 4 4 5 8 8 7 6
15 17 16 16 18 18 17 16 17 17 15 13 12 11 11 10 10 10 7 5 4 3 2 0 1 3 5 4 3 2 1 4 6 6 4 5 4 3 3 4 5 6 9
16 18 18 17 17 17 17 16 15 13 12 11 10 8 6 6 5 6 6 6 4 1 1 2 4 5 5 4 3 2 3 5 4 4 4 4 5 6 8 9 10 9 9
19 18 19 17 15 15 15 14 12 10 9 8 7 6 5 4 3 3 4 2 4 4 2 5 5 6 4 3 0 4 3 4 4 6 7 7 9 13 11 8 9 10 14
20 19 17 17 16 13 12 11 10 10 9 7 7 6 5 4 2 1 2 3 4 4 7 8 4 4 3 3 3 3 4 5 6 6 8 10 9 10 11 11 14 15 19
19 19 17 15 15 14 12 11 10 8 7 8 7 6 5 5 2 1 3 4 5 5 7 3 2 2 2 2 2 3 4 6 7 8 8 11 12 12 14 14 15 17 18
20 18 18 18 17 15 14 11 7 6 5 5 4 4 4 3 3 3 4 4 4 5 6 3 3 4 4 4 5 6 7 5 7 10 11 12 14 15 17 15 16 16 19
22 20 19 19 19 17 14 13 12 7 6 5 4 3 3 3 4 5 4 5 6 5 5 5 6 5 5 6 7 7 8 8 10 11 12 13 14 16 16 20 21 20 17
21 21 21 20 19 17 16 14 11 10 8 7 6 4 4 4 5 5 5 6 4 3 7 8 9 8 8 9 7 8 9 10 11 13 13 15 17 17 19 21 22 21 21
22 23 22 20 19 18 17 15 12 12 10 7 7 6 6 6 6 6 6 9 9 8 8 10 10 11 12 11 10 11 12 13 13 14 16 16 17 18 21 22 22 19 20
24 23 23 23 20 19 18 16 15 13 11 10 9 8 7 7 9 9 9 11 12 13 11 12 12 13 14 14 12 13 15 15 16 16 17 18 19 19 21 22 21 21 21
28 25 24 24 23 22 20 18 16 14 13 12 10 9 8 10 11 12 13 13 14 14 13 14 15 16 15 15 15 15 16 16 16 17 18 19 20 22 22 22 23 23 23
30 29 28 27 25 22 21 19 17 16 14 13 11 10 9 12 14 13 13 14 14 14 14 16 17 18 17 17 16 16 18 18 18 18 21 23 23 23 24 24 24 22 22
32 32 30 28 25 23 20 20 19 17 16 14 12 12 12 13 14 14 14 14 14 15 15 16 18 19 17 18 18 19 20 22 24 25 26 26 26 25 25 25 24 23 24
34 33 31 30 27 25 23 22 20 18 17 16 14 14 14 14 15 15 15 15 16 16 16 17 18 18 19 19 19 19 20 21 22 24 24 25 26 27 28 27 27 27 30
32 31 30 29 29 27 25 23 22 20 19 17 16 15 15 15 16 15 15 16 16 17 17 17 17 17 18 19 20 19 19 19 21 22 22 25 29 30 30 29 28 27 29
29 27 26 27 28 28 26 24 23 21 20 18 17 16 16 17 17 16 16 16 17 17 18 18 17 18 19 20 20 20 19 20 20 21 22 27 28 28 27 28 30 30 29

GFSGL_925_spd_078.txt.gz
Wind_Speed
7 8 8 8 7 6 5 5 5 4 4 4 3 2 2 3 6 4 3 3 3 1 2 2 1 1 1 1 2 3 3 4 2 1 6 10 10 13 15 17 12 11 11
7 6 6 6 5 5 6 6 5 5 6 5 4 4 4 4 4 4 4 2 1 1 2 2 2 2 3 2 2 3 2 2 1 2 1 4 5 8 8 7 5 5 6
5 5 6 6 6 7 7 8 8 9 9 9 8 7 7 7 7 6 6 6 6 6 5 5 7 5 7 7 7 7 6 5 4 3 3 2 3 3 3 4 4 4 5
5 6 7 7 8 8 8 9 10 10 11 11 11 11 10 10 10 9 9 9 11 11 10 10 11 10 10 9 8 7 7 7 7 7 6 4 3 2 4 2 2 3 5
7 8 9 9 10 10 11 11 12 13 14 13 13 13 13 12 13 11 12 13 15 16 16 16 14 12 9 7 6 6 5 6 5 4 4 2 2 2 1 0 0 4 11
9 10 9 8 7 8 9 9 12 13 15 15 16 17 17 17 14 13 13 14 14 14 13 12 11 10 9 9 7 5 5 3 2 1 1 1 1 1 0 1 4 5 4
10 10 8 7 8 8 9 11 14 15 16 18 19 19 19 16 13 13 12 12 11 10 10 8 7 7 6 5 5 4 3 2 2 2 3 3 3 4 4 5 5 5 7
11 9 7 8 9 10 12 15 15 16 18 18 18 18 17 13 12 11 9 9 9 9 8 7 7 8 7 4 3 1 1 1 2 3 4 4 6 7 7 7 7 7 10
12 9 9 10 13 15 16 16 16 17 17 17 15 14 15 13 10 10 9 9 8 8 7 8 6 6 5 4 4 1 2 1 2 1 2 4 5 6 8 9 10 9 5
13 11 13 14 16 17 17 17 16 16 18 16 16 13 12 12 6 4 3 3 3 3 4 4 4 4 4 4 5 3 3 3 4 5 6 5 5 4 7 8 9 8 5
13 15 16 16 17 17 17 18 18 16 16 15 13 11 10 8 8 6 3 1 1 1 1 1 1 3 5 4 3 3 1 4 5 6 4 4 4 3 4 7 7 8 8
16 17 17 17 18 17 17 18 16 15 13 12 10 8 6 5 4 3 2 3 2 1 1 2 4 4 5 3 3 1 2 5 4 3 3 3 4 6 8 10 11 11 11
19 19 19 18 17 17 18 17 14 12 11 9 7 6 5 4 4 2 0 1 2 3 2 3 4 4 4 3 1 2 4 3 3 4 4 5 7 10 9 9 10 12 14
20 20 20 19 18 17 15 13 12 11 9 8 8 8 7 7 6 5 4 5 5 5 6 6 3 3 2 2 2 3 3 3 3 4 5 7 7 10 10 10 13 15 17
20 21 22 20 18 17 14 13 11 9 10 10 10 10 9 10 8 5 3 4 4 4 5 4 2 2 2 2 2 3 4 4 5 6 7 10 12 11 13 13 12 13 15
19 23 23 21 18 17 15 12 9 8 7 9 8 8 8 7 6 6 5 5 4 4 6 4 3 3 4 4 4 5 5 4 6 7 10 11 12 13 15 15 15 18 19
21 24 23 21 20 18 17 16 14 8 8 8 8 7 7 7 7 7 6 5 5 6 7 6 6 7 7 6 6 6 7 7 8 9 11 12 13 15 15 18 18 18 20
25 24 24 22 21 20 19 17 15 14 13 12 11 9 8 8 8 8 7 6 6 5 8 10 10 9 8 9 8 8 9 10 11 12 12 13 15 16 17 19 20 20 20
26 26 24 23 22 21 20 18 17 16 15 12 10 12 11 10 9 9 9 12 11 10 9 11 11 12 11 11 11 11 12 14 15 14 15 16 17 17 20 20 21 18 18
26 26 24 24 23 22 21 21 21 20 18 16 15 15 12 12 14 14 12 14 16 15 13 13 11 12 13 13 14 14 14 15 16 16 17 18 17 17 20 21 21 20 20
29 27 26 25 26 25 24 25 24 22 21 19 18 15 14 15 15 14 15 16 16 15 15 14 13 14 14 14 15 16 17 19 17 17 17 18 18 20 21 22 22 22 22
31 29 28 28 28 28 27 26 25 23 22 20 18 16 14 16 17 16 16 15 14 14 14 15 16 16 15 16 16 17 18 19 21 19 18 19 22 24 24 23 24 23 23
35 32 31 30 29 29 27 27 26 25 24 22 19 18 17 18 18 18 17 15 14 15 14 16 17 18 17 17 17 19 21 22 22 22 24 26 27 26 26 25 25 25 24
35 33 32 30 31 30 29 29 28 27 25 23 21 20 19 19 18 17 16 15 15 16 15 16 18 19 18 18 18 19 21 22 22 24 23 25 27 27 26 26 25 27 28
34 32 29 28 28 26 28 28 29 27 26 24 23 22 21 19 19 18 16 16 17 17 16 17 18 18 18 18 19 19 20 21 22 22 22 23 25 27 29 30 31 31 30
32 31 27 25 24 25 27 28 29 29 27 26 25 23 21 20 19 18 17 17 18 18 18 18 18 18 18 19 20 21 22 21 20 19 21 24 27 26 27 29 29 28 28

GFSGL_925_spd_081.txt.gz
Wind_Speed
7 7 6 5 3 3 3 3 3 3 4 4 5 5 5 5 5 6 6 5 3 2 1 1 1 1 1 2 3 4 4 4 3 1 0 3 5 10 12 13 13 13 12
7 6 5 5 3 2 3 2 3 3 4 4 4 4 5 5 6 6 6 6 6 4 3 2 2 1 1 2 2 2 2 3 4 4 2 2 2 5 5 5 5 4 4
5 4 4 4 4 4 4 5 5 5 6 6 5 6 6 6 6 7 7 8 7 6 5 4 4 3 5 6 6 5 5 5 3 5 4 4 3 3 3 3 1 3 6
5 5 5 5 5 5 5 6 6 6 6 6 7 7 8 8 9 10 11 12 13 13 11 10 9 8 8 7 7 7 6 8 8 8 7 6 4 2 2 2 3 3 5
7 7 8 7 7 7 7 8 8 8 9 9 10 11 11 11 11 11 13 14 16 17 15 15 14 12 9 7 6 6 5 6 6 7 6 4 3 2 1 0 2 5 10
9 10 10 8 6 6 6 7 8 11 13 13 13 13 14 15 13 13 14 17 16 15 14 12 9 7 9 9 9 8 6 5 5 4 3 3 1 0 1 0 3 4 4
12 11 10 8 7 7 8 9 11 12 12 14 16 16 17 15 14 15 14 14 13 12 11 9 7 7 6 5 5 4 6 6 5 3 2 1 1 1 1 3 4 6 7
12 11 9 8 8 8 10 11 13 14 16 16 16 16 16 14 13 12 10 10 11 11 10 8 8 7 7 5 4 1 1 2 3 2 3 3 3 5 6 6 6 7 11
14 12 10 10 10 11 13 13 14 16 16 15 14 13 14 13 11 11 9 9 9 9 8 9 6 6 5 5 4 2 1 0 0 1 1 2 2 3 6 7 9 8 7
14 12 10 11 13 14 15 15 16 15 14 13 15 12 10 10 7 6 5 5 5 5 5 5 4 4 4 4 5 4 2 2 3 4 4 4 4 3 4 6 6 6 4
14 11 12 14 14 15 15 15 15 16 15 14 12 11 10 9 8 6 3 3 3 3 2 1 1 3 6 4 4 4 3 3 5 6 3 3 3 3 3 4 5 7 6
14 13 14 14 15 16 16 17 16 15 14 12 10 9 7 6 5 4 3 4 4 2 1 2 4 3 4 3 4 1 2 5 5 3 3 3 4 5 7 9 9 9 11
16 17 16 16 17 18 19 19 17 15 13 11 9 7 6 4 4 3 1 0 2 3 2 3 5 5 5 4 1 2 5 5 4 3 3 4 6 9 9 8 8 10 13
19 19 19 20 20 20 19 18 16 15 12 11 9 8 6 7 7 6 4 4 5 5 5 6 4 4 4 4 4 5 4 4 4 4 4 6 7 9 9 9 12 12 14
20 21 21 21 19 21 19 17 15 13 12 11 10 9 10 10 8 6 5 4 4 3 5 5 4 4 5 5 5 5 5 5 5 6 7 9 11 11 11 11 11 12 15
19 21 22 23 20 20 18 15 13 11 10 10 9 10 10 7 6 6 6 6 4 4 7 7 6 6 6 7 7 7 6 6 7 8 10 11 12 13 14 13 14 16 18
19 23 24 24 22 21 19 17 16 10 8 9 10 10 9 7 7 8 8 7 5 6 10 9 9 8 9 9 9 9 8 8 9 10 11 12 14 14 14 18 17 17 20
23 23 26 25 24 22 21 20 17 16 14 14 13 11 9 9 9 10 9 8 9 8 9 11 12 12 11 11 11 11 11 11 12 13 14 14 14 15 17 19 19 19 20
26 24 25 26 25 24 22 20 19 18 17 14 12 13 13 12 11 11 12 15 14 13 12 12 12 13 14 14 14 13 14 15 13 15 15 16 17 17 19 20 20 18 18
27 27 26 26 25 24 23 23 23 22 20 18 17 16 13 14 17 18 17 17 18 18 17 16 15 14 15 15 15 16 17 18 18 18 17 17 17 18 19 19 20 21 21
29 28 27 27 28 28 28 27 27 25 24 23 22 18 16 19 20 19 19 19 19 19 18 17 17 17 16 16 17 18 19 20 20 21 20 17 16 18 19 20 22 22 22
30 32 30 29 30 30 30 29 28 27 26 25 23 20 18 20 21 20 20 19 17 16 16 17 18 19 18 18 18 19 21 22 21 21 21 22 18 20 24 24 23 23 23
31 31 31 31 31 30 28 29 30 29 28 27 25 23 21 22 23 23 22 20 17 17 17 18 19 20 19 20 20 21 22 24 23 21 23 23 25 26 26 27 25 23 22
31 31 31 30 30 30 30 29 31 31 30 28 27 25 25 24 23 23 22 20 18 18 18 19 20 20 20 20 20 21 22 23 22 22 23 25 26 27 26 27 26 26 26
30 30 29 28 27 26 25 26 30 30 30 29 29 27 26 24 23 23 21 20 19 19 19 19 19 20 20 21 21 20 20 22 23 24 23 23 25 25 26 27 29 28 29
30 30 29 27 26 26 25 24 27 31 31 30 30 28 26 25 24 21 20 20 21 21 20 20 19 20 20 21 21 21 22 22 21 20 21 25 27 27 28 29 28 28 28

GFSGL_925_spd_084.txt.gz
Wind_Speed
7 7 5 5 3 2 2 2 1 1 2 2 3 4 4 4 4 5 6 6 6 6 5 3 2 2 2 2 2 2 3 3 4 2 2 2 4 7 8 7 8 11 12
8 6 5 4 3 1 1 1 2 3 2 2 2 2 3 3 4 5 6 5 4 5 5 4 3 3 2 1 0 2 3 1 1 3 2 1 1 2 3 3 3 5 6
7 5 4 3 2 2 2 2 2 2 2 3 3 3 4 5 5 6 7 8 8 8 7 5 5 5 6 6 6 5 4 3 1 3 4 3 2 2 2 1 2 2 2
7 6 5 4 3 3 3 3 3 4 5 6 6 6 6 8 8 10 10 11 12 12 11 11 10 10 11 9 7 6 5 6 5 6 6 4 3 2 2 2 1 3 4
8 7 7 6 5 5 4 5 5 6 7 8 9 9 9 9 9 11 12 15 17 18 17 16 15 14 11 8 6 6 5 4 4 6 6 4 4 3 2 2 2 4 7
9 9 9 8 7 5 5 5 6 8 9 10 11 10 10 11 11 12 15 18 18 17 16 14 13 13 11 9 9 8 6 5 5 5 5 4 3 2 1 2 4 5 4
11 11 10 7 6 6 6 6 7 7 7 11 13 15 16 15 14 14 14 15 15 14 12 11 10 9 6 5 6 6 7 7 6 5 4 2 1 1 1 2 3 3 4
12 12 11 9 8 8 8 8 10 11 12 14 15 16 17 14 14 13 13 14 13 12 11 10 8 8 7 4 3 3 3 5 5 4 4 4 3 2 2 2 3 5 9
15 14 12 11 10 10 11 12 13 15 16 16 15 15 15 14 12 11 11 11 11 11 10 8 7 6 5 4 3 2 2 3 2 3 2 2 1 0 4 4 5 7 5
17 15 13 11 12 13 14 15 16 16 16 15 15 13 12 12 8 8 7 7 8 8 8 7 5 5 4 3 4 3 2 2 1 1 2 3 2 1 2 3 4 4 3
15 14 12 12 13 14 16 18 17 17 15 15 14 13 11 9 8 6 4 5 5 6 4 3 2 1 2 2 2 3 4 1 2 3 1 0 0 1 2 3 4 4 4
15 14 13 14 14 16 18 18 18 17 17 14 12 11 9 9 7 5 5 5 4 3 3 2 2 1 2 1 1 1 1 2 3 1 1 1 2 3 5 6 6 6 7
16 15 15 15 16 17 19 19 20 18 16 14 12 10 9 8 7 6 4 3 1 0 1 1 3 2 3 2 1 0 3 3 2 2 2 3 4 7 7 7 7 8 11
16 16 16 18 17 18 19 21 19 19 16 14 12 11 10 9 9 8 6 6 4 2 2 3 3 3 2 2 3 4 4 4 4 3 3 5 7 7 10 9 11 11 13
17 17 19 19 18 19 19 21 19 17 15 13 12 11 11 11 9 8 8 5 2 2 2 3 3 4 4 4 4 4 5 5 6 5 5 7 9 10 10 11 11 12 13
18 20 21 21 20 22 21 19 17 13 12 12 11 10 10 9 7 8 8 5 4 4 6 6 5 5 6 6 7 7 7 6 7 8 8 9 11 12 12 11 12 16 16
20 20 21 21 23 23 23 21 18 14 11 12 13 11 11 9 9 10 9 7 6 6 11 10 9 8 8 8 9 9 10 8 7 10 11 10 12 14 13 16 17 17 18
22 21 23 22 25 25 25 23 20 19 17 15 13 12 12 11 10 11 10 8 10 10 12 11 11 11 11 12 11 12 12 11 12 12 13 13 14 15 17 19 19 19 19
23 22 22 24 25 27 25 23 22 21 20 16 14 15 15 13 12 11 12 16 15 15 14 14 12 12 12 13 13 14 14 14 15 16 15 14 15 17 20 21 22 18 17
24 24 23 23 25 27 25 24 23 23 22 21 20 19 15 16 19 19 18 19 19 19 18 17 16 16 16 15 15 14 15 16 18 18 20 21 19 17 20 20 22 22 22
25 25 24 24 26 28 27 27 27 27 27 27 26 22 19 20 21 21 21 22 22 21 20 19 19 18 17 17 17 17 18 19 19 19 19 21 21 22 19 18 20 21 23
25 27 26 27 29 29 30 29 28 28 29 28 27 24 21 21 23 23 22 22 21 20 18 18 19 19 18 18 18 19 20 21 20 20 20 20 20 22 20 19 24 25 23
26 27 27 27 30 30 28 29 30 31 31 31 29 26 23 25 26 25 23 21 20 19 19 20 21 20 18 19 19 20 22 22 21 18 20 21 22 22 24 26 25 24 22
26 27 28 26 27 28 28 28 31 31 32 31 31 30 28 27 27 26 25 22 21 20 21 20 22 21 20 19 19 20 22 21 20 20 20 22 24 24 23 25 25 26 25
26 27 26 25 25 26 25 25 25 27 29 30 31 32 30 28 26 26 25 23 21 21 21 21 21 21 21 21 21 20 20 20 21 20 21 22 24 23 23 24 26 27 26
26 27 26 24 24 25 25 26 28 27 27 28 31 33 31 28 27 25 24 23 22 21 21 22 21 21 21 21 21 20 20 20 20 19 18 23 26 26 26 27 28 28 28

GFSGL_925_spd_087.txt.gz
Wind_Speed
11 9 8 6 5 4 3 3 3 3 4 5 6 6 6 7 8 10 10 11 11 7 4 5 4 4 3 3 2 2 3 3 3 2 1 2 1 2 3 4 6 8 10
11 10 8 6 4 3 2 2 3 3 4 4 5 6 6 7 8 9 9 9 7 7 6 6 6 5 4 3 4 3 2 3 4 5 3 2 2 0 2 3 4 5 4
9 9 8 7 5 3 2 2 3 3 3 4 4 6 6 7 8 9 9 10 9 9 9 8 8 6 6 6 5 4 5 4 4 5 4 3 2 1 0 1 2 2 2
11 7 7 5 5 5 3 3 3 3 5 5 5 6 8 8 9 10 11 11 11 11 10 9 9 8 8 8 7 7 7 7 8 8 6 4 3 2 1 0 1 2 2
10 9 6 6 6 5 5 4 4 3 5 6 7 7 7 7 8 11 12 14 15 17 16 15 12 11 9 8 7 7 6 6 6 5 5 3 3 2 1 0 1 4 6
9 9 8 7 7 7 6 6 6 6 6 7 8 7 6 8 10 11 15 17 18 18 18 16 16 15 11 10 10 10 7 6 5 4 4 3 3 2 2 1 2 3 2
11 11 12 11 8 6 5 5 6 6 6 7 9 9 12 13 13 14 17 19 18 16 14 14 12 10 9 8 9 9 10 8 6 4 5 3 3 3 2 1 2 2 3
15 14 13 10 9 7 7 7 8 9 8 10 12 14 16 14 13 14 16 17 16 14 12 11 10 9 6 5 6 5 6 6 4 4 5 4 3 2 0 1 2 4 6
16 16 15 13 10 9 9 10 10 11 13 15 15 15 15 14 12 13 14 16 14 13 11 10 9 8 5 5 5 5 6 5 5 4 4 3 2 1 1 2 2 3 3
17 16 14 12 9 10 11 12 13 15 17 15 15 13 13 14 11 11 11 12 12 11 10 9 6 6 4 2 4 4 6 5 4 2 2 2 2 1 1 2 3 2 2
14 13 12 11 10 12 13 15 17 18 16 15 15 14 12 11 9 8 7 8 9 10 9 8 8 4 3 3 3 5 5 5 2 2 3 3 2 2 1 1 3 4 3
15 15 14 12 12 14 16 18 19 19 17 15 14 14 12 11 9 7 7 7 8 8 9 8 6 5 4 4 4 5 5 3 2 3 3 3 2 2 4 5 6 5 6
16 16 14 13 14 15 19 21 21 19 19 17 15 14 13 12 11 9 8 7 6 7 8 7 5 5 5 5 5 6 7 3 3 3 2 2 2 4 4 6 5 7 10
18 17 15 16 16 17 19 21 23 22 21 18 15 14 14 13 13 12 12 11 8 7 7 7 5 6 6 6 8 7 6 5 5 5 4 3 3 3 5 6 7 8 9
16 17 18 18 18 19 20 22 24 24 24 21 19 16 16 15 16 14 14 13 11 9 8 7 6 8 8 7 7 7 7 7 7 6 5 3 3 5 7 7 7 8 8
18 19 20 20 21 21 21 19 22 19 18 16 13 14 14 12 10 13 14 12 10 10 9 8 7 8 8 8 8 9 10 9 9 9 7 6 6 7 8 8 9 10 12
18 20 20 20 23 22 22 22 19 19 17 17 17 15 14 13 13 12 14 13 12 12 12 10 9 9 9 10 10 11 11 10 10 10 9 9 9 9 9 10 11 14 12
19 19 21 22 24 24 25 25 25 23 21 21 18 18 17 15 14 14 16 14 15 16 16 14 12 11 11 13 13 12 12 13 13 13 13 13 12 11 11 11 12 15 14
20 21 21 22 23 24 25 26 26 24 23 21 18 18 17 16 15 16 17 22 22 20 17 15 14 12 13 13 13 14 14 15 15 15 16 17 16 13 13 13 14 15 15
20 20 22 22 22 22 24 26 26 26 25 25 23 22 19 18 21 23 23 25 25 23 19 18 17 16 16 16 15 15 15 16 17 17 17 18 18 18 17 15 14 15 14
22 22 20 22 23 25 25 27 27 26 27 27 29 26 22 23 26 27 27 28 27 26 23 21 20 19 19 18 18 18 18 17 17 18 18 18 18 20 18 16 15 15 15
22 22 24 25 25 25 27 28 29 29 29 29 29 27 24 24 28 29 28 28 28 27 25 23 22 20 19 19 17 19 19 19 18 18 18 19 19 19 18 16 16 17 16
22 23 24 25 28 28 25 26 29 30 30 31 31 30 28 29 31 31 31 29 27 25 24 23 22 22 19 19 18 19 20 20 17 16 18 19 19 18 18 17 16 18 18
22 24 25 25 24 27 28 28 28 28 29 30 30 31 32 31 32 33 32 29 27 25 24 23 23 22 21 19 19 19 19 18 18 18 18 20 20 19 18 17 16 18 19
23 24 24 24 23 24 25 26 28 29 29 26 27 29 32 32 32 32 31 30 29 26 25 24 23 22 21 20 19 18 17 17 18 18 20 20 21 20 20 20 20 20 21
18 23 24 24 24 25 25 24 25 27 30 32 33 34 34 34 35 33 32 30 29 28 26 24 22 21 19 20 19 17 17 17 18 19 20 20 20 21 21 23 23 22 21

GFSGL_925_spd_090.txt.gz
Wind_Speed
7 5 5 5 6 5 5 4 3 3 3 4 5 5 4 5 6 9 12 13 12 11 10 8 6 6 6 5 6 6 4 4 5 3 3 1 1 1 1 1 2 4 6
5 6 4 3 3 2 2 3 3 3 4 5 5 6 7 8 7 8 8 8 8 7 7 8 7 6 6 5 4 4 4 6 4 4 3 1 1 1 1 1 1 3 2
8 5 5 4 2 2 1 1 2 3 4 5 5 6 7 8 9 8 9 9 7 7 6 7 8 8 8 7 6 6 5 5 4 4 4 3 1 0 0 1 1 1 2
8 7 4 3 3 3 2 2 1 2 2 3 4 5 6 6 7 8 8 8 9 8 8 7 9 9 9 9 7 7 6 6 6 7 5 4 3 2 2 0 0 1 1
8 7 5 4 4 2 3 2 1 2 2 3 3 5 5 6 7 8 9 9 10 11 10 11 9 10 11 9 7 6 6 5 5 5 5 4 4 3 2 0 1 3 3
7 6 6 6 5 4 2 3 2 2 3 3 4 3 3 3 7 10 11 12 12 12 14 14 15 12 11 9 7 7 6 5 6 5 4 5 4 2 1 1 2 3 2
9 9 8 7 7 6 5 3 3 3 3 3 3 4 5 7 9 11 13 15 16 15 16 16 12 11 10 10 9 9 8 7 6 4 4 3 3 2 3 1 1 2 3
10 10 9 9 7 6 5 6 7 7 6 6 7 7 9 9 11 12 16 17 16 13 12 10 9 8 7 7 6 6 6 5 5 5 5 4 4 3 2 1 1 3 4
13 13 12 11 10 8 8 9 9 9 9 10 11 11 11 10 11 14 15 14 13 11 10 9 7 7 7 7 6 7 6 6 5 5 5 4 4 3 4 2 2 2 2
14 12 11 10 9 9 10 12 13 12 12 12 12 12 10 10 11 13 12 11 10 9 8 7 8 6 6 6 5 6 7 6 5 3 2 2 4 1 3 3 3 3 2
12 12 11 12 12 12 13 14 15 14 14 14 13 9 10 9 10 10 9 8 8 9 8 8 6 6 5 4 5 5 5 7 5 4 4 4 4 3 2 2 2 3 3
13 13 13 13 13 13 14 15 17 18 17 14 11 9 8 8 8 8 8 9 9 8 8 7 7 7 5 5 4 5 6 6 4 5 5 5 5 4 3 3 4 4 5
13 13 13 13 14 14 17 19 20 20 18 13 12 11 10 9 9 8 8 8 9 6 7 7 7 7 5 5 5 7 8 4 5 6 6 6 5 5 6 5 5 5 8
12 12 13 15 15 15 17 20 22 22 18 14 14 13 11 11 10 10 10 9 7 7 8 7 6 6 8 6 7 8 7 6 7 6 6 5 5 4 5 6 5 5 7
13 13 14 16 17 17 19 21 23 24 23 16 15 14 14 13 15 14 13 12 10 9 8 7 6 7 8 8 8 8 8 8 8 7 7 6 6 6 7 7 6 5 6
13 13 14 17 18 19 18 18 19 20 22 19 15 14 14 13 11 13 15 15 13 11 9 8 9 10 11 10 10 10 10 10 10 9 9 8 8 8 8 8 8 7 8
14 12 13 16 18 20 19 19 14 16 18 20 19 17 16 14 14 13 15 16 14 14 13 11 11 11 11 11 11 11 11 11 12 11 10 10 9 9 9 10 9 9 10
15 15 13 15 17 20 21 20 18 15 16 17 20 20 18 17 15 16 16 16 15 19 17 14 13 12 12 12 13 13 11 11 12 12 12 11 11 11 11 11 10 11 12
19 18 17 18 21 21 21 21 20 16 16 14 14 19 19 18 17 17 18 21 20 18 20 17 16 15 15 15 15 14 14 13 13 13 13 13 13 13 13 12 12 13 14
19 19 18 21 20 20 21 21 20 20 17 17 17 18 17 17 19 21 23 23 22 21 20 21 20 20 20 18 17 16 16 16 16 16 17 15 13 13 14 14 14 14 13
20 19 17 20 22 23 22 22 21 21 20 20 22 24 24 24 22 23 24 26 26 25 26 26 25 25 22 21 20 19 19 19 19 19 17 16 15 14 14 14 15 15 14
17 20 20 22 23 24 24 23 21 23 22 22 21 24 25 25 28 26 27 30 32 31 30 29 28 27 26 24 23 22 22 21 21 21 20 19 18 16 14 14 15 15 15
17 19 20 22 24 23 23 25 25 25 22 23 23 23 25 28 28 30 32 34 33 32 31 31 30 29 27 26 25 24 24 24 22 21 21 19 18 17 15 14 14 15 16
17 19 21 21 22 23 23 23 26 29 29 28 26 24 24 27 30 33 34 34 33 33 32 30 29 29 28 26 25 25 24 23 21 22 21 21 20 17 16 15 15 16 16
13 19 21 22 22 22 23 23 25 27 28 29 30 31 33 29 27 32 34 35 36 34 33 31 30 29 28 27 26 24 22 20 22 22 22 22 22 20 19 17 16 16 17
12 13 17 20 21 22 23 23 24 25 26 29 30 32 34 35 37 36 33 34 36 37 34 32 31 28 29 28 26 22 21 23 23 22 22 22 21 20 18 17 17 17 18

GFSGL_925_spd_093.txt.gz
Wind_Speed
11 8 7 7 5 4 4 3 3 3 3 3 5 4 4 4 5 8 10 13 13 12 11 11 9 9 7 5 7 8 9 9 4 3 5 3 2 1 1 1 2 3 3
12 10 8 7 7 5 3 3 2 1 4 4 5 4 6 7 4 5 6 9 11 11 11 10 10 7 5 5 6 8 7 7 7 6 6 4 3 4 3 2 1 1 1
11 10 10 8 6 5 4 1 0 1 2 4 4 4 5 6 5 5 4 6 7 7 8 8 7 6 7 8 9 8 8 7 8 7 6 5 3 3 2 2 2 0 1
11 10 9 7 6 5 4 2 1 0 1 1 2 3 4 4 5 5 5 6 6 7 8 8 7 8 8 9 9 8 7 7 7 9 5 6 5 5 5 3 2 2 1
11 9 8 6 5 4 3 1 1 0 1 2 0 1 1 2 3 4 6 7 8 8 7 7 8 9 11 10 7 8 9 7 8 8 6 7 6 5 3 3 2 0 3
9 8 6 6 5 4 3 2 1 0 1 1 1 1 0 2 2 4 6 7 8 10 11 9 10 10 9 9 10 10 9 7 8 7 6 7 6 5 4 3 2 1 0
8 8 8 7 6 5 4 3 2 2 1 1 2 2 1 2 2 6 8 11 12 13 14 15 12 12 10 9 10 8 7 8 7 6 6 4 6 5 6 4 3 2 1
10 9 8 8 7 6 5 5 5 4 4 6 4 4 4 3 6 7 8 9 11 11 12 10 9 11 9 7 6 6 6 6 7 5 6 6 5 4 3 4 2 2 2
11 11 10 9 8 8 7 7 6 7 7 6 4 4 6 7 7 9 11 11 9 9 9 9 8 7 8 8 7 8 6 5 6 7 6 5 6 7 6 3 2 0 0
12 11 10 10 9 9 8 8 9 7 7 7 8 8 7 8 9 10 10 9 10 8 8 8 9 6 8 10 6 7 8 6 5 4 4 4 4 3 5 4 2 2 1
11 11 10 10 10 9 11 10 9 10 9 11 10 8 7 6 9 10 8 8 8 9 9 7 7 7 6 7 8 7 7 8 8 6 6 4 5 3 3 3 3 3 3
11 11 11 11 10 10 11 11 11 12 12 13 11 9 9 9 9 10 9 8 7 10 9 9 8 8 6 5 7 7 9 9 7 7 7 6 6 5 4 4 5 5 6
11 11 11 10 10 10 11 12 14 15 16 15 12 11 10 10 8 8 8 9 10 8 9 9 8 8 6 6 7 7 9 8 7 7 7 8 7 8 8 6 4 5 7
10 10 10 10 11 11 12 14 16 18 17 16 13 13 11 11 11 10 11 11 9 10 9 9 7 7 7 7 8 10 11 8 8 8 7 7 8 6 4 4 5 6 9
9 9 10 11 12 12 15 17 19 20 22 22 17 14 13 13 16 15 15 14 12 10 10 9 9 10 11 11 10 11 11 11 12 10 9 9 8 7 6 6 7 8 10
10 10 10 10 11 14 15 16 16 17 19 20 17 15 15 13 12 15 15 13 12 11 12 11 12 14 14 14 14 13 14 12 12 11 11 11 10 9 8 8 9 11 12
13 11 10 11 11 13 17 16 14 16 16 18 20 18 17 14 15 13 15 15 14 14 15 13 14 15 16 15 14 15 15 15 13 14 14 13 12 12 10 10 10 11 13
15 14 13 12 13 14 16 18 18 15 15 18 20 21 19 18 16 15 14 14 16 19 19 17 16 16 16 16 17 17 16 14 16 17 16 16 15 14 13 13 13 13 12
16 17 18 17 16 17 18 19 19 18 17 13 14 19 23 19 18 17 17 21 20 20 21 20 19 18 18 18 18 18 17 17 17 17 17 17 17 17 16 15 15 14 14
17 17 16 18 18 18 18 18 18 19 19 15 16 19 20 19 22 23 23 24 23 22 22 24 23 23 22 21 20 20 19 19 18 19 19 18 18 19 18 18 17 16 16
14 16 15 18 19 19 20 20 20 20 20 21 24 19 20 24 24 23 25 27 27 26 26 27 26 26 25 24 23 23 22 22 22 21 21 20 20 20 19 18 17 17 17
14 15 16 18 20 20 20 21 21 22 22 22 23 24 21 25 27 27 27 29 31 31 30 29 29 28 28 28 27 26 25 25 25 24 23 22 21 21 20 19 19 18 17
13 15 16 17 19 20 19 21 22 22 23 23 24 22 21 26 28 30 31 32 32 32 32 32 32 31 30 30 28 27 28 28 26 23 23 22 22 22 21 21 21 20 18
10 14 16 18 18 19 21 21 22 24 24 25 25 26 27 24 27 31 33 34 34 35 35 35 34 34 34 32 30 29 28 27 25 23 21 23 23 22 21 22 22 21 19
14 13 14 17 18 19 20 21 22 23 24 25 26 27 29 31 34 32 30 30 33 35 36 36 35 35 34 33 32 30 27 25 25 23 22 24 24 24 23 24 23 21 19
13 14 14 15 16 19 19 20 21 22 23 25 26 27 28 29 31 33 34 36 34 32 33 35 36 36 35 33 32 31 26 25 24 23 23 26 25 25 25 26 24 23 21

GFSGL_925_spd_096.txt.gz
Wind_Speed
22 22 14 10 10 7 6 6 5 4 3 2 4 5 5 5 6 4 8 12 13 13 13 14 15 14 15 11 10 9 10 10 6 4 6 6 4 2 2 2 4 2 4
17 17 17 12 8 7 8 6 4 2 2 4 4 4 6 5 4 4 6 8 10 12 14 13 12 12 10 8 7 8 9 12 8 7 7 7 6 7 5 3 3 3 4
16 15 14 13 11 9 6 5 4 4 2 1 3 4 6 6 6 6 5 6 8 10 10 11 12 11 10 9 9 11 11 10 10 10 8 8 6 7 5 4 3 3 2
14 14 15 13 12 9 7 5 4 2 1 2 3 4 4 5 6 7 8 9 10 10 10 10 10 11 10 10 10 9 9 9 9 10 7 8 7 8 8 7 6 5 3
16 16 15 13 11 8 7 5 4 3 1 2 2 3 3 4 6 5 8 11 11 10 10 10 10 10 9 9 11 11 11 11 12 12 9 8 8 8 9 7 6 6 3
16 15 14 12 11 9 7 5 3 2 2 2 2 3 4 5 6 4 6 8 8 10 11 9 9 9 10 12 11 11 12 13 15 12 11 13 8 10 8 7 6 4 3
16 14 12 11 10 8 7 6 5 4 4 5 5 6 5 5 5 6 9 10 11 11 11 11 12 11 11 10 10 11 10 10 10 11 13 10 11 10 9 8 6 4 3
15 14 14 13 12 11 9 7 7 5 4 4 4 4 5 5 4 8 8 10 10 10 12 13 14 14 12 11 9 10 8 9 10 10 12 10 9 8 8 7 6 5 3
16 15 14 13 12 10 9 8 6 6 5 4 4 4 4 3 6 6 8 11 12 13 12 10 12 12 10 10 10 9 9 8 8 8 8 8 8 8 6 7 7 6 2
14 13 13 13 12 11 10 8 8 7 6 6 6 6 6 6 7 8 7 9 12 11 11 11 7 8 11 9 9 11 10 9 9 9 9 8 6 7 8 6 6 7 3
13 13 13 12 12 11 11 10 8 8 7 8 8 8 8 7 9 9 8 9 10 11 10 11 11 8 10 11 10 10 8 10 9 8 8 7 6 6 7 6 5 7 8
12 13 14 12 12 11 10 9 9 9 10 10 10 10 9 9 8 11 10 9 8 11 11 10 10 9 8 9 11 9 10 9 11 10 9 9 9 8 7 6 5 5 6
11 13 12 11 11 10 11 10 11 12 13 14 14 13 12 11 11 10 11 9 9 10 11 10 9 10 9 9 8 8 11 12 10 11 12 11 10 10 9 7 6 6 5
12 12 12 12 10 11 12 12 14 15 16 16 16 16 14 14 14 13 13 12 10 10 10 10 11 12 10 8 9 9 11 12 10 11 11 11 11 11 11 7 4 3 5
11 12 13 12 11 13 14 15 16 17 18 20 20 20 17 17 17 17 14 15 15 13 12 12 12 12 12 11 12 13 14 13 13 11 11 13 12 10 7 6 7 6 8
11 11 14 13 12 13 14 14 14 15 15 16 15 18 18 14 15 15 16 15 13 13 13 14 14 14 14 15 16 15 15 15 15 14 15 15 14 12 11 8 9 10 11
11 11 13 11 11 13 15 15 15 15 15 14 16 16 15 14 15 14 16 16 15 14 16 16 16 15 18 18 17 17 18 18 16 16 17 18 17 15 13 13 12 12 13
12 13 12 14 13 14 15 15 16 16 15 18 18 19 20 17 16 16 15 15 17 19 22 22 20 19 19 19 19 20 18 17 19 20 21 21 20 19 18 19 17 17 16
12 14 14 15 15 15 16 16 16 17 17 17 16 16 22 21 19 18 17 21 22 24 26 27 25 23 21 21 21 20 21 22 22 22 23 23 22 22 22 20 19 17 16
13 13 14 16 16 16 17 16 17 17 17 17 19 19 17 18 22 24 25 25 27 28 27 28 27 26 25 24 22 21 22 22 24 24 25 23 23 23 24 22 22 22 22
13 13 12 15 17 17 18 18 18 18 18 19 22 23 21 20 23 25 27 31 32 30 29 30 29 28 27 26 26 25 26 26 26 26 26 25 24 25 25 24 23 22 22
11 13 12 14 16 18 19 18 18 19 20 21 22 23 22 24 25 27 29 31 32 33 33 32 32 31 30 29 29 29 29 29 29 28 28 27 26 26 25 24 24 24 23
12 11 13 14 15 16 17 18 19 20 21 22 22 22 23 26 29 29 30 31 33 34 33 33 33 33 32 31 30 30 32 32 31 29 29 28 28 27 26 26 25 25 23
15 14 13 14 16 16 17 18 19 21 21 22 22 23 24 27 29 30 31 31 31 34 35 35 35 36 36 35 34 33 33 31 31 30 27 27 27 26 25 26 26 25 23
14 15 15 14 14 15 16 17 19 21 22 22 23 23 25 26 28 30 30 30 30 32 33 36 37 37 37 37 36 35 34 32 31 30 28 28 27 26 25 26 26 24 22
12 13 13 14 15 15 15 16 17 18 20 21 23 24 25 25 26 28 29 30 31 32 34 35 36 36 37 37 36 36 34 33 31 29 28 29 29 28 25 27 26 24 22

GFSGL_925_spd_099.txt.gz
Wind_Speed
20 21 21 19 16 14 12 12 10 8 10 9 9 9 9 9 9 9 10 10 11 12 13 15 16 18 15 17 15 14 15 13 7 5 10 10 9 7 6 4 6 6 5
20 19 18 17 18 18 13 9 8 10 9 7 7 8 8 8 8 8 9 9 9 12 14 14 15 14 15 13 13 11 10 10 11 10 11 11 8 9 7 6 8 7 5
18 17 15 16 16 15 15 11 10 8 6 6 6 5 7 7 7 7 8 10 10 10 12 14 14 14 13 13 12 12 10 11 14 11 9 11 7 12 11 8 8 7 5
17 17 17 16 14 14 13 9 7 6 6 6 4 4 6 6 6 7 7 8 10 10 11 11 11 12 12 12 13 12 11 13 13 13 10 11 10 13 12 13 11 9 7
19 18 17 16 13 11 9 8 8 7 6 4 2 2 5 6 4 6 7 8 12 12 11 11 10 11 11 12 13 13 13 13 14 15 10 8 9 13 14 13 11 11 7
19 18 16 14 11 9 10 10 8 6 4 4 4 4 5 6 7 8 6 8 11 11 12 10 10 8 8 7 8 10 12 15 17 14 14 14 13 13 15 14 13 9 4
18 16 14 12 12 11 10 9 8 7 6 5 4 4 6 7 7 5 7 8 11 10 10 8 9 10 11 10 10 10 10 11 13 14 15 16 12 15 16 14 13 10 5
17 16 15 14 13 12 11 10 8 7 6 7 5 5 5 6 7 7 7 9 10 10 10 11 10 11 11 12 11 10 9 9 11 11 12 12 10 12 11 12 11 10 7
18 17 16 15 14 13 12 10 10 9 8 6 5 6 5 5 5 7 8 10 11 10 11 11 11 12 11 10 10 11 9 9 7 8 9 9 8 9 10 12 13 13 4
19 17 16 15 15 14 11 11 10 8 8 7 6 7 6 6 7 6 5 8 10 10 10 9 10 12 10 10 11 12 12 11 10 11 11 11 10 8 8 8 10 13 6
15 15 15 15 14 13 11 12 10 10 7 7 8 8 8 8 8 9 7 8 10 11 12 12 10 10 11 10 11 13 10 11 11 10 10 10 10 9 8 7 7 8 9
14 15 16 15 14 13 12 12 10 10 10 10 10 11 10 10 9 10 11 8 9 11 13 12 13 10 10 11 10 9 10 12 12 12 11 11 11 10 8 5 5 5 6
15 15 15 14 13 13 12 11 11 12 13 13 14 13 13 11 12 10 11 10 9 11 11 11 12 12 10 9 10 9 13 13 14 13 14 13 11 9 7 5 5 4 5
13 14 14 14 13 12 11 11 13 14 15 16 16 17 16 14 15 14 13 14 12 12 11 12 12 13 12 11 10 11 14 14 14 15 15 12 11 11 10 7 6 3 2
11 12 14 14 14 12 12 13 15 16 16 18 18 18 17 19 20 16 17 17 16 15 13 13 14 14 14 14 14 15 14 14 16 15 15 15 14 12 11 10 7 7 6
10 12 14 14 13 13 13 14 14 15 15 16 16 16 17 17 14 13 16 16 15 14 15 17 18 17 18 19 18 17 18 19 19 17 15 16 16 14 12 11 10 9 9
11 12 12 14 14 14 14 15 15 13 15 16 16 17 16 15 16 13 16 16 16 16 19 18 20 20 22 21 22 22 22 22 19 20 19 20 18 16 15 16 15 13 13
10 11 12 14 15 15 14 15 14 14 14 16 17 17 18 18 16 16 15 15 19 21 23 24 24 23 23 23 23 23 22 20 21 21 21 21 20 20 19 20 19 18 17
10 11 12 14 15 14 14 14 14 14 16 17 16 14 17 19 21 19 18 23 23 23 26 29 29 27 26 24 23 23 23 23 23 23 24 24 22 22 22 22 21 20 18
11 11 11 13 14 14 15 15 16 16 17 17 17 18 15 14 20 23 25 26 25 27 27 30 30 30 28 26 25 24 24 24 25 26 26 24 24 24 25 24 24 23 23
11 11 10 11 12 14 14 16 18 18 18 18 19 18 17 19 21 25 27 29 31 30 31 31 31 30 29 27 26 27 27 27 28 28 27 26 26 27 26 26 24 24 24
12 11 10 11 11 12 15 16 18 18 19 19 20 19 16 19 23 25 27 30 32 34 34 34 33 32 31 30 29 29 30 31 31 30 30 28 28 28 26 26 26 25 24
12 13 12 11 11 12 13 15 16 17 19 20 20 20 19 20 23 26 28 29 29 30 32 32 33 34 33 32 31 31 32 33 32 31 31 31 31 30 28 28 27 25 25
11 12 12 13 12 11 12 14 15 17 18 19 20 20 21 21 23 24 26 27 28 30 30 31 33 34 34 34 33 33 32 32 32 31 30 31 31 30 29 29 28 28 26
10 10 10 11 12 13 13 12 13 14 16 17 19 20 22 22 23 24 25 25 26 28 30 30 31 32 34 35 36 36 34 32 32 32 32 31 31 31 31 30 28 27 25
10 11 11 11 10 10 11 13 14 15 15 16 17 19 19 20 22 23 23 24 25 26 27 28 30 30 30 32 33 35 36 34 34 32 32 33 33 33 33 32 29 27 24

GFSGL_925_spd_102.txt.gz
Wind_Speed
23 23 22 22 20 19 19 18 16 14 13 12 12 12 11 12 12 12 11 12 14 15 16 15 17 16 16 16 16 18 17 16 7 5 10 11 13 12 9 6 3 7 7
19 18 17 16 16 16 15 15 14 13 11 10 8 8 8 9 9 10 10 11 11 13 13 12 14 13 14 14 14 14 13 13 8 8 11 12 11 12 9 7 6 8 7
16 17 16 15 14 12 11 9 9 10 9 8 7 7 8 9 9 10 11 12 11 12 13 13 15 15 14 14 15 14 11 10 9 9 8 12 8 14 13 10 9 8 7
16 15 14 12 11 9 8 8 8 7 7 5 4 5 6 7 8 8 10 11 13 11 12 14 13 13 13 12 12 12 11 11 10 9 9 11 11 15 15 15 13 10 8
16 15 13 13 12 11 10 9 8 7 5 3 3 4 5 6 7 8 9 10 10 12 12 12 13 12 12 12 12 12 13 12 11 14 10 8 10 13 18 15 13 12 10
14 15 16 15 14 12 11 10 8 6 4 3 3 4 5 7 8 9 10 10 11 13 12 13 12 9 10 9 10 11 12 14 15 17 14 11 13 17 19 17 15 10 5
16 16 17 15 14 13 12 11 9 7 5 4 5 6 8 8 8 10 8 10 12 12 12 12 10 9 7 7 8 8 10 11 12 16 18 17 16 17 20 19 18 15 7
17 17 16 15 14 14 13 11 8 6 5 6 8 8 9 9 9 7 9 10 12 12 11 11 10 10 10 10 10 9 8 9 10 12 11 10 12 13 15 16 17 13 9
17 17 16 16 15 14 12 10 8 7 8 10 8 7 8 9 8 8 10 11 12 11 10 10 10 9 8 9 9 10 8 6 6 7 8 10 11 12 14 13 16 17 5
17 16 15 15 15 13 12 11 10 9 9 9 9 7 8 9 8 9 10 11 10 10 10 9 9 9 9 8 9 9 9 9 10 11 11 12 11 11 12 11 14 19 7
14 14 14 14 14 13 12 11 10 10 9 9 8 8 10 10 10 10 11 11 10 10 10 10 9 9 10 9 9 11 9 10 9 11 12 11 11 10 10 10 12 14 11
14 15 16 16 15 15 14 12 12 11 10 10 11 11 12 13 12 12 12 11 10 11 12 11 10 9 9 10 9 9 8 9 12 12 12 12 12 11 10 9 8 9 9
14 15 15 15 14 14 14 13 11 11 11 12 12 14 16 15 15 14 12 12 10 12 12 11 10 11 9 9 9 8 10 15 14 14 15 15 13 11 11 9 7 6 6
12 12 13 14 14 14 13 13 12 13 13 14 14 16 19 17 16 15 16 13 13 12 11 10 11 11 13 11 9 10 12 13 15 15 15 13 12 14 13 9 7 6 5
9 10 12 13 14 14 14 13 14 14 14 16 17 17 19 19 19 19 18 18 16 17 14 12 13 14 15 14 13 14 14 14 15 14 16 15 15 15 14 11 9 10 7
7 8 11 12 13 14 14 14 14 14 14 15 15 17 17 16 15 13 16 15 16 15 15 16 17 18 18 19 19 18 17 17 17 17 16 17 18 17 16 15 14 13 12
8 9 10 12 15 16 15 15 16 12 12 15 17 17 17 18 15 14 15 14 16 15 20 20 20 20 22 22 21 21 20 21 19 20 19 19 18 17 18 19 18 16 15
7 9 11 12 14 16 17 16 15 15 15 15 13 16 18 16 17 17 16 13 18 20 24 21 23 22 22 22 22 22 22 21 21 22 23 23 21 21 23 22 21 22 21
7 9 9 11 13 15 15 15 16 15 16 18 17 15 14 15 17 18 18 19 21 23 24 24 27 26 25 24 23 22 21 22 22 23 25 25 24 25 27 25 23 23 22
7 7 9 9 11 12 13 15 17 16 17 18 17 17 15 12 15 19 24 23 25 28 25 29 30 29 29 28 25 24 24 23 24 25 27 28 27 28 28 27 27 26 25
8 9 7 7 8 10 11 14 14 15 17 18 19 17 14 15 17 20 23 26 29 31 28 31 32 31 30 29 28 27 27 28 29 29 30 29 29 30 29 28 28 28 27
8 9 9 8 7 8 10 11 12 14 15 16 18 17 14 15 20 21 22 25 28 29 32 32 33 33 32 31 30 29 30 30 31 31 31 31 30 29 29 28 28 28 26
8 9 9 9 9 8 8 8 10 11 14 15 16 16 16 16 17 19 22 23 23 25 27 30 31 32 32 32 31 30 30 32 32 31 32 32 31 31 31 31 30 27 26
8 9 9 9 9 10 9 10 9 10 11 13 14 15 16 17 18 19 20 20 21 22 23 25 27 29 29 31 32 32 32 31 31 31 29 30 31 31 30 31 30 30 28
8 9 9 9 10 10 10 10 12 13 13 13 13 13 14 15 16 18 19 19 20 21 22 23 24 26 27 27 30 32 32 31 31 31 31 32 32 32 32 32 30 29 27
9 10 10 10 10 9 9 11 11 12 13 14 14 16 17 17 18 18 19 20 21 22 22 22 23 23 23 24 25 26 27 30 31 31 31 32 33 34 33 32 32 30 29

GFSGL_925_spd_105.txt.gz
Wind_Speed
16 19 20 19 17 15 14 14 13 12 12 12 12 11 10 10 10 10 11 12 12 13 13 14 16 16 16 18 17 16 18 17 7 5 11 13 16 14 14 12 8 6 8
16 16 15 16 15 15 14 12 11 11 9 8 8 8 7 7 7 8 9 10 12 13 13 12 13 12 15 14 13 15 14 14 8 7 10 13 14 15 14 12 9 7 8
15 14 14 14 13 12 11 10 9 8 6 6 5 5 5 5 6 8 10 11 12 12 12 12 11 12 14 13 13 11 11 10 8 7 7 13 9 17 15 12 11 10 10
15 15 14 13 12 11 11 10 8 8 6 4 4 4 4 5 5 6 8 10 11 12 12 11 12 12 12 12 12 10 9 9 8 8 7 10 12 17 18 17 13 11 10
16 15 14 14 13 13 11 10 9 7 5 4 4 3 2 3 4 6 8 10 11 11 11 12 12 12 11 11 11 11 9 10 9 9 9 8 10 13 20 18 16 13 10
14 16 15 15 14 12 11 9 7 6 5 4 4 2 3 4 6 8 10 11 11 12 13 13 13 13 11 9 9 10 12 12 14 14 14 11 15 16 21 20 17 10 6
12 12 14 13 12 11 9 7 7 6 5 4 3 4 5 6 6 7 8 11 11 11 13 14 13 12 11 9 8 7 8 9 11 13 17 17 16 18 20 20 19 16 8
14 13 13 12 11 10 8 8 7 6 5 5 5 6 6 6 7 8 7 10 11 12 12 12 12 11 11 10 11 10 9 8 9 10 12 13 13 15 18 21 21 16 11
13 13 12 12 11 11 10 9 7 6 6 6 9 8 7 7 8 7 10 13 13 13 12 11 11 11 10 9 9 8 7 6 5 7 8 8 8 10 15 17 18 19 5
13 12 12 11 11 11 10 9 9 7 7 9 9 9 6 8 7 8 11 12 14 12 11 11 9 9 8 7 7 8 7 5 4 5 7 8 9 11 13 13 16 21 7
10 11 11 11 11 10 10 11 9 8 8 9 10 8 9 9 9 10 9 12 12 12 11 11 9 9 8 7 8 9 7 6 7 7 8 8 9 9 10 11 13 16 15
10 11 11 10 10 11 12 11 10 9 9 11 11 11 10 10 11 12 12 11 13 12 12 11 10 8 8 8 9 8 8 8 10 9 9 9 9 8 8 9 10 11 12
8 8 9 10 12 12 12 12 11 10 11 12 12 13 13 12 13 13 13 12 11 11 12 10 10 10 9 9 9 10 8 11 10 12 13 11 10 9 10 9 9 8 7
7 8 9 10 11 12 13 13 12 12 12 13 14 16 16 15 15 14 14 14 12 12 13 11 11 10 11 13 10 9 11 14 14 15 14 12 11 12 13 11 9 8 7
4 6 8 10 11 12 13 13 13 13 13 14 16 15 16 18 16 14 14 17 16 15 14 15 13 13 13 14 13 12 12 12 14 13 14 15 14 15 15 13 9 10 9
2 4 7 9 10 12 13 13 13 14 13 14 14 14 17 17 16 14 14 14 15 13 13 17 17 16 17 18 17 16 15 15 16 15 15 16 17 18 17 16 14 14 13
4 5 7 8 10 12 13 15 15 12 12 13 13 15 16 18 18 18 14 14 14 13 18 21 22 19 20 19 19 19 20 19 19 18 18 19 18 17 17 19 17 17 15
5 6 8 9 11 13 15 16 16 15 15 14 12 12 14 15 17 17 17 13 16 17 21 25 24 21 21 20 20 20 21 20 19 20 21 22 21 21 21 22 22 22 19
8 8 8 9 11 12 13 15 15 16 16 17 18 15 12 13 14 16 16 21 21 22 24 26 26 24 24 23 21 20 20 20 20 22 24 25 25 25 25 24 23 21 19
7 8 8 10 11 12 12 14 15 16 17 18 19 18 14 12 14 16 18 21 25 24 25 27 28 27 27 27 25 24 23 22 22 23 24 26 26 27 28 26 25 24 21
8 9 9 8 8 9 11 12 14 15 16 17 19 16 13 14 15 16 17 18 24 26 27 28 29 29 28 28 27 27 26 25 25 25 26 26 27 28 28 27 26 26 25
8 7 9 9 9 8 8 9 11 12 14 15 16 14 12 13 16 18 19 20 21 22 23 26 28 29 28 29 29 27 27 28 27 26 26 27 28 28 28 28 26 26 26
7 7 7 7 8 8 8 8 8 8 10 11 12 13 13 13 15 16 17 18 19 20 21 22 24 27 28 28 28 29 29 30 29 26 27 27 29 30 30 30 28 26 26
7 7 8 8 8 8 9 10 11 10 9 10 11 12 12 13 15 16 17 17 17 17 18 19 20 22 24 25 26 28 29 28 28 28 27 27 28 28 29 30 29 29 29
8 8 8 9 9 9 9 8 8 9 11 11 13 15 16 16 15 17 17 16 17 18 17 18 19 20 21 22 23 25 27 27 27 28 29 29 29 29 29 29 29 28 29
10 9 9 9 10 9 8 9 10 11 12 12 12 14 16 17 17 18 18 19 19 19 18 19 19 20 20 21 21 22 23 24 26 26 28 30 30 30 30 30 30 28 27

GFSGL_925_spd_108.txt.gz
Wind_Speed
10 10 12 13 14 13 14 13 11 10 9 6 4 3 2 3 4 5 5 5 6 7 8 10 11 11 12 12 14 14 14 16 10 7 11 14 15 16 14 14 11 9 5
11 13 15 15 14 13 11 11 10 9 6 5 5 3 2 2 2 2 3 3 5 6 7 8 9 10 9 11 13 13 13 14 11 8 9 12 14 18 16 13 12 9 7
13 16 17 16 15 15 14 12 10 8 8 8 6 6 4 2 1 2 4 4 5 6 7 8 9 9 10 11 12 12 12 11 9 8 8 12 11 16 16 15 12 10 8
15 16 16 15 14 13 12 11 11 11 11 9 7 5 3 2 1 2 3 4 5 6 7 7 8 9 10 11 11 11 10 9 9 8 8 9 12 15 19 18 15 14 13
15 16 16 15 15 14 14 15 14 13 11 9 7 5 5 2 2 3 5 6 7 7 7 8 8 9 9 10 10 10 10 9 8 9 6 6 8 12 22 20 18 16 14
16 16 17 18 17 17 15 14 12 10 9 8 6 5 3 2 2 4 6 6 7 8 9 9 10 10 10 10 9 9 8 10 12 11 12 9 13 14 19 20 18 11 5
15 15 15 16 16 14 13 12 12 10 9 8 7 5 2 1 2 4 5 7 8 8 9 9 8 8 9 9 10 9 9 9 10 12 14 16 13 17 18 22 22 16 9
13 14 14 14 14 14 13 12 12 11 8 7 4 2 1 1 1 3 3 8 9 10 9 8 9 9 9 10 10 11 11 10 10 11 12 13 14 11 16 19 22 19 11
12 14 14 14 15 15 14 13 11 10 8 6 3 0 0 1 1 2 5 8 10 12 9 9 8 10 9 8 7 9 8 6 6 6 8 8 8 9 14 15 17 17 4
12 13 14 14 13 13 11 12 11 9 7 5 1 2 1 1 2 4 6 8 10 10 9 7 7 7 8 6 6 6 7 6 4 3 3 5 6 7 10 13 17 22 9
8 11 12 11 11 13 13 11 9 8 7 4 3 3 3 5 4 5 6 9 10 10 11 9 8 8 6 5 7 5 6 6 5 4 2 3 6 7 9 10 11 16 17
10 11 12 13 12 11 11 11 10 9 7 5 6 7 5 6 7 7 9 9 10 12 11 11 8 7 6 5 6 8 6 7 8 7 6 6 5 6 6 8 10 13 13
9 9 10 9 10 13 12 11 10 9 8 6 8 9 9 7 8 9 11 12 10 12 13 11 9 7 7 7 7 8 6 9 8 8 9 9 7 6 6 7 8 8 9
6 7 8 10 11 9 10 9 11 10 9 8 9 12 12 11 9 10 11 12 11 12 12 11 9 8 9 9 10 9 9 10 13 11 11 10 9 9 10 9 9 9 9
4 4 5 7 9 10 11 11 11 10 10 11 11 11 11 14 11 8 9 10 11 13 12 13 13 11 11 11 11 10 10 9 11 11 10 11 12 12 12 12 10 10 7
2 0 3 5 6 8 9 10 12 12 12 13 11 12 12 13 12 11 11 10 10 10 11 14 15 14 14 13 13 13 12 11 12 13 12 12 14 15 15 15 14 12 12
3 3 4 5 7 8 10 12 14 12 12 12 13 13 14 15 15 13 12 11 10 10 16 18 18 19 18 15 15 15 17 15 15 16 15 16 15 16 15 18 18 16 15
5 5 5 6 7 9 11 13 14 14 15 15 12 12 13 13 13 12 13 13 13 13 17 19 21 23 20 17 16 16 16 16 15 16 17 19 19 20 19 20 20 21 18
8 8 9 10 10 10 11 13 14 15 16 17 15 14 13 12 12 11 11 15 20 21 20 20 23 24 22 20 19 18 17 16 16 18 20 21 21 22 23 23 23 20 19
7 7 8 9 10 10 10 11 13 14 15 16 16 16 13 12 13 13 13 15 19 21 25 23 21 22 23 23 22 21 20 19 19 19 20 21 23 24 26 26 26 24 23
8 8 8 9 10 10 10 10 10 11 12 14 14 13 11 11 15 14 14 13 14 17 21 23 24 23 23 23 23 24 23 23 22 23 23 23 24 26 26 27 27 27 25
9 8 8 8 8 9 9 9 8 8 9 10 11 10 8 9 11 13 14 14 15 16 17 18 21 22 23 22 21 23 25 25 25 24 23 24 25 27 27 28 27 27 26
8 7 7 7 8 7 8 8 8 8 8 7 7 8 9 9 9 10 11 12 12 13 13 14 16 18 19 20 20 22 25 26 25 24 24 24 24 26 27 29 28 27 27
8 7 8 8 9 9 8 8 7 7 8 9 10 9 9 10 10 10 11 12 12 12 12 13 14 15 16 17 18 19 20 22 23 24 23 24 26 25 25 27 27 29 28
8 8 8 9 9 10 9 8 8 8 8 10 10 10 12 13 14 13 13 15 15 16 16 14 14 14 15 16 16 17 18 19 20 21 23 24 26 27 28 29 29 28 28
9 8 8 9 9 10 10 10 10 10 10 11 11 12 14 17 17 14 15 15 15 15 15 15 14 13 14 15 16 16 17 18 19 20 22 26 27 27 28 29 29 28 26

GFSGL_925_spd_111.txt.gz
Wind_Speed
17 18 20 21 23 22 23 23 23 21 20 20 18 17 15 13 11 9 7 4 3 2 1 3 2 4 5 6 6 7 9 11 11 10 10 11 13 16 16 15 14 12 10
17 19 21 22 22 23 24 22 20 20 19 17 17 16 13 11 10 8 7 4 3 3 2 1 1 3 4 5 6 7 8 9 10 9 8 10 13 17 18 17 15 13 11
19 21 22 22 23 23 22 21 20 20 17 15 13 13 13 11 9 8 6 4 3 2 1 1 3 4 5 6 7 8 8 9 9 7 6 9 12 14 18 16 15 12 11
18 19 21 20 19 20 20 19 17 15 15 16 15 14 13 12 10 9 7 4 3 1 2 2 3 4 6 6 7 8 9 10 8 8 8 8 9 10 19 18 16 15 13
17 19 19 19 20 19 18 16 16 16 17 16 15 14 12 10 10 8 6 3 2 0 2 3 4 5 5 6 8 8 8 9 9 8 7 6 8 8 19 17 18 15 14
16 16 17 20 20 19 19 19 16 15 15 14 14 14 14 11 8 6 5 2 2 2 2 3 4 4 5 5 8 9 9 8 10 9 10 10 13 13 16 20 18 11 7
18 20 21 21 20 18 18 18 18 16 15 14 15 14 11 8 6 2 4 2 2 4 4 4 3 5 5 6 7 8 8 8 9 10 11 13 15 15 16 18 21 17 9
15 15 16 18 20 19 19 18 17 16 15 13 10 9 8 7 6 3 3 1 2 4 4 3 4 6 8 8 9 9 9 9 10 10 13 14 13 13 13 18 19 20 12
15 18 19 19 19 18 17 16 15 14 12 10 9 9 10 8 8 5 4 0 2 5 5 4 4 6 7 6 8 9 8 6 6 7 7 9 9 9 11 13 14 18 5
8 10 12 14 16 17 18 18 16 15 13 11 9 6 8 8 8 6 4 3 2 3 4 5 4 5 6 6 7 7 7 5 4 4 4 3 4 5 9 11 15 19 7
10 11 12 13 13 14 15 14 14 13 12 10 8 5 5 8 7 7 6 4 5 5 5 6 6 6 7 7 7 8 6 5 4 4 2 1 3 4 4 7 10 16 15
8 10 11 11 13 14 13 13 14 15 14 10 6 6 7 6 7 9 8 9 8 8 8 7 7 7 6 6 6 8 6 5 5 5 5 4 4 4 4 5 8 11 12
8 10 11 11 11 13 15 14 14 13 11 10 9 7 7 7 8 8 8 9 9 11 11 9 8 7 6 7 7 6 6 8 6 7 7 6 5 5 4 4 6 7 8
2 5 7 9 10 10 10 10 13 15 14 11 10 10 9 8 7 8 7 9 10 10 12 10 10 8 8 8 8 8 9 8 9 9 8 7 7 7 7 6 6 7 7
2 3 5 7 10 12 13 13 13 12 12 13 13 10 10 9 6 6 5 7 9 8 10 11 11 11 11 10 9 9 10 9 9 9 10 9 8 9 9 9 8 9 6
2 2 0 3 8 6 8 10 11 12 13 13 11 10 10 10 6 5 6 8 8 9 9 11 12 12 13 12 10 11 12 12 11 11 11 11 10 11 11 11 11 11 10
5 4 3 2 3 5 8 9 10 8 10 13 12 11 11 11 9 9 10 10 10 9 12 16 17 15 14 14 14 14 15 14 13 14 14 14 14 13 13 14 15 13 13
5 5 6 5 5 5 6 8 9 10 11 11 10 11 12 12 12 11 12 12 14 13 15 15 17 16 16 16 17 16 14 13 14 15 17 17 17 17 16 16 16 18 15
4 4 6 6 7 7 8 9 10 11 12 14 12 12 11 11 11 11 10 13 16 19 19 19 18 17 16 16 18 17 16 16 15 15 16 17 19 20 20 21 20 19 17
5 5 5 6 6 6 7 8 9 9 11 12 12 11 9 8 10 10 11 12 12 15 17 18 18 17 18 16 17 18 19 19 18 18 18 19 19 21 23 23 21 20 20
7 6 5 6 6 7 7 7 7 7 8 8 9 8 6 8 10 9 8 8 9 10 11 12 14 15 16 16 16 17 19 21 21 20 20 21 21 23 23 23 23 24 22
7 6 6 6 6 6 5 5 5 4 3 3 4 3 3 4 5 4 5 5 6 7 8 9 11 13 15 16 15 16 18 20 21 21 21 21 22 22 23 24 24 23 23
8 7 6 6 6 5 6 5 5 5 5 5 4 3 3 2 2 3 4 4 5 6 6 7 9 10 11 12 13 14 16 18 19 20 20 21 21 23 23 24 24 23 23
7 8 8 8 8 7 7 6 5 5 5 6 6 4 4 5 6 6 7 8 8 8 7 7 7 8 10 11 11 12 13 14 15 17 18 20 22 22 22 24 25 26 25
7 7 8 8 8 7 7 6 6 6 6 6 6 6 7 8 10 10 10 10 11 10 9 8 8 8 8 8 9 11 13 13 13 14 16 19 21 22 23 24 25 24 25
7 7 8 8 8 8 9 8 8 8 8 9 9 8 10 12 14 12 9 9 9 11 13 15 15 15 15 18 17 14 11 11 13 14 16 19 22 23 24 25 25 25 26

GFSGL_925_spd_114.txt.gz
Wind_Speed
29 30 27 27 27 29 32 32 28 26 27 31 27 25 21 19 16 14 12 12 10 9 8 6 5 5 4 4 5 5 6 8 11 11 13 15 12 13 12 15 14 14 13
27 29 26 26 28 28 28 28 27 30 31 30 26 22 20 18 16 14 14 12 9 9 7 6 4 3 3 3 3 6 6 6 7 10 11 12 12 11 13 14 14 13 12
22 28 29 27 28 28 30 30 29 27 26 24 22 22 20 18 16 13 12 12 10 9 8 7 4 2 3 3 4 6 6 6 8 8 7 9 9 11 13 14 14 14 13
18 22 25 27 27 26 26 25 24 24 24 22 20 20 20 19 16 15 13 11 9 8 6 5 4 3 3 4 5 6 9 9 8 9 10 10 9 9 14 17 15 14 13
15 17 19 22 24 23 22 21 22 22 22 22 22 21 19 16 14 12 10 9 7 6 5 4 3 5 6 5 5 5 7 7 7 7 11 7 7 8 13 14 17 14 13
12 15 19 22 22 22 21 20 19 19 20 20 19 18 16 15 15 13 11 9 7 5 4 2 2 3 5 7 7 4 6 6 6 9 11 10 12 9 10 14 15 10 5
11 13 14 18 21 21 22 22 22 21 19 18 17 15 13 12 13 12 11 9 7 4 2 2 3 4 6 6 6 7 9 7 8 12 11 9 9 11 12 12 16 15 9
12 11 11 13 14 17 19 19 20 22 23 22 20 19 17 13 11 10 10 6 3 1 2 1 2 4 7 6 5 7 8 10 9 11 13 14 14 13 12 13 14 15 11
8 11 13 15 15 14 17 18 17 19 19 19 18 17 15 14 13 10 9 6 4 2 3 2 3 4 7 8 7 8 8 8 8 8 8 9 10 10 10 12 12 14 6
7 8 9 12 13 14 16 17 17 15 15 14 14 13 14 13 17 16 11 6 4 2 1 2 5 6 7 5 8 7 8 6 6 7 6 6 5 4 7 9 11 15 6
6 10 11 11 11 12 15 16 17 16 16 14 12 11 12 13 12 12 8 4 3 4 5 6 5 5 7 10 10 11 7 5 6 6 5 4 4 4 4 5 8 13 14
3 4 6 8 10 11 13 13 12 12 11 10 8 6 6 7 9 11 11 10 8 9 8 5 6 5 6 9 10 10 8 6 5 6 5 6 6 5 4 4 5 9 12
5 7 7 6 8 9 9 9 8 9 9 8 7 7 8 10 10 13 14 13 14 14 12 8 9 6 7 8 10 8 5 6 6 5 5 8 7 7 5 4 5 6 8
3 4 5 6 7 7 8 10 11 12 11 11 11 10 9 10 11 10 12 12 14 12 10 10 9 8 9 9 9 7 7 8 8 6 7 7 8 7 6 5 5 5 5
3 3 2 2 4 6 8 9 11 9 10 10 10 10 10 10 9 9 11 11 9 8 7 7 7 10 11 9 8 7 8 9 8 8 8 8 7 7 7 7 7 7 5
5 4 3 3 4 6 7 8 9 10 12 13 13 11 10 10 9 8 10 10 7 6 8 6 8 11 11 10 9 9 10 10 10 9 9 9 9 8 8 8 9 9 8
8 7 6 5 4 4 5 6 7 7 9 12 13 13 14 12 10 11 12 11 10 10 13 13 14 15 15 12 11 11 11 10 12 13 13 11 11 10 10 9 9 10 10
8 8 7 6 6 6 6 6 6 6 7 10 13 14 15 15 14 14 14 13 15 14 16 18 17 15 14 15 15 16 14 13 13 14 14 14 14 13 11 12 12 12 12
7 7 7 8 7 6 7 8 9 9 9 11 9 12 13 14 14 14 13 16 17 19 20 21 20 19 17 16 15 15 16 17 16 15 15 15 16 15 15 15 14 14 13
5 7 7 9 9 7 7 8 9 9 11 12 13 13 11 11 14 15 14 16 18 17 17 18 19 19 18 16 16 16 16 17 17 17 16 16 16 17 16 16 16 16 16
4 4 6 8 6 7 7 7 8 8 9 10 11 9 9 11 12 11 11 11 13 13 13 14 14 15 15 15 15 15 16 18 18 18 18 18 17 16 15 15 15 17 17
4 4 4 5 6 6 6 7 7 6 6 6 6 5 4 6 6 6 6 7 7 8 9 10 11 11 12 13 14 15 15 16 16 18 19 19 19 18 15 15 15 17 18
4 4 4 4 5 5 5 5 5 5 5 5 5 5 3 2 1 2 2 4 5 6 7 8 9 10 10 11 11 11 13 14 14 13 15 16 18 20 20 18 18 18 19
5 4 4 5 5 5 5 5 5 6 6 5 5 5 5 5 5 6 7 7 9 9 9 9 8 6 5 7 7 8 10 11 12 13 13 14 15 15 17 19 22 21 19
6 5 5 4 5 5 6 6 6 6 6 6 5 5 6 6 6 7 8 9 10 8 8 10 12 13 12 11 11 10 7 8 10 12 13 14 15 17 18 18 17 17 20
7 7 6 6 6 6 7 7 7 6 7 7 7 7 8 8 9 10 9 8 8 8 10 12 14 14 15 16 17 18 19 18 16 13 11 13 17 18 19 20 20 19 19

GFSGL_925_spd_117.txt.gz
Wind_Speed
26 29 27 25 24 18 21 30 26 16 16 15 19 20 16 18 21 20 19 18 13 13 11 9 8 6 5 5 5 6 6 9 9 15 14 16 16 12 12 8 11 10 12
20 24 20 21 22 25 25 29 26 26 25 31 26 29 29 26 24 20 17 16 14 12 10 7 5 5 5 6 3 5 6 6 8 11 14 15 14 13 11 10 10 11 12
19 18 20 22 20 19 22 25 27 25 25 28 30 30 26 25 22 18 17 16 13 10 9 8 7 8 7 7 5 5 5 6 8 10 10 15 14 13 11 11 11 11 12
18 21 18 21 23 23 21 22 23 27 28 28 27 26 24 23 22 20 16 13 12 11 11 10 9 7 7 6 7 6 5 5 8 10 12 13 14 14 13 13 12 12 12
12 15 16 17 19 22 25 26 25 23 23 25 26 23 21 20 18 17 14 13 11 10 9 8 8 9 9 8 5 4 5 5 7 10 11 10 12 12 13 11 10 12 11
11 12 16 16 17 19 22 22 21 22 22 22 21 20 19 18 18 18 17 15 13 11 9 8 7 6 6 5 6 6 5 4 7 10 10 10 13 14 12 13 9 7 3
11 11 11 12 16 18 18 19 18 19 20 20 19 19 17 16 17 17 15 14 13 10 8 7 6 6 5 5 6 6 6 6 8 8 8 9 10 8 11 13 11 10 7
9 10 10 11 11 13 16 16 18 18 17 18 19 18 17 16 18 16 15 11 9 7 5 5 5 5 6 7 6 7 6 6 8 7 10 13 14 17 16 15 12 12 11
8 8 8 9 12 11 13 14 14 16 17 17 18 18 17 17 18 17 14 10 7 4 3 4 4 4 8 6 6 7 4 5 8 8 8 10 12 12 11 12 11 10 7
5 7 8 9 9 10 12 12 13 14 15 15 15 14 13 14 16 16 14 8 6 6 6 6 5 5 7 7 6 5 5 4 7 7 9 7 8 7 7 8 9 13 5
4 3 5 7 8 10 12 11 13 12 13 13 13 12 13 12 14 15 14 9 7 10 8 7 7 8 8 5 7 6 8 8 8 8 8 7 6 7 7 5 7 11 13
5 5 4 4 5 6 8 9 11 11 12 11 10 9 11 12 13 14 14 15 10 9 9 8 9 9 8 6 5 4 7 8 10 9 9 8 8 8 8 6 6 8 11
6 6 3 2 2 3 5 6 7 9 10 11 13 12 12 14 14 16 18 18 18 16 13 10 9 8 8 8 7 8 7 9 9 12 11 10 10 9 7 6 6 6 8
8 8 5 2 1 2 4 6 9 11 12 13 13 14 14 16 17 16 20 18 16 14 12 12 10 10 11 9 9 11 12 8 12 15 12 10 10 8 6 7 6 6 5
7 5 5 7 5 3 5 7 7 7 9 9 11 12 12 14 16 14 14 15 14 12 12 11 11 13 15 13 12 11 11 12 15 16 14 12 9 7 6 8 8 7 7
4 4 3 1 5 5 7 10 10 13 14 15 14 12 13 13 11 13 16 16 14 14 15 15 13 14 15 14 11 12 13 14 16 16 14 12 10 9 8 9 9 9 9
5 5 4 1 1 2 3 6 10 10 12 15 15 16 17 15 13 13 15 16 16 15 17 20 15 14 15 14 14 15 16 16 17 17 15 14 12 10 10 12 11 11 11
2 2 2 4 4 3 4 6 7 7 7 7 10 15 17 17 17 17 17 15 18 21 24 20 19 18 17 16 16 17 17 16 17 17 16 15 14 14 12 12 13 14 13
3 3 4 5 7 6 6 7 8 10 11 11 10 10 11 13 14 15 17 21 23 21 23 24 23 20 19 17 16 16 15 16 17 17 16 15 15 16 17 17 15 13 13
4 6 5 6 6 7 7 6 7 8 10 11 12 13 13 12 13 16 18 20 22 22 20 19 21 20 19 18 17 17 18 16 16 17 18 16 16 16 17 17 17 16 17
5 5 5 5 4 5 5 6 7 8 8 8 10 10 9 10 12 13 13 15 17 17 16 15 14 14 14 15 15 15 16 16 16 17 18 18 16 15 15 17 17 18 17
5 6 6 6 6 5 4 6 7 7 8 7 7 6 5 5 6 7 6 7 7 7 8 9 9 10 10 10 10 11 13 14 14 15 16 18 20 19 18 18 18 18 18
7 7 7 7 7 7 6 6 6 6 6 7 6 7 7 5 4 3 3 2 5 6 6 7 8 8 8 9 10 10 10 12 12 12 12 13 15 17 19 20 21 20 19
8 8 8 8 7 7 7 7 7 8 8 7 7 6 6 6 6 6 7 7 8 8 8 7 8 7 8 7 7 8 7 8 8 10 10 12 13 15 16 17 18 20 20
9 8 8 8 8 8 9 9 9 8 8 9 8 8 8 7 8 8 8 8 8 8 7 9 10 10 11 13 12 11 11 10 8 8 9 11 12 13 15 17 17 18 18
10 9 9 8 9 9 9 9 10 10 9 8 9 10 10 10 10 11 11 9 7 6 9 10 10 11 12 12 13 14 15 16 16 16 16 14 12 14 16 17 18 19 19